[[{"header":{"parameterUnit":"m.s-1","parameterCategory":1,"la1":30.6,"la2":29.2853,"lo1":-89.7004,"lo2":-87.6739,"dy":0.0162,"dx":0.0183,"nx":112,"ny":82,"refTime":"2024-06-08T00:00:00:Z","depth":0,"parameterNumber":2,"parameterNumberName":"U-component_of_WINDS"},"data":[0.0,0.0,0.0,0.0,0.0,0.0,0.0,0.0,0.0,0.0,0.0,0.0,0.0,0.0,0.0,0.0,0.0,0.0,0.0,0.0,0.0,0.0,0.0,0.0,0.0,0.0,0.0,0.0,0.0,0.0,0.0,0.0,0.0,0.0,0.0,0.0,0.0,0.0,0.0,0.0,0.0,0.0,0.0,0.0,0.0,0.0,0.0,0.0,0.0,0.0,0.0,0.0,0.0,0.0,0.0,0.0,0.0,0.0,0.0,0.0,0.0,0.0,0.0,0.0,0.0,0.0,0.0,0.0,0.0,0.0,0.0,0.0,0.0,0.0,0.0,0.0,0.0,0.0,0.0,0.0,0.0,0.0,0.0,0.0,0.0,0.0,0.0,0.0,0.0,0.0,0.0,-0.5264,-0.6147,-0.6663,-0.6675,-0.6463,-0.6111,-0.5531,0.0,0.0,0.0,0.0,0.0,0.0,0.0,0.0,0.0,0.0,0.0,0.0,0.0,0.0,0.0,0.0,0.0,0.0,0.0,0.0,0.0,0.0,0.0,0.0,0.0,0.0,0.0,0.0,0.0,0.0,0.0,0.0,0.0,0.0,0.0,0.0,0.0,0.0,0.0,0.0,0.0,0.0,0.0,0.0,0.0,0.0,0.0,0.0,0.0,0.0,0.0,0.0,0.0,0.0,0.0,0.0,0.0,0.0,0.0,0.0,0.0,0.0,0.0,0.0,0.0,0.0,0.0,0.0,0.0,0.0,0.0,0.0,0.0,0.0,0.0,0.0,0.0,0.0,0.0,0.0,0.0,0.0,0.0,0.0,0.0,0.0,0.0,0.0,0.0,0.0,0.0,0.0,0.0,0.0,0.0,0.0,0.0,0.0,0.0,0.0,0.0,0.0,0.0,0.0,-0.5169,-0.629,-0.6636,-0.6853,-0.6831,-0.657,-0.6253,-0.5877,0.0,0.0,0.0,0.0,0.0,0.0,0.0,0.0,0.0,0.0,0.0,0.0,0.0,0.0,0.0,0.0,0.0,0.0,0.0,0.0,0.0,0.0,0.0,0.0,0.0,0.0,0.0,0.0,0.0,0.0,0.0,0.0,0.0,0.0,0.0,0.0,0.0,0.0,0.0,0.0,0.0,0.0,0.0,0.0,0.0,0.0,0.0,0.0,0.0,0.0,0.0,0.0,0.0,0.0,0.0,0.0,0.0,0.0,0.0,0.0,0.0,0.0,0.0,0.0,0.0,0.0,0.0,0.0,0.0,0.0,0.0,0.0,0.0,0.0,0.0,0.0,0.0,0.0,0.0,0.0,0.0,0.0,0.0,0.0,0.0,0.0,0.0,0.0,0.0,0.0,0.0,0.0,0.0,0.0,0.0,0.0,0.0,0.0,0.0,0.0,0.0,0.0,0.0,-0.4955,-0.5586,-0.668,-0.6999,-0.7099,-0.7249,-0.6787,-0.6452,-0.6106,-0.514,0.0,0.0,0.0,0.0,0.0,0.0,0.0,0.0,0.0,0.0,0.0,0.0,0.0,0.0,0.0,0.0,0.0,0.0,0.0,0.0,0.0,0.0,0.0,0.0,0.0,0.0,0.0,0.0,0.0,0.0,0.0,0.0,0.0,0.0,0.0,0.0,0.0,0.0,0.0,0.0,0.0,0.0,0.0,0.0,0.0,0.0,0.0,0.0,0.0,0.0,0.0,0.0,0.0,0.0,0.0,0.0,0.0,0.0,0.0,0.0,0.0,0.0,0.0,0.0,0.0,0.0,0.0,0.0,0.0,0.0,0.0,0.0,0.0,0.0,0.0,0.0,0.0,0.0,0.0,0.0,0.0,0.0,0.0,0.0,0.0,0.0,0.0,0.0,0.0,0.0,0.0,0.0,0.0,0.0,0.0,0.0,0.0,0.0,0.0,0.0,0.0,0.0,-0.5609,-0.6,-0.6912,-0.7179,-0.7334,-0.7407,-0.6941,-0.6506,-0.623,-0.5061,0.0,0.0,0.0,0.0,0.0,0.0,0.0,0.0,0.0,0.0,0.0,0.0,0.0,0.0,0.0,0.0,0.0,0.0,0.0,0.0,0.0,0.0,0.0,0.0,0.0,0.0,0.0,0.0,0.0,0.0,0.0,0.0,0.0,0.0,0.0,0.0,0.0,0.0,0.0,0.0,0.0,0.0,0.0,0.0,0.0,0.0,0.0,0.0,0.0,0.0,0.0,0.0,0.0,0.0,0.0,0.0,0.0,0.0,0.0,0.0,0.0,0.0,0.0,0.0,0.0,0.0,0.0,0.0,0.0,0.0,0.0,0.0,0.0,0.0,0.0,0.0,0.0,0.0,0.0,0.0,0.0,0.0,0.0,0.0,0.0,0.0,0.0,0.0,0.0,0.0,0.0,0.0,0.0,0.0,0.0,0.0,0.0,0.0,0.0,0.0,0.0,0.0,-0.6067,-0.6651,-0.7106,-0.7326,-0.7407,-0.7257,-0.6714,-0.6378,-0.6214,-0.4899,0.0,0.0,0.0,0.0,0.0,0.0,0.0,0.0,0.0,0.0,0.0,0.0,0.0,0.0,0.0,0.0,0.0,0.0,0.0,0.0,0.0,0.0,0.0,0.0,0.0,0.0,0.0,0.0,0.0,0.0,0.0,0.0,0.0,0.0,0.0,0.0,0.0,0.0,0.0,0.0,0.0,0.0,0.0,0.0,0.0,0.0,0.0,0.0,0.0,0.0,0.0,0.0,0.0,0.0,0.0,0.0,0.0,0.0,0.0,0.0,0.0,0.0,0.0,0.0,0.0,0.0,0.0,0.0,0.0,0.0,0.0,0.0,0.0,0.0,0.0,0.0,0.0,0.0,0.0,0.0,0.0,0.0,0.0,0.0,0.0,0.0,0.0,0.0,0.0,0.0,0.0,0.0,0.0,0.0,0.0,0.0,0.0,0.0,0.0,0.0,0.0,0.0,-0.6061,-0.6557,0.0,-0.7484,-0.7484,-0.7411,-0.7033,-0.6543,-0.6081,0.0,0.0,0.0,0.0,0.0,0.0,0.0,0.0,0.0,0.0,0.0,0.0,0.0,0.0,0.0,0.0,0.0,0.0,0.0,0.0,0.0,0.0,0.0,0.0,0.0,0.0,0.0,0.0,0.0,0.0,0.0,0.0,0.0,0.0,0.0,0.0,0.0,0.0,0.0,0.0,0.0,0.0,0.0,0.0,0.0,0.0,0.0,0.0,0.0,0.0,0.0,0.0,0.0,0.0,0.0,0.0,0.0,0.0,0.0,0.0,0.0,0.0,0.0,0.0,0.0,0.0,0.0,0.0,0.0,0.0,0.0,0.0,0.0,0.0,0.0,0.0,0.0,0.0,0.0,0.0,0.0,0.0,0.0,0.0,0.0,0.0,0.0,0.0,0.0,0.0,0.0,0.0,0.0,0.0,0.0,0.0,0.0,0.0,0.0,0.0,0.0,0.0,-0.5719,-0.6201,-0.6674,0.0,-0.7484,-0.7484,-0.7407,-0.7054,-0.6603,-0.6117,0.0,0.0,0.0,0.0,0.0,0.0,0.0,0.0,0.0,0.0,0.0,0.0,0.0,0.0,0.0,0.0,0.0,0.0,0.0,0.0,0.0,0.0,0.0,0.0,0.0,0.0,0.0,0.0,0.0,0.0,0.0,0.0,0.0,0.0,0.0,0.0,0.0,0.0,0.0,0.0,0.0,0.0,0.0,0.0,0.0,0.0,0.0,0.0,0.0,0.0,0.0,0.0,0.0,0.0,0.0,0.0,0.0,0.0,0.0,0.0,0.0,0.0,0.0,0.0,0.0,0.0,0.0,0.0,0.0,0.0,0.0,0.0,0.0,0.0,0.0,0.0,0.0,0.0,0.0,0.0,0.0,0.0,0.0,0.0,0.0,0.0,0.0,0.0,0.0,0.0,0.0,0.0,0.0,0.0,0.0,0.0,0.0,0.0,0.0,0.0,0.0,0.0,-0.5724,-0.6483,-0.7017,-0.7149,-0.7411,-0.7407,-0.7184,-0.6698,-0.6343,0.0,0.0,0.0,0.0,0.0,0.0,0.0,0.0,0.0,0.0,0.0,0.0,0.0,0.0,0.0,0.0,0.0,0.0,0.0,0.0,0.0,0.0,0.0,0.0,0.0,0.0,0.0,0.0,0.0,0.0,0.0,0.0,0.0,0.0,0.0,0.0,0.0,0.0,0.0,0.0,0.0,0.0,0.0,0.0,0.0,0.0,0.0,0.0,0.0,0.0,0.0,0.0,0.0,0.0,0.0,0.0,0.0,0.0,0.0,0.0,0.0,0.0,0.0,0.0,0.0,0.0,0.0,0.0,0.0,0.0,0.0,0.0,0.0,0.0,0.0,0.0,0.0,0.0,0.0,0.0,0.0,0.0,0.0,0.0,0.0,0.0,0.0,0.0,0.0,0.0,0.0,0.0,0.0,0.0,0.0,0.0,0.0,0.0,0.0,0.0,0.0,0.0,0.0,-0.5593,-0.6279,-0.6845,-0.7305,-0.7328,-0.7386,-0.7592,-0.6992,-0.6356,-0.5743,0.0,0.0,0.0,0.0,0.0,0.0,0.0,0.0,0.0,0.0,0.0,0.0,0.0,0.0,0.0,0.0,0.0,0.0,0.0,0.0,0.0,0.0,0.0,0.0,0.0,0.0,0.0,0.0,0.0,0.0,0.0,0.0,0.0,0.0,0.0,0.0,0.0,0.0,0.0,0.0,0.0,0.0,0.0,0.0,0.0,0.0,0.0,0.0,0.0,0.0,0.0,0.0,0.0,0.0,0.0,0.0,0.0,0.0,0.0,0.0,0.0,0.0,0.0,0.0,0.0,0.0,0.0,0.0,0.0,0.0,0.0,0.0,0.0,0.0,0.0,0.0,0.0,0.0,0.0,0.0,0.0,0.0,0.0,0.0,0.0,0.0,0.0,0.0,0.0,0.0,0.0,0.0,0.0,0.0,0.0,0.0,0.0,0.0,0.0,0.0,0.0,0.0,-0.5717,-0.6479,-0.7116,-0.756,-0.7601,-0.7557,-0.7756,-0.7258,-0.6549,-0.584,0.0,0.0,0.0,0.0,0.0,0.0,0.0,0.0,0.0,0.0,0.0,0.0,0.0,0.0,0.0,0.0,0.0,0.0,0.0,0.0,0.0,0.0,0.0,0.0,0.0,0.0,0.0,0.0,0.0,0.0,0.0,0.0,0.0,0.0,0.0,0.0,0.0,0.0,0.0,0.0,0.0,0.0,0.0,0.0,0.0,0.0,0.0,0.0,0.0,0.0,0.0,0.0,0.0,0.0,0.0,0.0,0.0,0.0,0.0,0.0,0.0,0.0,0.0,0.0,0.0,0.0,0.0,0.0,0.0,0.0,0.0,0.0,0.0,0.0,0.0,0.0,0.0,0.0,0.0,0.0,0.0,0.0,0.0,0.0,0.0,0.0,0.0,0.0,0.0,0.0,0.0,0.0,0.0,0.0,0.0,0.0,0.0,0.0,0.0,0.0,0.0,0.0,-0.6067,-0.6927,-0.7626,-0.8,-0.7942,-0.7951,-0.7797,-0.7456,-0.6869,-0.6217,0.0,0.0,0.0,0.0,0.0,0.0,0.0,0.0,0.0,0.0,0.0,0.0,0.0,0.0,0.0,0.0,0.0,0.0,0.0,0.0,0.0,0.0,0.0,0.0,0.0,0.0,0.0,0.0,0.0,0.0,0.0,0.0,0.0,0.0,0.0,0.0,0.0,0.0,0.0,0.0,0.0,0.0,0.0,0.0,0.0,0.0,0.0,0.0,0.0,0.0,0.0,0.0,0.0,0.0,0.0,0.0,0.0,0.0,0.0,0.0,-0.1055,0.0,0.0,0.0,0.0,0.0,0.0,0.0,0.0,0.0,0.0,0.0,0.0,0.0,0.0,0.0,0.0,0.0,0.0,0.0,0.0,0.0,0.0,0.0,0.0,0.0,0.0,0.0,0.0,0.0,0.0,0.0,0.0,0.0,0.0,0.0,0.0,0.0,0.0,0.0,0.0,0.0,-0.5887,-0.671,-0.7442,-0.793,-0.7856,-0.7839,-0.7963,-0.7317,-0.6753,-0.6203,-0.54,0.0,0.0,0.0,0.0,0.0,0.0,0.0,0.0,0.0,0.0,0.0,0.0,0.0,0.0,0.0,0.0,0.0,0.0,0.0,0.0,0.0,0.0,0.0,0.0,0.0,0.0,0.0,0.0,0.0,0.0,0.0,0.0,0.0,0.0,0.0,0.0,0.0,0.0,0.0,0.0,0.0,0.0,0.0,0.0,0.0,0.0,0.0,0.0,0.0,0.0,0.0,0.0,0.0,0.0,0.0,0.0,0.0,0.0,0.0,0.0,-0.1158,0.0,0.0,0.0,0.0,0.0,0.0,0.0,0.0,0.0,0.0,0.0,0.0,0.0,0.0,0.0,0.0,0.0,0.0,0.0,0.0,0.0,0.0,0.0,0.0,0.0,0.0,0.0,0.0,0.0,0.0,0.0,0.0,0.0,0.0,0.0,0.0,0.0,0.0,0.0,0.0,-0.6218,-0.7052,-0.7756,-0.8205,-0.817,-0.8163,-0.8154,-0.7656,-0.7151,-0.6698,-0.5901,0.0,0.0,0.0,0.0,0.0,0.0,0.0,0.0,0.0,0.0,0.0,0.0,0.0,0.0,0.0,0.0,0.0,0.0,0.0,0.0,0.0,0.0,0.0,0.0,0.0,0.0,0.0,0.0,0.0,0.0,0.0,0.0,0.0,0.0,0.0,0.0,0.0,0.0,0.0,0.0,0.0,0.0,0.0,0.0,0.0,0.0,0.0,0.0,0.0,0.0,0.0,0.0,0.0,-0.1245,-0.1277,-0.1296,-0.1296,-0.1313,-0.1335,-0.1203,-0.1304,-0.1466,0.0,0.0,0.0,0.0,0.0,0.0,0.0,0.0,0.0,0.0,0.0,0.0,0.0,0.0,0.0,0.0,0.0,0.0,0.0,0.0,0.0,0.0,0.0,0.0,0.0,-0.6929,-0.681,0.0,0.0,0.0,0.0,0.0,0.0,0.0,0.0,0.0,0.0,0.0,0.0,-0.673,-0.756,-0.8191,-0.8532,-0.8568,-0.8491,-0.8304,-0.802,-0.7687,-0.7297,-0.6547,-0.5927,0.0,0.0,0.0,0.0,0.0,0.0,0.0,0.0,0.0,0.0,0.0,0.0,0.0,0.0,0.0,0.0,0.0,0.0,0.0,0.0,0.0,0.0,0.0,0.0,0.0,0.0,0.0,0.0,0.0,0.0,0.0,0.0,-0.0738,-0.0889,0.0,0.0,0.0,0.0,0.0,0.0,0.0,0.0,0.0,0.0,0.0,0.0,0.0,-0.1197,-0.1228,-0.1312,-0.1344,-0.1325,-0.1433,-0.1473,-0.1451,-0.1451,-0.1468,-0.1494,-0.1448,0.0,-0.2398,-0.1573,0.0,0.0,0.0,0.0,0.0,0.0,0.0,0.0,0.0,0.0,0.0,0.0,0.0,0.0,0.0,0.0,0.0,0.0,0.0,0.0,0.0,0.0,-0.8162,-0.8095,-0.8195,-0.8274,0.0,-0.69,-0.5956,-0.5826,-0.5451,0.0,0.0,0.0,0.0,0.0,0.0,0.0,-0.7104,-0.7825,-0.8337,-0.8544,-0.8568,-0.8491,-0.8304,-0.8082,-0.7839,-0.7484,-0.7064,-0.6695,-0.6534,-0.5624,0.0,0.0,0.0,0.0,0.0,0.0,0.0,0.0,0.0,0.0,0.0,0.0,0.0,0.0,0.0,0.0,0.0,0.0,0.0,0.0,0.0,0.0,0.0,0.0,0.0,0.0,0.0,0.0,0.0,-0.1126,-0.0864,-0.1016,-0.0961,-0.0865,0.0,0.0,0.0,0.0,0.0,0.0,0.0,0.0,0.0,-0.1246,-0.129,-0.1335,-0.1382,-0.1438,-0.1469,-0.1474,-0.1544,-0.1579,-0.1583,-0.1599,-0.1613,-0.1625,-0.1612,-0.2142,-0.285,-0.2375,-0.2317,-0.2444,0.0,0.0,0.0,0.0,-0.3336,-0.3787,-0.4892,-0.5395,0.0,-0.6627,0.0,0.0,0.0,0.0,0.0,0.0,0.0,0.0,0.0,0.0,-0.8472,-0.8684,-0.8866,-0.887,-0.8802,-0.8103,-0.7418,0.0,-0.6499,-0.6121,-0.5378,0.0,0.0,0.0,0.0,0.0,-0.75,-0.8024,-0.8361,-0.8548,-0.8568,-0.8536,-0.845,-0.8267,-0.8062,-0.7801,-0.7443,-0.7134,-0.6855,-0.6367,-0.5791,0.0,0.0,0.0,0.0,0.0,0.0,0.0,0.0,0.0,0.0,0.0,0.0,0.0,0.0,0.0,0.0,0.0,0.0,0.0,0.0,0.0,0.0,0.0,0.0,0.0,0.0,0.0,0.0,-0.0817,-0.0949,-0.1151,-0.1016,-0.0921,0.0,0.0,0.0,0.0,0.0,0.0,-0.121,-0.1249,-0.1307,-0.1391,-0.1429,-0.1473,-0.1527,-0.1557,-0.1583,-0.1606,-0.1628,-0.1651,-0.1674,-0.1695,-0.1917,-0.2129,-0.2129,-0.2746,-0.3622,-0.2921,-0.2404,-0.2166,-0.3407,-0.3585,-0.3179,-0.3982,-0.4422,-0.4828,-0.6076,-0.6587,-0.6716,-0.7458,0.0,-0.7355,-0.6619,0.0,0.0,0.0,0.0,-0.771,-0.8324,-0.8527,-0.8689,-0.9115,-0.9256,-0.9236,-0.925,-0.8995,-0.8645,0.0,-0.7542,-0.7177,-0.6277,0.0,0.0,0.0,0.0,-0.7573,-0.7979,-0.8304,-0.8548,-0.869,-0.8662,-0.8633,-0.8633,-0.8467,-0.8264,-0.8028,-0.7764,-0.746,-0.7175,-0.6879,-0.6485,-0.5836,0.0,0.0,0.0,0.0,0.0,0.0,0.0,0.0,0.0,0.0,0.0,0.0,0.0,0.0,0.0,0.0,0.0,0.0,0.0,0.0,0.0,0.0,0.0,0.0,0.0,0.0,0.0,0.0,0.0,-0.1241,-0.1092,0.0,0.0,0.0,0.0,-0.1196,-0.1229,-0.1275,-0.1336,-0.1393,-0.1453,-0.1515,-0.1575,-0.1621,-0.1653,-0.1681,-0.1696,-0.1697,-0.1699,-0.1701,-0.1702,-0.1703,-0.2343,-0.3406,-0.3406,-0.404,-0.4972,-0.2649,-0.2646,-0.4052,-0.4242,-0.4876,-0.5778,-0.6367,-0.7238,-0.8166,-0.7795,-0.8029,-0.8766,-0.9181,-0.8971,-0.8442,-0.8276,-0.7906,0.0,0.0,-0.8312,-0.8584,-0.9213,-0.9378,-0.9355,-0.9501,-0.9608,-0.9608,-0.9604,-0.9263,-0.8934,0.0,-0.8487,-0.8138,-0.7736,0.0,-0.7492,-0.7642,-0.7841,-0.8166,-0.8698,-0.8934,-0.906,-0.9072,-0.8913,-0.8808,-0.8808,-0.8653,-0.8398,-0.8036,-0.7996,-0.7825,-0.7472,-0.7123,-0.6842,-0.6431,-0.5672,0.0,0.0,0.0,0.0,0.0,0.0,0.0,0.0,0.0,0.0,0.0,0.0,0.0,0.0,0.0,0.0,0.0,0.0,0.0,0.0,0.0,0.0,0.0,0.0,0.0,0.0,0.0,0.0,-0.1359,-0.1345,0.0,0.0,-0.217,-0.233,-0.1299,-0.204,-0.2125,-0.146,-0.1519,-0.1571,-0.1612,-0.1652,-0.2097,-0.2849,-0.2124,-0.2448,-0.404,-0.2477,-0.2165,-0.2812,-0.2081,-0.2421,-0.3628,-0.3734,-0.4501,-0.5593,-0.4874,-0.4225,-0.3885,-0.5376,-0.5438,-0.471,-0.5553,-0.6168,-0.6773,-0.7226,-0.7613,-0.7959,-0.8769,-0.8764,-0.85,-0.8356,-0.8436,-0.8582,-0.875,-0.8986,-0.9287,-0.9505,-0.9535,-0.9525,-0.9628,-0.9628,-0.9628,-0.9628,-0.9477,-0.9397,-0.9364,-0.8862,-0.8472,-0.8182,-0.8235,-0.8288,-0.8126,-0.8349,-0.8645,-0.8958,-0.9056,-0.9096,-0.9096,-0.893,-0.882,-0.882,-0.8666,-0.841,-0.8036,-0.8012,-0.7854,-0.7496,-0.7257,-0.6985,-0.6615,-0.6193,-0.5631,0.0,0.0,0.0,0.0,0.0,0.0,0.0,0.0,0.0,0.0,0.0,0.0,0.0,0.0,0.0,0.0,0.0,0.0,0.0,0.0,0.0,0.0,0.0,0.0,0.0,0.0,-0.1257,-0.1343,-0.2117,-0.2375,-0.1634,-0.2813,-0.2995,-0.1511,-0.2121,-0.229,-0.157,-0.161,-0.1851,-0.2303,-0.1918,-0.2256,-0.3542,-0.2699,-0.3139,-0.4759,-0.3612,-0.3411,-0.4068,-0.334,-0.3692,-0.4808,-0.5139,-0.5917,-0.7035,-0.7252,-0.6501,-0.5184,-0.665,-0.6396,-0.5516,-0.6469,-0.6998,-0.7308,-0.8049,-0.8259,-0.8438,-0.9063,-0.9178,-0.8985,-0.9005,-0.9169,-0.944,-0.9417,-0.9622,-0.9799,-0.9758,-0.973,-0.9701,-0.964,-0.9628,-0.9628,-0.9628,-0.9628,-0.9628,-0.9628,-0.9235,-0.8945,-0.8723,-0.8844,-0.8922,-0.8682,-0.8848,-0.9068,-0.925,-0.9275,-0.9275,-0.9275,-0.9108,-0.8974,-0.8917,-0.8702,-0.8434,-0.8126,-0.7996,-0.7821,-0.7586,-0.735,-0.7082,-0.6777,-0.6477,-0.594,-0.5234,0.0,0.0,0.0,0.0,0.0,0.0,0.0,0.0,0.0,0.0,0.0,0.0,0.0,0.0,0.0,0.0,0.0,0.0,0.0,0.0,0.0,0.0,0.0,-0.3303,-0.226,-0.153,-0.1419,-0.3364,-0.3916,-0.1844,-0.2948,-0.3172,-0.167,-0.1672,-0.18,-0.1764,-0.1769,-0.2305,-0.3512,-0.2493,-0.2405,-0.3601,-0.3661,-0.3692,-0.3804,-0.4916,-0.5472,-0.5472,-0.5361,-0.6031,-0.7152,-0.7482,-0.826,-0.9489,-0.9706,-0.9144,-0.8014,-0.7883,-0.7968,-0.8381,-0.9444,-0.9971,-1.0176,-1.0176,-1.0172,-1.0172,-1.0172,-1.0199,-1.0165,-1.0237,-1.0173,-1.0226,-1.0162,-1.0214,-1.014,-0.9919,-0.9941,-0.9851,-0.9685,-0.964,-0.9636,-0.9636,-0.9632,-0.9628,-0.9628,-0.9628,-0.9571,-0.9393,-0.9364,-0.9364,-0.9364,-0.9364,0.0,-0.9604,-0.9628,-0.9628,-0.9628,-0.9466,-0.9287,-0.912,-0.8779,-0.8491,-0.8304,-0.7963,-0.7768,-0.784,-0.7419,-0.7147,-0.7036,-0.6502,-0.6137,-0.5904,0.0,0.0,0.0,0.0,0.0,0.0,0.0,0.0,0.0,0.0,0.0,0.0,0.0,0.0,0.0,0.0,0.0,0.0,0.0,0.0,0.0,0.0,-0.5292,-0.416,-0.5078,-0.5193,-0.3235,-0.3587,-0.3886,-0.3297,-0.4027,-0.3698,-0.1839,-0.3874,-0.4631,-0.3063,-0.3848,-0.4097,-0.3466,-0.4294,-0.4773,-0.4882,-0.5129,-0.5922,-0.7374,-0.6031,-0.5808,-0.6591,-0.5808,-0.6031,-0.7152,-0.77,-0.8589,-0.9706,-1.0253,-1.0249,-0.9911,-0.9428,-0.8941,-0.8573,-0.9457,-1.0008,-1.0225,-1.0225,-1.025,-1.0359,-1.0359,-1.0249,-1.0207,-1.0248,-1.0193,-1.0218,-1.0183,-1.0158,-1.0148,-1.0144,-1.0099,-1.0075,-1.0026,-0.9912,-0.9815,-0.9815,-0.9713,-0.9628,-0.9628,-0.9628,-0.9612,-0.9559,-0.9551,-0.9551,-0.9551,-0.9551,0.0,-0.962,-0.9628,-0.9628,-0.9628,-0.9466,-0.9336,-0.9287,-0.8954,-0.8621,-0.8308,-0.8073,-0.789,-0.7764,-0.7537,-0.733,-0.7155,-0.6753,-0.6457,0.0,0.0,0.0,0.0,0.0,0.0,0.0,0.0,0.0,0.0,0.0,0.0,0.0,0.0,0.0,0.0,0.0,0.0,0.0,0.0,0.0,0.0,-0.6207,-0.6486,-0.5854,-0.6435,-0.6521,-0.5456,-0.5087,-0.4577,-0.3827,-0.4459,-0.4193,-0.2487,-0.4273,-0.4849,-0.3545,-0.4772,-0.514,-0.4515,-0.5445,-0.6031,-0.6364,-0.6478,-0.7038,-0.8156,-0.7371,-0.7368,-0.8042,-0.7479,-0.7587,0.0,-0.8699,-0.9364,-1.0036,-1.0472,-1.0692,0.0,0.0,0.0,0.0,0.0,-1.0253,-1.0476,-1.0476,-1.0518,-1.0542,-1.0542,-1.0469,-1.0383,-1.0383,-1.0413,-1.046,-1.046,-1.0365,-1.0341,-1.031,-1.0274,-1.0257,-1.018,-1.0079,-1.0002,-1.0002,-0.986,-0.9734,-0.9734,-0.9677,0.0,-0.9628,-0.9628,-0.9628,-0.9628,-0.9628,-0.9628,-0.9628,-0.9628,-0.9628,-0.9628,-0.9535,-0.9437,-0.936,-0.9027,0.0,0.0,0.0,-0.7939,-0.7768,-0.7655,0.0,0.0,0.0,0.0,0.0,0.0,0.0,0.0,-0.6575,-0.6623,0.0,0.0,0.0,0.0,0.0,0.0,0.0,0.0,0.0,0.0,0.0,0.0,0.0,0.0,0.0,0.0,-0.7292,-0.7457,-0.7832,-0.6939,-0.6634,-0.765,-0.6973,-0.5839,-0.4343,-0.4814,-0.4763,-0.3748,-0.4016,-0.4082,-0.4041,0.0,0.0,0.0,0.0,-0.703,-0.7593,-0.7814,-0.7703,-0.7374,-0.8819,-0.95,-0.9514,-0.9732,-0.9853,-0.9872,-1.02,-1.0311,-1.0426,-1.0643,-1.0741,-1.072,-1.07,-1.0692,-1.0692,-1.0692,-1.0692,-1.0692,-1.0692,0.0,0.0,-1.0692,-1.0692,-1.0692,-1.0692,-1.0692,-1.0692,-1.0692,-1.0692,-1.066,-1.0505,-1.0465,-1.0424,-1.0262,-1.0205,-1.0193,-1.0193,-1.0046,-0.9908,-0.9888,-0.9762,-0.9652,-0.9632,-0.9628,-0.9628,-0.9628,-0.9628,-0.9628,-0.9628,-0.9628,-0.9628,-0.9628,0.0,0.0,-0.9401,-0.9076,-0.8873,-0.8852,-0.8381,-0.8036,-0.7886,-0.7878,-0.7878,-0.7878,-0.7862,-0.7927,-0.8077,-0.826,-0.8349,-0.8325,-0.7358,-0.7257,0.0,0.0,0.0,0.0,0.0,0.0,0.0,0.0,0.0,0.0,0.0,0.0,0.0,0.0,0.0,-0.7058,-0.757,-0.8013,-0.8361,-0.8376,-0.8153,-0.7994,-0.722,-0.6667,-0.6457,-0.6586,-0.6367,-0.5699,-0.7133,-0.7852,-0.7207,-0.8106,-0.8342,-0.7584,-0.8806,-0.903,-0.7919,-0.9144,-0.9592,-0.9261,0.0,0.0,-1.0006,-1.0006,-1.0081,-1.0208,-1.0551,-1.0665,-1.0665,-1.1004,-1.1037,-1.0903,-1.0749,-1.0692,-1.0692,-1.0692,-1.0692,-1.0692,-1.0692,-1.0692,-1.0692,-1.0692,-1.0692,-1.0692,-1.0692,-1.0692,0.0,-1.0692,-1.0692,-1.0684,-1.0651,-1.0643,-1.0635,-1.0599,-1.0485,-1.0383,-1.0383,-1.0237,-1.0063,-0.9916,-0.9855,-0.9791,-0.9652,-0.9628,-0.9628,-0.9628,-0.9628,-0.9628,-0.9628,-0.9628,-0.9628,-0.9628,-0.9628,-0.9612,-0.9575,-0.9376,-0.9194,-0.9051,-0.8804,-0.8649,-0.8617,-0.8613,-0.8613,-0.8613,-0.8483,-0.8426,-0.8463,-0.8633,-0.8718,-0.871,-0.8365,-0.8353,0.0,0.0,0.0,0.0,0.0,0.0,0.0,0.0,0.0,0.0,0.0,-0.593,0.0,0.0,-0.7165,-0.7745,-0.8069,-0.8427,-0.8687,-0.8776,-0.8627,-0.8237,-0.7932,-0.7582,-0.71,-0.7173,-0.7293,-0.7161,-0.8001,-0.8404,-0.8026,-0.9144,-0.9368,-0.8251,-0.9776,-1.0158,-0.9259,-1.0126,-1.0397,-1.0058,-1.0171,-1.0326,-1.0406,-1.0634,-1.0681,-1.0763,-1.0878,-1.0993,-1.0993,-1.1105,-1.1171,-1.1086,-1.0992,-1.085,-1.0692,-1.0692,-1.0692,-1.0692,-1.0692,-1.0692,-1.0692,-1.0692,-1.0692,-1.0692,-1.0692,-1.0692,-1.0692,-1.0692,-1.0692,-1.0692,-1.0692,-1.0692,-1.0692,-1.0692,-1.0627,-1.0562,-1.0562,-1.0424,-1.027,-1.018,-1.001,-0.9855,-0.977,-0.9685,-0.9628,-0.9628,-0.9628,-0.9628,-0.9628,-0.9628,-0.9628,-0.9628,-0.9628,-0.9628,-0.9628,-0.9458,-0.9283,-0.9108,-0.9011,-0.8958,-0.8958,-0.8958,-0.8958,-0.8958,-0.8877,-0.8832,-0.8832,-0.9003,-0.9088,-0.9088,-0.9096,-0.9092,0.0,0.0,0.0,0.0,0.0,0.0,0.0,0.0,-0.5443,-0.5627,-0.6098,-0.663,-0.7119,-0.7425,-0.7858,-0.8527,-0.862,-0.8781,-0.8909,-0.8924,-0.8829,-0.863,-0.8726,-0.8496,-0.7651,-0.7773,-0.8123,-0.8504,-0.852,-0.8475,-0.8472,-0.9695,-0.9919,-0.8913,-1.0304,-1.0856,-1.063,-1.0795,-1.0763,-1.0532,-1.0763,-1.0898,-1.0929,-1.1161,-1.1293,-1.133,-1.133,-1.133,-1.133,-1.133,-1.1309,-1.1277,-1.1277,-1.1078,-1.0798,-1.0798,-1.0798,-1.0798,-1.0798,-1.0773,-1.0741,-1.0708,-1.0692,-1.0692,-1.0692,-1.0692,-1.0692,-1.0692,-1.0692,-1.0692,-1.0692,-1.0692,-1.0692,-1.0692,-1.0692,-1.0692,-1.0692,-1.0582,-1.0477,-1.044,-1.0197,-0.9969,-0.9896,-0.977,-0.9665,-0.9632,-0.9628,-0.9628,-0.9628,-0.9628,-0.9628,-0.9628,-0.9628,-0.9628,-0.9628,-0.9494,-0.9348,-0.921,-0.9202,-0.9202,-0.9202,-0.9202,-0.9202,-0.9202,-0.9202,-0.9202,-0.9202,-0.934,-0.9409,-0.9413,-0.9559,-0.9547,-0.4555,-0.4714,-0.488,-0.504,-0.5186,-0.546,0.0,0.0,-0.6403,-0.6695,-0.7017,-0.7344,-0.7645,-0.7916,-0.8243,-0.8583,-0.8912,-0.9114,-0.9133,-0.9331,-0.943,-0.9133,-0.8928,-0.8948,-0.9473,-0.9522,-0.9769,-1.0307,-1.0131,-1.0143,-1.0359,-1.0363,-1.0363,-1.0468,-1.0759,-1.0968,-1.0968,-1.1024,-1.1105,-1.1105,-1.1105,-1.1193,-1.1468,-1.1468,-1.1557,-1.1715,-1.1715,-1.1715,-1.1715,-1.1715,-1.1618,-1.1468,-1.1468,-1.1342,-1.1163,-1.1163,-1.1163,-1.1163,-1.1163,-1.1066,-1.1023,-1.0974,-1.081,-1.0692,-1.0692,-1.0692,-1.0692,-1.0692,-1.0692,-1.0692,-1.0692,-1.0692,-1.0692,-1.0692,-1.0692,-1.0692,-1.0692,-1.0676,-1.0615,-1.0465,-1.04,-1.027,-0.9941,-0.9868,-0.9803,-0.9652,-0.9628,-0.9628,-0.9628,-0.9628,-0.9628,-0.9628,-0.9628,-0.9628,-0.9628,-0.9608,-0.9592,-0.9571,-0.9567,-0.9567,-0.9567,-0.9567,-0.9567,-0.9567,-0.9567,-0.9567,-0.9567,-0.9587,-0.9596,-0.96,-0.9616,-0.9616,-0.5226,-0.5382,0.0,0.0,-0.5966,-0.6224,-0.6532,-0.6739,-0.6922,-0.7143,-0.7421,-0.7722,-0.8008,-0.819,-0.8438,0.0,-0.9091,-0.9236,-0.943,-0.943,-0.943,-0.943,-0.9232,-0.9264,-0.9715,-0.9955,-1.0204,-1.0668,-1.0582,-1.0582,-1.0692,-1.0582,-1.0582,-1.0692,-1.0968,-1.1118,-1.1118,-1.1403,-1.1545,-1.1545,-1.1545,-1.1585,-1.1663,-1.1663,-1.1703,-1.1776,-1.1776,-1.1776,-1.1776,-1.1776,-1.1732,-1.1663,-1.1663,-1.1614,-1.152,-1.1301,-1.1224,-1.1224,-1.1224,-1.1175,-1.1086,-1.1027,-1.097,-1.0834,-1.0724,-1.0692,-1.0692,-1.0692,-1.0692,-1.0692,-1.0692,-1.0692,-1.0692,-1.0692,-1.0692,-1.0692,-1.0692,-1.0692,-1.0672,-1.0599,-1.0505,-1.0387,-1.0233,-1.0026,-0.986,-0.9786,-0.9693,-0.9628,-0.9628,-0.9628,-0.9628,-0.9628,-0.9628,-0.9628,-0.9628,-0.9628,-0.9628,-0.9628,-0.9628,-0.9628,-0.9628,-0.9628,-0.9628,-0.9628,-0.9628,-0.9628,-0.9628,-0.9628,-0.9628,-0.9628,-0.9628,-0.9628,-0.5576,0.0,0.0,-0.6264,-0.6603,-0.6885,-0.697,-0.7204,-0.7451,-0.7656,-0.7886,-0.8164,-0.8466,-0.8557,0.0,-0.9232,-0.9331,-0.9335,-0.9529,-0.943,-0.943,-0.9529,-0.943,-0.9449,-0.9749,-1.0028,-1.029,-1.0599,-1.0664,-1.0692,-1.0692,-1.0692,-1.0716,-1.0765,-1.1062,-1.1248,-1.1297,-1.1618,-1.1776,-1.1776,-1.1776,-1.1776,-1.1776,-1.1776,-1.1776,-1.1776,-1.1776,-1.1776,-1.1776,-1.1776,-1.1776,-1.1776,-1.1776,-1.1776,-1.1744,-1.1472,-1.1374,-1.1374,-1.1374,-1.1342,-1.1277,-1.1155,-1.1049,-1.0944,-1.081,-1.0733,-1.0692,-1.0692,-1.0692,-1.0692,-1.0692,-1.0692,-1.0692,-1.0692,-1.0692,-1.0692,-1.0692,-1.0692,-1.0692,-1.0692,-1.059,-1.0489,-1.0444,-1.0213,-1.0002,-0.99,-0.9778,-0.9681,-0.9632,-0.9628,-0.9628,-0.9628,-0.9628,-0.9628,-0.9628,-0.9628,-0.9628,-0.9628,-0.9628,-0.9628,-0.9628,-0.9628,-0.9628,-0.9628,-0.9628,-0.9628,-0.9628,-0.9628,-0.9628,-0.9628,-0.9628,-0.9628,0.0,0.0,-0.6454,-0.6464,-0.6912,-0.744,-0.7709,-0.7959,-0.8286,-0.8483,-0.8706,-0.8821,-0.9126,-0.9133,-0.9232,-0.9529,-0.9628,-0.9628,-0.9628,-0.9628,-0.9628,-0.9628,-0.9628,-0.9697,0.0,-1.0059,-1.0241,-1.0428,-1.0599,-1.0692,-1.0692,-1.0692,-1.0773,-1.0956,-1.1131,-1.1309,-1.1488,-1.1683,-1.1776,-1.1776,-1.1776,-1.1776,-1.1776,-1.1776,-1.1776,-1.1776,-1.1776,-1.1776,-1.1776,-1.1776,-1.1776,-1.1776,-1.1776,-1.1776,-1.1776,-1.1764,-1.176,-1.176,-1.176,-1.1642,-1.1492,-1.1484,-1.1248,-1.0968,-1.0964,-1.0834,-1.0692,-1.0692,-1.0692,-1.0692,-1.0692,-1.0692,-1.0692,-1.0692,-1.0692,-1.0692,-1.0692,-1.0692,-1.0692,-1.0692,-1.0688,-1.0631,-1.0465,-1.0428,-1.0298,-0.9937,-0.988,-0.9815,-0.9648,-0.9628,-0.9628,-0.9628,-0.9628,-0.9628,-0.9628,-0.9628,-0.9628,-0.9628,-0.9628,-0.9628,-0.9628,-0.9628,-0.9628,-0.9628,-0.9628,-0.9628,-0.9628,-0.9628,-0.9628,-0.9628,-0.9628,-0.9628,0.0,0.0,-0.7323,-0.7534,-0.7916,-0.8237,-0.8328,-0.8497,-0.8619,-0.8612,-0.8545,-0.8596,-0.8791,-0.8886,-0.9017,-0.9425,-0.9547,-0.9628,-0.9628,-0.9628,-0.9628,-0.9628,-0.9628,0.0,0.0,0.0,0.0,-1.0412,-1.0489,-1.057,-1.0684,-1.0692,-1.0777,-1.0964,-1.1135,-1.1313,-1.1496,-1.1683,-1.1776,-1.1776,-1.1776,-1.1776,-1.1776,-1.1776,-1.1776,-1.1776,-1.1776,-1.1776,-1.1776,-1.1776,-1.1776,-1.1776,-1.1776,-1.1776,-1.1776,-1.1776,-1.1776,-1.1776,-1.1776,-1.1736,-1.1663,-1.1541,-1.1419,-1.1277,-1.1041,-1.0928,-1.085,-1.0724,-1.0692,-1.0692,-1.0692,-1.0692,-1.0692,-1.0692,-1.0692,-1.0692,-1.0692,-1.0692,-1.0692,-1.0692,-1.0692,-1.0672,-1.0615,-1.0509,-1.0351,-1.0107,-0.9868,-0.9693,-0.9632,-0.9628,-0.9628,-0.9628,-0.9628,-0.9628,-0.9628,-0.9628,-0.9628,-0.9628,-0.9628,-0.9628,-0.9628,-0.9628,-0.9628,-0.9628,-0.9628,-0.9628,-0.9628,-0.9628,-0.9628,-0.9628,-0.9628,-0.9628,0.0,-0.7612,-0.7944,-0.828,-0.8475,-0.8661,-0.8702,-0.8766,-0.887,-0.8744,-0.8559,-0.8444,-0.8623,-0.8572,-0.8718,-0.9214,-0.936,-0.9482,-0.9612,-0.9628,-0.9628,-0.9628,-0.9681,0.0,0.0,0.0,0.0,-1.0318,-1.0456,-1.0603,-1.0781,-1.0789,-1.0903,-1.1151,-1.1265,-1.1411,-1.1598,-1.1715,-1.1776,-1.1776,-1.1776,-1.1776,-1.1776,-1.1776,-1.1776,-1.1776,-1.1776,-1.1776,-1.1776,-1.1776,-1.1776,-1.1776,-1.1776,-1.1776,-1.1776,-1.1776,-1.1776,-1.1776,-1.1776,-1.1776,-1.1756,-1.1638,-1.1553,-1.1443,-1.1151,-1.1017,-1.0932,-1.0745,-1.0692,-1.0692,-1.0692,-1.0692,-1.0692,-1.0692,-1.0692,-1.0692,-1.0692,-1.0692,-1.0692,-1.0692,-1.0692,-1.0692,-1.0692,-1.055,-1.0396,-1.0278,-1.0006,-0.9795,-0.973,-0.9665,-0.9628,-0.9628,-0.9628,-0.9628,-0.9628,-0.9628,-0.9628,-0.9628,-0.9628,-0.9628,-0.9628,-0.9628,-0.9628,-0.9628,-0.9628,-0.9628,-0.9628,-0.9628,-0.9628,-0.9628,-0.9628,-0.9628,-0.7567,-0.804,-0.8287,-0.8619,-0.8709,-0.8871,-0.9007,-0.8952,-0.893,-0.8762,-0.8629,-0.8495,0.0,0.0,-0.8438,-0.897,-0.9088,-0.923,-0.9579,-0.9636,-0.964,0.0,0.0,0.0,0.0,0.0,0.0,-1.0176,0.0,-1.0765,-1.096,-1.0968,-1.1131,-1.1488,-1.15,-1.1589,-1.1776,-1.1776,-1.1776,-1.1776,-1.1776,-1.1776,-1.1776,-1.1776,-1.1776,-1.1776,-1.1776,-1.1776,-1.1776,-1.1776,-1.1776,-1.1776,-1.1776,-1.1776,-1.1776,-1.1776,-1.1776,-1.1776,-1.1776,-1.1776,-1.1776,-1.1776,-1.1658,-1.148,-1.1293,-1.1118,-1.0944,-1.0757,-1.07,-1.0692,-1.0692,-1.0692,-1.0692,-1.0692,-1.0692,-1.0692,-1.0692,-1.0692,-1.0692,-1.0692,-1.0692,-1.0692,-1.0692,-1.0558,-1.0448,-1.0448,-1.0294,-1.0107,-0.9908,-0.9742,-0.9636,-0.9628,-0.9628,-0.9628,-0.9628,-0.9628,-0.9628,-0.9628,-0.9628,-0.9628,-0.9628,-0.9628,-0.9628,-0.9628,-0.9628,-0.9628,-0.9628,-0.9628,-0.9628,-0.9628,-0.9628,-0.9632,-0.8209,-0.8758,-0.9176,-0.9307,-0.9295,-0.9216,-0.9268,-0.8959,-0.8573,-0.8296,-0.7874,-0.7525,0.0,0.0,0.0,-0.843,-0.8942,0.0,-0.9596,-0.9738,0.0,0.0,0.0,-1.0091,-1.0091,-1.0257,0.0,0.0,-1.0448,-1.0639,-1.0952,-1.0968,-1.1131,-1.1488,-1.15,-1.1589,-1.1776,-1.1776,-1.1776,-1.1776,-1.1776,-1.1776,-1.1776,-1.1776,-1.1776,-1.1776,-1.1776,-1.1776,-1.1776,-1.1776,-1.1776,-1.1776,-1.1776,-1.1776,-1.1776,-1.1776,-1.1776,-1.1776,-1.1776,-1.1776,-1.1776,-1.1776,-1.1744,-1.1671,-1.1484,-1.1301,-1.1122,-1.0948,-1.0798,-1.0692,-1.0692,-1.0692,-1.0692,-1.0692,-1.0692,-1.0692,-1.0692,-1.0692,-1.0692,-1.0692,-1.0692,-1.0692,-1.0692,-1.0655,-1.0627,-1.0627,-1.0477,-1.0249,-0.9929,-0.9847,-0.977,-0.964,-0.9628,-0.9628,-0.9628,-0.9628,-0.9628,-0.9628,-0.9628,-0.9628,-0.9628,-0.9628,-0.9628,-0.9628,-0.9628,-0.9628,-0.9628,-0.9628,-0.9628,-0.9628,-0.9628,-0.9697,-0.8792,-0.919,-0.9482,-0.9502,-0.9429,-0.925,-0.8857,-0.8536,-0.8154,-0.7557,-0.7135,0.0,0.0,0.0,0.0,0.0,0.0,0.0,-0.9462,-0.9726,-0.9884,0.0,-1.0119,0.0,-1.0282,-1.0444,-1.055,0.0,-1.0623,-1.0789,-1.1066,-1.1159,-1.133,-1.1614,-1.1622,-1.1671,-1.1776,-1.1776,-1.1776,-1.1776,-1.1776,-1.1776,-1.1776,-1.1776,-1.1776,-1.1776,0.0,-1.1776,-1.1776,-1.1776,-1.1776,-1.1776,-1.1776,-1.1776,-1.1776,-1.1776,-1.1776,-1.1776,-1.1776,-1.1776,-1.1776,-1.1776,-1.1776,-1.1744,-1.1553,-1.1427,-1.1309,-1.1131,-1.0952,-1.0814,-1.0814,-1.0753,-1.0692,-1.0692,-1.0692,-1.0692,-1.0692,-1.0692,-1.0692,-1.0692,-1.0692,-1.0692,-1.0692,-1.0692,-1.0692,-1.0692,-1.0611,-1.0448,-1.016,-0.9985,-0.9847,-0.975,-0.9673,-0.9628,-0.9628,-0.9628,-0.9628,-0.9628,-0.9628,-0.9628,-0.9628,-0.9628,-0.9628,-0.9628,-0.9628,-0.9628,-0.9628,-0.9628,-0.9628,-0.9628,-0.9628,-0.9721,-0.9198,-0.947,-0.9583,-0.9401,-0.9319,-0.906,-0.8207,-0.7939,-0.7634,-0.6798,0.0,0.0,-0.6282,0.0,-0.6891,-0.7606,0.0,-0.8759,-0.9315,-0.9677,-0.9892,-0.992,-1.0225,-1.0444,-1.0469,-1.0603,-1.0692,-1.0692,-1.0867,-1.1041,-1.1212,-1.1399,-1.1585,-1.1768,-1.1776,-1.1776,-1.1776,-1.1776,-1.1776,-1.1776,-1.1776,-1.1776,-1.1776,-1.1776,-1.1776,-1.1776,-1.1776,0.0,-1.1776,-1.1776,-1.1776,-1.1776,-1.1776,-1.1776,-1.1776,-1.1776,-1.1776,-1.1776,-1.1776,-1.1776,-1.1776,-1.1776,-1.1776,-1.1748,-1.1585,-1.152,-1.1459,-1.1277,-1.1098,-1.0964,-1.094,-1.0814,-1.0692,-1.0692,-1.0692,-1.0692,-1.0692,-1.0692,-1.0692,-1.0692,-1.0692,-1.0692,-1.0692,-1.0692,-1.0692,-1.0692,-1.0692,-1.0639,-1.0489,-1.0172,-0.9941,-0.9888,-0.975,-0.9652,-0.9628,-0.9628,-0.9628,-0.9628,-0.9628,-0.9628,-0.9628,-0.9628,-0.9628,-0.9628,-0.9628,-0.9628,-0.9628,-0.9628,-0.9628,-0.9628,-0.9628,-0.9734,-0.9116,-0.938,-0.9583,-0.9401,-0.9133,-0.8755,-0.815,-0.7557,0.0,0.0,0.0,-0.5709,-0.5506,-0.6046,0.0,-0.7415,0.0,0.0,0.0,0.0,-0.9941,0.0,0.0,0.0,0.0,0.0,0.0,0.0,0.0,-1.1041,-1.1212,-1.1399,-1.1585,-1.1768,-1.1776,-1.1776,-1.1776,-1.1776,-1.1776,-1.1776,-1.1776,-1.1776,-1.1776,-1.1776,-1.1776,-1.1776,-1.1776,0.0,-1.1776,-1.1776,-1.1776,-1.1776,-1.1776,-1.1776,-1.1776,-1.1776,-1.1776,-1.1776,-1.1776,-1.1776,-1.1776,-1.1776,-1.1776,-1.1768,-1.174,-1.1622,-1.1459,-1.1277,-1.1098,-1.0932,-1.0781,-1.0716,-1.0692,-1.0692,-1.0692,-1.0692,-1.0692,-1.0692,-1.0692,-1.0692,-1.0692,-1.0692,-1.0692,-1.0692,-1.0692,-1.0692,-1.0692,-1.068,-1.0651,-1.0469,-1.0225,-0.9916,-0.986,-0.9782,-0.964,-0.9628,-0.9628,-0.9628,-0.9628,-0.9628,-0.9628,-0.9628,-0.9628,-0.9628,-0.9628,-0.9628,-0.9628,-0.9628,-0.9628,-0.9628,-0.9628,-0.9803,-0.9157,-0.9356,-0.9441,-0.9263,-0.8954,-0.8475,-0.765,0.0,0.0,0.0,0.0,-0.5398,-0.5313,0.0,0.0,0.0,0.0,0.0,0.0,0.0,0.0,0.0,0.0,0.0,0.0,0.0,0.0,0.0,0.0,-1.1005,-1.1086,-1.135,-1.1585,-1.1768,-1.1776,-1.1776,-1.1776,-1.1776,-1.1776,-1.1776,-1.1776,-1.1776,-1.1776,-1.1776,-1.1776,-1.1776,-1.1776,0.0,-1.1776,-1.1776,-1.1776,-1.1776,-1.1776,-1.1776,-1.1776,-1.1776,-1.1776,-1.1776,-1.1776,-1.1776,-1.1776,-1.1776,-1.1776,-1.1776,-1.1776,-1.1715,-1.1606,-1.1419,-1.1236,-1.1062,-1.0883,-1.0765,-1.0692,-1.0692,-1.0692,-1.0692,-1.0692,-1.0692,-1.0692,-1.0692,-1.0692,-1.0692,-1.0692,-1.0692,-1.0692,-1.0692,-1.0692,-1.0692,-1.0692,-1.0619,-1.0465,-1.0201,-0.9998,-0.9851,-0.977,-0.9681,-0.9628,-0.9628,-0.9628,-0.9628,-0.9628,-0.9628,-0.9628,-0.9628,-0.9628,-0.9628,-0.9628,-0.9628,-0.9628,-0.9628,-0.9721,-0.9904,-0.9072,-0.9242,-0.9259,-0.9084,-0.8739,-0.8187,-0.7257,-0.6647,0.0,0.0,0.0,-0.5297,-0.5297,0.0,0.0,0.0,0.0,0.0,0.0,0.0,0.0,0.0,0.0,0.0,0.0,0.0,0.0,0.0,0.0,0.0,-1.1021,-1.1325,-1.1565,-1.1711,-1.1756,-1.1776,-1.1776,-1.1776,-1.1776,-1.1776,-1.1776,-1.1776,-1.1776,-1.1776,-1.1776,-1.1776,-1.1776,0.0,0.0,-1.1776,-1.1776,-1.1776,-1.1776,-1.1776,-1.1776,-1.1776,-1.1776,-1.1776,-1.1776,-1.1776,-1.1768,-1.1732,-1.1744,-1.1776,-1.1776,-1.1748,-1.1679,-1.1492,-1.1309,-1.1126,-1.0952,-1.0802,-1.0692,-1.0692,-1.0692,-1.0692,-1.0692,-1.0692,-1.0692,-1.0692,-1.0692,-1.0692,-1.0692,-1.0692,-1.0692,-1.0692,-1.0692,-1.0692,-1.0692,-1.0692,-1.0639,-1.0505,-1.0197,-0.9973,-0.9892,-0.9762,-0.9665,-0.9628,-0.9628,-0.9628,-0.9628,-0.9628,-0.9628,-0.9628,-0.9628,-0.9628,-0.9628,-0.9628,-0.9628,-0.9632,-0.9807,-0.9985,-0.8625,-0.8877,-0.9076,-0.8893,-0.845,-0.787,-0.7196,0.0,0.0,0.0,-0.5297,-0.5297,-0.5297,-0.545,0.0,0.0,0.0,0.0,0.0,0.0,0.0,0.0,0.0,0.0,0.0,0.0,0.0,0.0,0.0,0.0,-1.1183,-1.139,-1.1508,-1.1524,-1.1691,-1.1776,-1.1776,-1.1776,-1.1776,-1.1776,-1.1776,-1.1776,-1.1776,-1.1776,-1.1776,-1.1776,-1.1776,0.0,0.0,-1.1776,-1.1776,-1.1776,-1.1776,-1.1776,-1.1776,-1.1776,-1.1776,-1.1776,-1.1776,-1.1776,-1.1748,-1.1581,-1.1638,-1.1776,-1.1776,-1.1658,-1.1488,-1.1297,-1.1126,-1.0948,-1.0765,-1.0704,-1.0692,-1.0692,-1.0692,-1.0692,-1.0692,-1.0692,-1.0692,-1.0692,-1.0692,-1.0692,-1.0692,-1.0692,-1.0692,-1.0692,-1.0692,-1.0692,-1.0692,-1.0692,-1.0684,-1.0672,-1.0497,-1.0249,-0.9912,-0.9868,-0.9795,-0.964,-0.9628,-0.9628,-0.9628,-0.9628,-0.9628,-0.9628,-0.9628,-0.9628,-0.9628,-0.9628,-0.9628,-0.9632,-0.9807,-0.9985,-0.8446,-0.8747,-0.8889,-0.8714,-0.826,-0.7675,-0.696,0.0,0.0,-0.5386,-0.5297,-0.5297,-0.5297,-0.5353,-0.5584,-0.5969,-0.6156,-0.6591,0.0,0.0,0.0,0.0,0.0,0.0,0.0,0.0,0.0,0.0,0.0,0.0,-1.0895,-1.1078,-1.1228,-1.133,-1.1512,-1.161,-1.161,-1.1719,-1.1776,-1.1776,-1.1776,-1.1776,-1.1776,-1.1776,-1.1776,-1.1776,-1.1776,0.0,0.0,-1.1776,-1.1776,-1.1776,-1.1776,-1.1776,-1.1776,-1.1776,-1.1776,-1.176,-1.165,-1.161,-1.1577,-1.139,-1.1382,-1.1443,-1.1443,-1.139,-1.1293,-1.1118,-1.1021,-1.0928,-1.0741,-1.0692,-1.0692,-1.0692,-1.0692,-1.0692,-1.0692,-1.0692,-1.0692,-1.0692,-1.0692,-1.0692,-1.0692,-1.0692,-1.0692,-1.0692,-1.0692,-1.0692,-1.0692,-1.0692,-1.0692,-1.0692,-1.0538,-1.0331,-1.0075,-0.9949,-0.9811,-0.964,-0.9628,-0.9628,-0.9628,-0.9628,-0.9628,-0.9628,-0.9628,-0.9681,-0.9782,-0.9782,-0.9839,-0.9953,-1.0132,-1.0253,-0.8016,-0.8333,-0.8491,-0.8422,-0.7959,-0.7374,0.0,0.0,-0.5722,-0.5361,-0.5297,-0.5297,-0.5297,-0.5297,-0.5353,-0.5584,-0.5701,-0.6063,-0.6911,0.0,0.0,0.0,0.0,0.0,0.0,0.0,0.0,0.0,0.0,0.0,0.0,-1.0814,-1.0968,-1.1143,-1.1321,-1.1443,-1.15,-1.163,-1.1719,-1.1776,-1.1776,-1.1776,-1.1776,-1.1776,-1.1776,-1.1776,-1.1776,0.0,0.0,-1.1776,-1.1776,-1.1776,-1.1776,-1.1744,-1.1695,-1.1695,-1.1658,-1.1593,-1.1464,-1.1419,-1.1386,-1.1208,-1.1147,-1.1139,-1.1082,-1.1102,-1.1122,-1.1005,-1.0928,-1.0854,-1.0724,-1.0692,-1.0692,-1.0692,-1.0692,-1.0692,-1.0692,-1.0692,-1.0692,-1.0692,-1.0692,-1.0692,-1.0692,-1.0692,-1.0692,-1.0692,-1.0692,-1.0692,-1.0692,-1.0692,-1.0692,-1.0692,-1.0582,-1.044,-1.0257,-1.0075,-0.9892,-0.9713,-0.9701,-0.9681,-0.9628,-0.9677,-0.9681,-0.9628,-0.9677,-0.9762,-0.9884,-0.9941,-1.0034,-1.0164,-1.0351,-1.0465,-0.7188,-0.75,-0.7809,-0.7975,-0.7484,-0.6982,0.0,-0.6124,-0.5563,-0.5333,-0.5297,-0.5297,-0.5297,-0.5297,-0.5353,-0.5584,-0.5904,-0.6326,-0.7119,0.0,0.0,0.0,0.0,0.0,0.0,0.0,0.0,0.0,0.0,0.0,0.0,-1.0692,-1.0777,-1.0964,-1.1135,-1.1313,-1.1496,-1.15,-1.1593,-1.1776,-1.1776,-1.1776,-1.1776,-1.1776,-1.1776,0.0,0.0,0.0,0.0,-1.1776,-1.1776,-1.1776,-1.1776,-1.1663,-1.15,-1.15,-1.1386,-1.1228,-1.1228,-1.1224,-1.1196,-1.1025,-1.0972,-1.0936,-1.0753,-1.0826,-1.0972,-1.0968,-1.0838,-1.0692,-1.0692,-1.0692,-1.0692,-1.0692,-1.0692,-1.0692,-1.0692,-1.0692,-1.0692,-1.0692,-1.0692,-1.0692,-1.0692,-1.0692,-1.0692,-1.0692,-1.0692,-1.0692,-1.0692,-1.0692,-1.0692,-1.0692,-1.0688,-1.0619,-1.0444,-1.0266,-1.0079,-0.9892,-0.9884,-0.9807,-0.9632,-0.9791,-0.9803,-0.9632,-0.9795,-0.9884,-0.9884,-1.0071,-1.016,-1.0164,-1.0351,-1.0526,-0.6745,-0.7033,-0.7265,-0.7131,-0.6851,-0.6509,-0.6209,-0.5864,-0.5563,-0.5333,-0.5297,-0.5297,-0.5297,-0.5297,-0.5434,-0.5908,-0.6071,0.0,0.0,0.0,0.0,0.0,0.0,0.0,0.0,0.0,0.0,0.0,0.0,0.0,0.0,-1.0692,-1.072,-1.0777,-1.0956,-1.1078,-1.1139,-1.1252,-1.1338,-1.1399,-1.1399,-1.1399,-1.1399,-1.1399,-1.1399,0.0,0.0,0.0,0.0,-1.1537,-1.1512,-1.1399,-1.1399,-1.1362,-1.1309,-1.1309,-1.1273,-1.1204,-1.109,-1.1049,-1.1021,-1.0838,-1.0777,-1.0769,-1.0708,-1.0733,-1.0777,-1.0777,-1.0737,-1.0692,-1.0692,-1.0692,-1.0692,-1.0692,-1.0692,-1.0692,-1.0692,-1.0692,-1.0692,-1.0692,-1.0692,-1.0692,-1.0692,-1.0692,-1.0692,-1.0692,-1.0692,-1.0692,-1.0692,-1.0692,-1.0692,-1.0692,-1.0692,-1.0623,-1.0448,-1.0383,-1.027,-1.0083,-1.0075,-1.005,-0.9994,-1.0046,-1.005,-0.9994,-1.0046,-1.0136,-1.0262,-1.0318,-1.0408,-1.0526,-1.0582,-1.0639,0.0,-0.6465,-0.6707,-0.6599,-0.6404,-0.616,-0.5941,-0.5693,-0.543,-0.5321,-0.5297,-0.5297,-0.5297,-0.5297,-0.5406,-0.5791,-0.5961,0.0,0.0,0.0,0.0,0.0,0.0,0.0,0.0,0.0,0.0,0.0,0.0,0.0,0.0,-1.0692,-1.0692,-1.0692,-1.0806,-1.0899,-1.0968,-1.1074,-1.1159,-1.1224,-1.1224,-1.1224,-1.1224,-1.1224,-1.1224,0.0,0.0,0.0,0.0,-1.135,-1.1325,-1.1224,-1.1224,-1.1183,-1.1126,-1.1126,-1.1082,-1.1009,-1.0899,-1.0867,-1.0846,-1.0729,-1.0692,-1.0692,-1.0692,-1.0692,-1.0692,-1.0692,-1.0692,-1.0692,-1.0692,-1.0692,-1.0692,-1.0692,-1.0692,-1.0692,-1.0692,-1.0692,-1.0692,-1.0692,-1.0692,-1.0692,-1.0692,-1.0692,-1.0692,-1.0692,-1.0692,-1.0692,-1.0692,-1.0692,-1.0692,-1.0692,-1.0692,-1.0647,-1.0542,-1.0473,-1.0387,-1.027,-1.0266,-1.0233,-1.0164,-1.0229,-1.0233,-1.0164,-1.0229,-1.0322,-1.0436,-1.0501,-1.0586,-1.0692,-1.0692,-1.0692,0.0,0.0,0.0,0.0,-0.6055,-0.5811,-0.5811,-0.5563,0.0,-0.5281,-0.5289,-0.5309,-0.5333,-0.5317,-0.5325,-0.5402,0.0,0.0,0.0,0.0,0.0,0.0,0.0,0.0,0.0,0.0,0.0,0.0,0.0,0.0,0.0,-1.0692,-1.0692,-1.0692,-1.0692,-1.0773,-1.0948,-1.0952,-1.1029,-1.1183,-1.1183,-1.1183,-1.1183,-1.1183,-1.1183,0.0,0.0,0.0,0.0,-1.12,-1.1196,-1.1183,-1.1183,-1.109,-1.0952,-1.0952,-1.0842,-1.0692,-1.0692,-1.0692,-1.0692,-1.0692,-1.0692,-1.0692,-1.0692,-1.0692,-1.0692,-1.0692,-1.0692,-1.0692,-1.0692,-1.0692,-1.0692,-1.0692,-1.0692,-1.0692,-1.0692,-1.0692,-1.0692,-1.0692,-1.0692,-1.0692,-1.0692,-1.0692,-1.0692,-1.0692,-1.0692,-1.0692,-1.0692,-1.0692,-1.0692,-1.0692,-1.0692,-1.0692,-1.0692,-1.0546,-1.0452,-1.0452,-1.0452,-1.0375,-1.0205,-1.0363,-1.0371,-1.0201,-1.0367,-1.0452,-1.0452,-1.0615,-1.0692,-1.0692,-1.0692,-1.0692,-0.5136,0.0,-0.5129,-0.5169,-0.5121,-0.506,0.0,-0.5104,-0.5145,0.0,0.0,0.0,0.0,0.0,0.0,0.0,0.0,0.0,0.0,0.0,0.0,0.0,0.0,0.0,0.0,0.0,0.0,0.0,0.0,0.0,0.0,-1.0692,-1.0692,-1.0692,-1.0692,-1.0712,-1.0757,-1.0757,-1.0777,-1.0818,-1.0818,-1.0818,-1.0818,-1.0818,-1.0818,0.0,0.0,0.0,-1.0826,-1.0972,-1.0944,-1.0818,-1.0818,-1.0794,-1.0757,-1.0757,-1.0729,-1.0692,-1.0692,-1.0692,-1.0692,-1.0692,-1.0692,-1.0692,-1.0692,-1.0692,-1.0692,-1.0692,-1.0692,-1.0692,-1.0692,-1.0692,-1.0692,-1.0692,-1.0692,-1.0692,-1.0692,-1.0692,-1.0692,-1.0692,-1.0692,-1.0692,-1.0692,-1.0692,-1.0692,-1.0692,-1.0692,-1.0692,-1.0692,-1.0692,-1.0692,-1.0692,-1.0692,-1.0692,-1.0692,-1.0655,-1.0631,-1.0631,-1.0631,-1.0615,-1.057,-1.0607,-1.0611,-1.057,-1.0607,-1.0631,-1.0631,-1.0672,-1.0692,-1.0692,-1.0692,-1.0692,-0.4649,-0.4814,-0.5001,-0.5289,-0.5211,-0.5076,-0.5157,0.0,0.0,0.0,0.0,0.0,0.0,0.0,0.0,0.0,0.0,0.0,0.0,0.0,0.0,0.0,0.0,0.0,0.0,0.0,0.0,0.0,0.0,0.0,0.0,-1.0448,-1.0489,-1.057,-1.0574,-1.0611,-1.0692,-1.0692,-1.0692,-1.0692,-1.0692,-1.0692,-1.0692,-1.0692,-1.0692,0.0,0.0,0.0,-1.07,-1.0802,-1.0785,-1.0692,-1.0692,-1.0692,-1.0692,-1.0692,-1.0692,-1.0692,-1.0692,-1.0692,-1.0692,-1.0692,-1.0692,-1.0692,-1.0692,-1.0692,-1.0692,-1.0692,-1.0692,-1.0692,-1.0692,-1.0692,-1.0692,-1.0692,-1.0692,-1.0692,-1.0692,-1.0692,-1.0692,-1.0692,-1.0692,-1.0692,-1.0692,-1.0692,-1.0692,-1.0692,-1.0692,-1.0692,-1.0692,-1.0692,-1.0692,-1.0692,-1.0692,-1.0692,-1.0692,-1.0692,-1.0692,-1.0692,-1.0692,-1.0692,-1.0692,-1.0692,-1.0692,-1.0692,-1.0692,-1.0692,-1.0692,-1.0692,-1.0692,-1.0692,-1.0692,-1.0692,-0.4349,-0.4742,-0.5209,-0.5624,-0.5462,-0.5253,-0.5454,0.0,0.0,0.0,0.0,0.0,0.0,0.0,0.0,0.0,0.0,0.0,0.0,0.0,0.0,0.0,0.0,0.0,0.0,0.0,0.0,0.0,0.0,0.0,0.0,-1.016,-1.0233,-1.0387,-1.0391,-1.0477,-1.0651,-1.068,-1.0692,-1.0692,-1.0692,-1.0692,-1.0692,-1.0692,-1.0692,-1.0692,0.0,0.0,-1.0692,-1.0692,-1.0692,-1.0692,-1.0692,-1.0692,-1.0692,-1.0692,-1.0692,-1.0692,-1.0907,-1.1122,-1.1232,-1.1232,-1.1232,-1.1232,-1.1232,-1.1232,-1.1232,-1.1017,-1.0798,-1.0692,-1.0692,-1.0692,-1.0692,-1.0692,-1.0692,-1.0692,-1.0692,-1.0692,-1.0692,-1.0692,-1.0692,-1.0692,-1.0692,-1.0692,-1.0692,-1.0692,-1.0692,-1.0692,-1.0692,-1.0692,-1.0692,-1.0692,-1.0692,-1.0692,-1.0692,-1.0692,-1.0692,-1.0692,-1.0692,-1.0692,-1.0692,-1.0692,-1.0692,-1.0692,-1.0692,-1.0692,-1.0692,-1.0692,-1.0692,-1.0692,-1.0692,-1.0692,-0.5316,-0.5366,-0.5015,-0.4735,-0.478,-0.4893,-0.4922,0.0,0.0,0.0,0.0,0.0,0.0,0.0,0.0,0.0,0.0,0.0,0.0,0.0,0.0,0.0,0.0,0.0,0.0,0.0,0.0,0.0,0.0,0.0,0.0,-1.0048,-1.0176,-1.0205,-1.0205,-1.029,-1.0473,-1.0619,-1.0692,-1.0692,-1.0692,-1.0692,-1.0692,-1.0692,-1.0692,-1.0692,0.0,-1.0692,-1.0692,-1.0692,-1.0692,-1.0692,-1.0692,-1.0692,-1.0692,-1.0692,-1.0692,-1.0798,-1.1769,-1.2738,-1.3599,-1.3599,-1.3599,-1.3599,-1.3599,-1.3599,-1.3383,-1.2417,-1.1446,-1.0692,-1.0692,-1.0692,-1.0692,-1.0692,-1.0692,-1.0692,-1.0692,-1.0692,-1.0692,-1.0692,-1.0692,-1.0692,-1.0692,-1.0692,-1.0692,-1.0692,-1.0692,-1.0692,-1.0692,-1.0692,-1.0692,-1.0692,-1.0692,-1.0692,-1.0692,-1.0692,-1.0692,-1.0692,-1.0692,-1.0692,-1.0692,-1.0692,-1.0692,-1.0692,-1.0692,-1.0692,-1.0692,-1.0692,-1.0692,-1.0692,-1.0692,-1.0692,-0.4525,-0.4655,-0.4697,-0.458,-0.4959,-0.5389,-0.5389,0.0,0.0,0.0,0.0,0.0,0.0,0.0,0.0,0.0,0.0,0.0,0.0,0.0,0.0,0.0,0.0,0.0,0.0,0.0,0.0,0.0,0.0,0.0,0.0,0.0,-0.9916,-1.001,-1.0014,-1.0103,-1.0286,-1.0363,-1.0501,-1.0692,-1.0692,-1.0692,-1.0692,-1.0692,-1.0692,-1.0692,0.0,-1.0692,-1.0692,-1.0692,-1.0692,-1.0692,-1.0692,-1.0692,-1.0802,-1.1341,-1.1987,-1.263,-1.3166,-1.3706,-1.4132,-1.4132,-1.4132,-1.4132,-1.4132,-1.4132,-1.4024,-1.3491,-1.2521,-1.1446,-1.0907,-1.0692,-1.0692,-1.0692,-1.0692,-1.0692,-1.0692,-1.0692,-1.0692,-1.0692,-1.0692,-1.0692,-1.0692,-1.0692,-1.0692,-1.0692,-1.0692,-1.0692,-1.0692,-1.0692,-1.0692,-1.0692,-1.0692,-1.0692,-1.0692,-1.0692,-1.0692,-1.0692,-1.0692,-1.0692,-1.0692,-1.0692,-1.0692,-1.0692,-1.0692,-1.0692,-1.0692,-1.0692,-1.0692,-1.0692,-1.0692,-1.0692,-0.3814,-0.4096,-0.449,-0.4849,0.0,-0.5795,-0.5921,0.0,0.0,0.0,0.0,0.0,0.0,0.0,0.0,0.0,0.0,0.0,0.0,0.0,0.0,0.0,0.0,0.0,0.0,0.0,0.0,0.0,0.0,0.0,0.0,0.0,-0.9689,-0.9819,-0.9823,-0.9912,-1.0095,-1.0099,-1.0253,-1.0566,-1.0566,-1.059,-1.0631,-1.0954,-1.1084,-1.1122,-1.1337,-1.1446,-1.1446,-1.1446,-1.1446,-1.1446,-1.1446,-1.1446,-1.1551,-1.2526,-1.3491,-1.4561,-1.4561,-1.4674,-1.4888,-1.4888,-1.4888,-1.4888,-1.4888,-1.4888,-1.4888,-1.4567,-1.3922,-1.2955,-1.1769,-1.1446,-1.1446,-1.1446,-1.1341,-1.1122,-1.1122,-1.0907,-1.0692,-1.0692,-1.0692,-1.0692,-1.0692,-1.0692,-1.0692,-1.0692,-1.0692,-1.0692,-1.0692,-1.0692,-1.0692,-1.0692,-1.0692,-1.0692,-1.0692,-1.0692,-1.0692,-1.0692,-1.0692,-1.0692,-1.0692,-1.0692,-1.0692,-1.0692,-1.0692,-1.0692,-1.0692,-1.0692,-1.0692,-1.0692,-1.0692,-1.0692,-0.45,-0.4594,-0.4642,-0.5345,-0.5453,0.0,-0.5948,-0.5939,0.0,0.0,0.0,0.0,0.0,0.0,0.0,0.0,0.0,0.0,0.0,0.0,0.0,0.0,0.0,0.0,0.0,0.0,0.0,0.0,0.0,0.0,0.0,0.0,0.0,-0.9644,-0.9648,-0.973,-0.9904,-0.9904,-1.0006,-1.0201,-1.0201,-1.029,-1.0452,-1.1616,-1.2135,-1.2309,-1.3383,-1.3809,-1.3809,-1.3809,-1.3809,-1.3809,-1.3809,-1.3809,-1.3922,-1.3917,-1.4781,-1.5755,-1.5755,-1.6505,-1.7364,-1.7364,-1.7364,-1.7364,-1.7364,-1.7364,-1.7153,-1.6074,-1.5749,-1.5322,-1.4132,-1.3809,-1.3809,-1.3809,-1.3058,-1.2309,-1.2309,-1.1446,-1.0692,-1.0692,-1.0692,-1.0692,-1.0692,-1.0692,-1.0692,-1.0692,-1.0692,-1.0692,-1.0692,-1.0692,-1.0692,-1.0692,-1.0692,-1.0692,-1.0692,-1.0692,-1.0692,-1.0692,-1.0692,-1.0692,-1.0692,-1.0692,-1.0692,-1.0692,-1.0692,-1.0692,-1.0692,-1.0692,-1.0692,-1.0692,-1.0692,-1.0692,-0.4169,-0.4237,-0.4375,-0.5259,-0.5817,0.0,0.0,0.0,0.0,0.0,0.0,0.0,0.0,0.0,0.0,0.0,0.0,0.0,0.0,0.0,0.0,0.0,0.0,0.0,0.0,0.0,0.0,0.0,0.0,0.0,0.0,0.0,0.0,-1.0592,-1.1179,-1.1217,-1.0699,-1.0699,-1.0445,-0.9831,-1.0054,-1.0197,-1.0266,-1.1408,-1.1968,-1.2039,-1.3179,-1.3597,-1.3607,-1.3752,-1.3811,-1.3827,-1.4078,-1.4567,-1.5215,-1.5215,-1.5968,-1.6935,-1.6935,-1.7259,-1.7582,-1.7582,-1.7582,-1.7582,-1.7582,-1.7582,-1.7477,-1.7041,-1.6935,-1.6505,-1.4567,-1.4132,-1.4132,-1.4132,-1.3814,-1.3491,-1.3491,-1.3166,-1.263,-1.1878,-1.1769,-1.1555,-1.0798,-1.0692,-1.0692,-1.0692,-1.0692,-1.0692,-1.0692,-1.0692,-1.0692,-1.0692,-1.0692,-1.0692,-1.0692,-1.0692,-1.0692,-1.0692,-1.0692,-1.0692,-1.0692,-1.0692,-1.0692,-1.0692,-1.0692,-1.0692,-1.0692,-1.0692,-1.0692,-1.0692,-1.0692,-1.0692,-0.3881,-0.4085,-0.4424,0.0,0.0,0.0,0.0,0.0,0.0,0.0,0.0,0.0,0.0,0.0,0.0,0.0,0.0,0.0,0.0,0.0,0.0,0.0,0.0,0.0,0.0,0.0,0.0,0.0,0.0,0.0,0.0,0.0,0.0,-1.117,-1.2145,-1.2339,-1.1658,-1.1658,-1.1272,-1.06,-1.0874,-1.0835,-1.0587,-1.1709,-1.2357,-1.2833,-1.3948,-1.4355,-1.4372,-1.4539,-1.4614,-1.4625,-1.4798,-1.5398,-1.6149,-1.6237,-1.6806,-1.7462,-1.7549,-1.7582,-1.7582,-1.7582,-1.7582,-1.7582,-1.7582,-1.7582,-1.7582,-1.7582,-1.7582,-1.7259,-1.5642,-1.5209,-1.5209,-1.5209,-1.4888,-1.4674,-1.4674,-1.4137,-1.3383,-1.2521,-1.2096,-1.1664,-1.0798,-1.0692,-1.0692,-1.0692,-1.0692,-1.0692,-1.0692,-1.0692,-1.0692,-1.0692,-1.0692,-1.0692,-1.0692,-1.0692,-1.0692,-1.0692,-1.0692,-1.0692,-1.0692,-1.0692,-1.0692,-1.0692,-1.0692,-1.0692,-1.0692,-1.0692,-1.0692,-1.0692,-1.0692,-1.0692,-0.38,-0.426,0.0,0.0,0.0,0.0,0.0,0.0,0.0,0.0,0.0,0.0,0.0,0.0,0.0,0.0,0.0,0.0,0.0,0.0,0.0,0.0,0.0,0.0,0.0,0.0,0.0,0.0,0.0,0.0,0.0,0.0,-1.117,-1.117,-1.2242,-1.2727,-1.2732,-1.2732,-1.2732,-1.2727,-1.2727,-1.2263,-1.1487,-1.2683,-1.3908,-1.5065,-1.6186,-1.67,-1.67,-1.67,-1.67,-1.6707,-1.6707,-1.6707,-1.674,-1.7034,-1.725,-1.7188,-1.7475,-1.7575,-1.7575,-1.7582,-1.7582,-1.7582,-1.7582,-1.7582,-1.7582,-1.7582,-1.7582,-1.7582,-1.7582,-1.7582,-1.7582,-1.7582,-1.6717,-1.5861,-1.5861,-1.403,-1.2413,-1.2417,-1.1446,-1.0692,-1.0692,-1.0692,-1.0692,-1.0692,-1.0692,-1.0692,-1.0692,-1.0692,-1.0692,-1.0692,-1.0692,-1.0692,-1.0692,-1.0692,-1.0692,-1.0692,-1.0692,-1.0692,-1.0692,-1.0692,-1.0692,-1.0692,-1.0692,-1.0692,-1.0692,-1.0692,-1.0692,-1.0692,-1.0692,-1.0692,-0.4696,0.0,0.0,0.0,0.0,0.0,0.0,0.0,0.0,0.0,0.0,0.0,0.0,0.0,0.0,0.0,0.0,0.0,0.0,0.0,0.0,0.0,0.0,0.0,0.0,0.0,0.0,0.0,0.0,0.0,0.0,-1.1272,-1.2242,-1.2242,-1.3986,-1.4573,-1.3806,-1.3806,-1.3414,-1.2727,-1.2727,-1.257,-1.2345,-1.343,-1.4158,-1.4527,-1.5603,-1.6086,-1.6106,-1.6313,-1.652,-1.6707,-1.6707,-1.6707,-1.6714,-1.6807,-1.684,-1.6847,-1.6934,-1.6967,-1.7001,-1.7208,-1.7281,-1.7315,-1.7522,-1.7582,-1.7582,-1.7582,-1.7582,-1.7582,-1.7582,-1.7582,-1.7582,-1.7582,-1.7364,-1.6829,-1.6074,-1.5322,-1.4352,-1.2738,-1.2091,-1.166,-1.0798,-1.0692,-1.0692,-1.0692,-1.0692,-1.0692,-1.0692,-1.0692,-1.0692,-1.0692,-1.0692,-1.0692,-1.0692,-1.0692,-1.0692,-1.0692,-1.0692,-1.0692,-1.0692,-1.0692,-1.0692,-1.0692,-1.0692,-1.0692,-1.0692,-1.0692,-1.0692,-1.0692,-1.0692,-1.0692,-0.531,0.0,0.0,0.0,0.0,0.0,0.0,0.0,0.0,0.0,0.0,0.0,0.0,0.0,0.0,0.0,0.0,0.0,0.0,0.0,0.0,0.0,0.0,0.0,0.0,0.0,0.0,0.0,0.0,0.0,0.0,-1.1863,-1.2926,-1.3318,-1.4956,-1.554,-1.4873,-1.4873,-1.4573,-1.389,-1.389,-1.389,-1.3986,-1.4196,-1.449,-1.4968,-1.554,-1.5832,-1.5845,-1.6019,-1.6199,-1.6359,-1.6359,-1.6359,-1.6373,-1.6493,-1.6533,-1.6553,-1.6667,-1.6707,-1.6734,-1.6914,-1.6974,-1.7007,-1.7181,-1.7315,-1.7388,-1.7268,-1.7321,-1.7408,-1.7408,-1.7408,-1.7442,-1.7555,-1.7259,-1.6717,-1.6074,-1.5215,-1.4137,-1.263,-1.1987,-1.1555,-1.0802,-1.0692,-1.0692,-1.0692,-1.0692,-1.0692,-1.0692,-1.0692,-1.0692,-1.0692,-1.0692,-1.0692,-1.0692,-1.0692,-1.0692,-1.0692,-1.0692,-1.0692,-1.0692,-1.0692,-1.0692,-1.0692,-1.0692,-1.0692,-1.0692,-1.0692,-1.0692,-1.0692,-1.0692,-1.0692,0.0,0.0,0.0,0.0,0.0,0.0,0.0,0.0,0.0,0.0,0.0,0.0,0.0,0.0,0.0,0.0,0.0,0.0,0.0,0.0,0.0,0.0,0.0,0.0,0.0,0.0,0.0,0.0,0.0,0.0,0.0,-1.2452,-1.3318,-1.4298,-1.5255,-1.5832,-1.5832,-1.5832,-1.5832,-1.5832,-1.5832,-1.5832,-1.5737,-1.4873,-1.4968,-1.5832,-1.5832,-1.5832,-1.5832,-1.5832,-1.5832,-1.5832,-1.5832,-1.5832,-1.5865,-1.6132,-1.6233,-1.6273,-1.6533,-1.6627,-1.6627,-1.666,-1.6667,-1.6667,-1.67,-1.6894,-1.7054,-1.678,-1.6901,-1.7108,-1.7108,-1.7108,-1.7174,-1.7442,-1.6791,-1.6074,-1.5968,-1.4245,-1.2738,-1.263,-1.1664,-1.0798,-1.0798,-1.0802,-1.0692,-1.0692,-1.0692,-1.0692,-1.0692,-1.0692,-1.0692,-1.0692,-1.0692,-1.0692,-1.0692,-1.0692,-1.0692,-1.0692,-1.0692,-1.0692,-1.0692,-1.0692,-1.0692,-1.0692,-1.0692,-1.0692,-1.0692,-1.0692,-1.0692,-1.0692,-1.0692,-1.0692,0.0,0.0,0.0,0.0,0.0,0.0,0.0,0.0,0.0,0.0,0.0,0.0,0.0,0.0,0.0,0.0,0.0,0.0,0.0,0.0,0.0,0.0,0.0,0.0,0.0,0.0,0.0,0.0,0.0,0.0,-1.2446,-1.342,-1.41,-1.4298,-1.5255,-1.5832,-1.5832,-1.5832,-1.5832,0.0,-1.5832,-1.5832,-1.5825,-1.554,-1.5635,-1.5832,-1.5832,-1.5832,-1.5832,-1.5832,-1.5832,-1.5832,-1.5832,-1.5832,-1.5838,-1.5899,-1.5925,-1.5932,-1.5999,-1.6019,-1.6059,-1.6286,-1.6366,-1.6413,-1.664,-1.6747,-1.6787,-1.6727,-1.6747,-1.68,-1.68,-1.68,-1.6814,-1.6881,-1.7034,-1.7041,-1.6074,-1.5535,-1.4888,-1.3922,-1.2847,-1.1987,-1.1987,-1.1341,-1.0692,-1.0692,-1.0692,-1.0692,-1.0692,-1.0692,-1.0692,-1.0692,-1.0692,-1.0692,-1.0692,-1.0692,-1.0692,-1.0692,-1.0692,-1.0692,-1.0692,-1.0692,-1.0692,-1.0692,-1.0692,-1.0692,-1.0692,-1.0692,-1.0692,-1.0692,-1.0692,-1.0692,0.0,0.0,0.0,0.0,0.0,0.0,0.0,0.0,0.0,0.0,0.0,0.0,0.0,0.0,0.0,0.0,0.0,0.0,0.0,0.0,0.0,0.0,0.0,0.0,0.0,0.0,0.0,0.0,0.0,-1.2926,-1.3414,-1.4004,-1.449,-1.4968,-1.554,-1.5832,-1.5832,-1.5832,-1.5832,-1.5832,-1.5832,-1.5832,-1.5832,-1.5832,-1.5832,-1.5832,-1.5832,-1.5832,-1.5832,-1.5832,-1.5832,-1.5832,-1.5832,-1.5832,-1.5832,-1.5832,-1.5832,-1.5832,-1.5832,-1.5832,-1.5852,-1.6012,-1.6059,-1.6086,-1.6239,-1.6386,-1.6473,-1.6326,-1.6386,-1.65,-1.65,-1.65,-1.6533,-1.6673,-1.6625,-1.6409,-1.5773,-1.5341,-1.4888,-1.4245,-1.3599,-1.3058,-1.2521,-1.1446,-1.0911,-1.1446,-1.1017,-1.0692,-1.0692,-1.0692,-1.0692,-1.0692,-1.0692,-1.0692,-1.0692,-1.0692,-1.0692,-1.0692,-1.0692,-1.0692,-1.0692,-1.0692,-1.0692,-1.0692,-1.0692,-1.0692,-1.0692,-1.0692,-1.0692,-1.0692,-1.0692,-1.0692,0.0,0.0,0.0,0.0,0.0,0.0,0.0,0.0,0.0,0.0,0.0,0.0,0.0,0.0,0.0,0.0,0.0,0.0,0.0,0.0,0.0,0.0,0.0,0.0,0.0,0.0,0.0,0.0,0.0,-1.3561,-1.4484,-1.4586,-1.4968,-1.5737,-1.5832,-1.5832,-1.5832,-1.5832,-1.5832,-1.5832,-1.5832,-1.5832,-1.5832,-1.5832,-1.5832,-1.5832,-1.5832,-1.5832,-1.5832,-1.5832,-1.5832,-1.5832,-1.5832,-1.5832,-1.5832,-1.5832,-1.5832,-1.5832,-1.5832,-1.5832,-1.5832,-1.5832,-1.5832,-1.5832,-1.5832,-1.5999,-1.6146,-1.5899,-1.6005,-1.6192,-1.6192,-1.6192,-1.6259,-1.65,-1.6055,-1.5548,-1.5591,-1.5071,-1.4607,-1.4393,-1.3997,-1.3491,-1.2309,-1.1341,-1.1017,-1.1987,-1.1341,-1.0692,-1.0692,-1.0692,-1.0692,-1.0692,-1.0692,-1.0692,-1.0692,-1.0692,-1.0692,-1.0692,-1.0692,-1.0692,-1.0692,-1.0692,-1.0692,-1.0692,-1.0692,-1.0692,-1.0692,-1.0692,-1.0692,-1.0692,-1.0692,-1.0692,0.0,0.0,0.0,0.0,0.0,0.0,0.0,0.0,0.0,0.0,0.0,0.0,0.0,0.0,0.0,0.0,0.0,0.0,0.0,0.0,0.0,0.0,0.0,0.0,0.0,0.0,0.0,0.0,-1.5067,-1.5184,-1.5622,-1.5635,-1.5642,-1.5832,-1.5832,-1.5832,-1.5832,-1.5832,-1.5832,-1.5832,-1.5832,-1.5832,-1.5832,-1.5832,-1.5832,-1.5832,-1.5832,-1.5832,-1.5832,-1.5832,-1.5832,-1.5832,-1.5832,-1.5832,-1.5832,-1.5832,-1.5832,-1.5832,-1.5832,-1.5832,-1.5832,-1.5832,-1.5832,-1.5832,-1.5832,-1.5858,-1.5879,-1.5838,-1.5858,-1.5885,-1.5885,-1.5885,-1.5899,-1.5932,-1.6075,-1.6256,-1.6506,-1.6682,-1.6465,-1.5407,-1.3784,-1.2309,-1.1126,-1.0802,-1.0802,-1.0907,-1.0802,-1.0692,-1.0692,-1.0692,-1.0692,-1.0692,-1.0692,-1.0692,-1.0692,-1.0692,-1.0692,-1.0692,-1.0692,-1.0692,-1.0692,-1.0692,-1.0692,-1.0692,-1.0692,-1.0692,-1.0692,-1.0692,-1.0692,-1.0692,-1.0692,-1.0692,0.0,0.0,0.0,0.0,0.0,0.0,0.0,0.0,0.0,0.0,0.0,0.0,0.0,0.0,0.0,0.0,0.0,0.0,0.0,0.0,0.0,0.0,0.0,0.0,0.0,0.0,0.0,0.0,-1.515,-1.5211,-1.5337,-1.5344,-1.5344,-1.5344,-1.5504,-1.5585,-1.5585,-1.5745,-1.5832,-1.5832,-1.5832,-1.5832,-1.5832,-1.5832,-1.5832,-1.5832,-1.5832,-1.5832,-1.5832,-1.5832,-1.5832,-1.5832,-1.5832,-1.5832,-1.5832,-1.5832,-1.5832,-1.5832,-1.5832,-1.5832,-1.5832,-1.5832,-1.5832,-1.5832,-1.5832,-1.5832,-1.5832,-1.5832,-1.5832,-1.5832,-1.5832,-1.5832,-1.5832,-1.5832,-1.5925,-1.6059,-1.6186,-1.6175,-1.5813,-1.4711,-1.335,-1.2393,-1.2611,-1.1555,-1.0907,-1.1555,-1.1122,-1.0692,-1.0692,-1.0692,-1.0692,-1.0692,-1.0692,-1.0692,-1.0692,-1.0692,-1.0692,-1.0692,-1.0692,-1.0692,-1.0692,-1.0692,-1.0692,-1.0692,-1.0692,-1.0692,-1.0692,-1.0692,-1.0692,-1.0692,-1.0692,-1.0692,0.0,0.0,0.0,0.0,0.0,0.0,0.0,0.0,0.0,0.0,0.0,0.0,0.0,0.0,0.0,0.0,0.0,0.0,0.0,0.0,0.0,0.0,0.0,0.0,0.0,0.0,0.0,0.0,-1.485,-1.4883,-1.4963,-1.4963,-1.4963,-1.4963,-1.517,-1.5291,-1.5291,-1.5571,-1.5718,-1.5718,-1.5792,-1.5832,-1.5832,-1.5832,-1.5832,-1.5832,-1.5832,-1.5832,-1.5832,-1.5832,-1.5832,-1.5832,-1.5832,-1.5832,-1.5832,-1.5832,-1.5832,-1.5832,-1.5832,-1.5832,-1.5832,-1.5832,-1.5832,-1.5832,-1.5832,-1.5832,-1.5832,-1.5832,-1.5832,-1.5832,-1.5832,-1.5832,-1.5832,-1.5832,-1.5832,-1.5852,-1.5925,-1.5496,-1.4755,-1.3975,-1.2921,-1.2375,-1.3061,-1.1738,-1.1017,-1.1878,-1.1232,-1.0692,-1.0692,-1.0692,-1.0692,-1.0692,-1.0692,-1.0692,-1.0692,-1.0692,-1.0692,-1.0692,-1.0692,-1.0692,-1.0692,-1.0692,-1.0692,-1.0692,-1.0692,-1.0692,-1.0692,-1.0692,-1.0692,-1.0692,-1.0692,-1.0692,0.0,0.0,0.0,0.0,0.0,0.0,0.0,0.0,0.0,0.0,0.0,0.0,0.0,0.0,0.0,0.0,0.0,0.0,0.0,0.0,0.0,0.0,0.0,0.0,0.0,0.0,0.0,0.0,-1.4543,-1.4669,-1.495,-1.4963,-1.4963,-1.4963,-1.4977,-1.4983,-1.4983,-1.5277,-1.5418,-1.5424,-1.5698,-1.5832,-1.5832,-1.5832,-1.5832,-1.5832,-1.5832,-1.5832,-1.5832,-1.5832,-1.5832,-1.5832,-1.5832,-1.5832,-1.5832,-1.5832,-1.5832,-1.5832,-1.5832,-1.5832,-1.5832,-1.5832,-1.5832,-1.5832,-1.5832,-1.5832,-1.5832,-1.5832,-1.5832,-1.5832,-1.5832,-1.5832,-1.5832,-1.5832,-1.5832,-1.5905,-1.6186,-1.5379,-1.4377,-1.362,-1.2705,-1.1695,-1.0761,-1.0691,-1.0692,-1.0802,-1.0692,-1.0692,-1.0692,-1.0692,-1.0692,-1.0692,-1.0692,-1.0692,-1.0692,-1.0692,-1.0692,-1.0692,-1.0692,-1.0692,-1.0692,-1.0692,-1.0692,-1.0692,-1.0692,-1.0692,-1.0692,-1.0692,-1.0692,-1.0692,-1.0692,-1.0692,0.0,0.0,0.0,0.0,0.0,0.0,0.0,0.0,0.0,0.0,0.0,0.0,0.0,0.0,0.0,0.0,0.0,0.0,0.0,0.0,0.0,0.0,0.0,0.0,0.0,0.0,0.0,0.0,0.0,-1.4289,-1.4396,-1.4402,-1.4402,-1.4402,-1.4583,-1.477,-1.4963,-1.507,-1.5117,-1.5124,-1.5418,-1.5551,-1.5558,-1.5745,-1.5832,-1.5832,-1.5832,-1.5832,-1.5832,-1.5832,-1.5832,-1.5832,-1.5832,-1.5832,-1.5832,-1.5832,-1.5832,-1.5832,-1.5832,-1.5832,-1.5832,-1.5832,-1.5832,-1.5832,-1.5832,-1.5832,-1.5832,-1.5832,-1.5832,-1.5832,-1.5832,-1.5832,-1.5832,-1.5832,-1.5832,-1.5858,-1.5965,-1.4618,-1.3319,-1.3173,-1.2882,-1.2577,-1.2304,-1.2504,-1.2641,-1.2641,-1.2759,-1.2847,-1.2847,-1.2847,-1.2847,-1.2847,-1.2847,-1.2847,-1.2847,-1.22,-1.1769,-1.1769,-1.1769,-1.1446,-1.0692,-1.1446,-1.1446,-1.0692,-1.0692,-1.0692,-1.0692,-1.0692,-1.0692,-1.0692,-1.0692,-1.0692,0.0,0.0,0.0,0.0,0.0,0.0,0.0,0.0,0.0,0.0,0.0,0.0,0.0,0.0,0.0,0.0,0.0,0.0,0.0,0.0,0.0,0.0,0.0,0.0,0.0,0.0,0.0,0.0,0.0,0.0,-1.4088,-1.4088,-1.4088,-1.4088,-1.4275,-1.4469,-1.4669,-1.4763,-1.4816,-1.4823,-1.511,-1.5304,-1.5404,-1.5591,-1.5732,-1.5832,-1.5832,-1.5832,-1.5832,-1.5832,-1.5832,-1.5832,-1.5832,-1.5832,-1.5832,-1.5832,-1.5832,-1.5832,-1.5832,-1.5832,-1.5832,-1.5832,-1.5832,-1.5832,-1.5832,-1.5832,-1.5832,-1.5832,-1.5832,-1.5825,-1.5927,-1.6021,-1.6116,-1.6116,-1.6116,-1.6015,-1.5927,-1.4765,-1.3653,-1.3439,-1.3534,-1.3541,-1.3297,-1.3415,-1.3696,-1.3672,-1.3811,-1.4046,-1.4126,-1.4132,-1.4132,-1.4132,-1.4132,-1.4132,-1.4132,-1.3063,-1.2417,-1.2417,-1.2096,-1.1664,-1.1341,-1.1664,-1.1664,-1.1232,-1.0907,-1.0692,-1.0692,-1.0692,-1.0692,-1.0692,-1.0692,-1.0692,0.0,0.0,0.0,0.0,0.0,0.0,0.0,0.0,0.0,0.0,0.0,0.0,0.0,0.0,0.0,0.0,0.0,0.0,0.0,0.0,0.0,0.0,0.0,0.0,0.0,0.0,0.0,0.0,-1.4062,-1.4068,-1.4075,-1.4082,-1.4088,-1.4088,-1.4088,-1.4088,-1.4088,-1.4362,-1.4502,-1.4509,-1.481,-1.5097,-1.5371,-1.5378,-1.5538,-1.5812,-1.5812,-1.5818,-1.5832,-1.5832,-1.5832,-1.5832,-1.5832,-1.5832,-1.5832,-1.5832,-1.5832,-1.5832,-1.5832,-1.5832,-1.5832,-1.5832,-1.5832,-1.5832,-1.5832,-1.5832,-1.5832,-1.5832,-1.5832,-1.5832,-1.6123,-1.6407,-1.6588,-1.6588,-1.6588,-1.6494,-1.6218,-1.6028,-1.554,-1.4586,-1.4692,-1.4568,-1.3281,-1.3472,-1.3707,-1.3832,-1.3776,-1.3868,-1.4201,-1.4234,-1.4239,-1.4239,-1.4239,-1.4239,-1.4239,-1.3166,-1.2521,-1.2413,-1.1446,-1.1232,-1.2309,-1.1341,-1.1232,-1.2309,-1.1232,-1.0692,-1.0692,-1.0692,-1.0692,-1.0692,-1.0692,-1.0692,-0.4685,0.0,0.0,0.0,0.0,0.0,0.0,0.0,0.0,0.0,0.0,0.0,0.0,0.0,0.0,0.0,0.0,0.0,0.0,0.0,0.0,0.0,0.0,0.0,0.0,0.0,0.0,0.0,-1.3454,-1.3547,-1.3754,-1.3968,-1.4088,-1.4088,-1.4088,-1.4088,-1.4088,-1.4168,-1.4208,-1.4208,-1.4502,-1.4683,-1.477,-1.4983,-1.5244,-1.5518,-1.5518,-1.5631,-1.5832,-1.5832,-1.5832,-1.5832,-1.5832,-1.5832,-1.5832,-1.5832,-1.5832,-1.5832,-1.5832,-1.5832,-1.5832,-1.5832,-1.5832,-1.5832,-1.5832,-1.5832,-1.5832,-1.5832,-1.5832,-1.5832,-1.5927,-1.5927,-1.6021,-1.6021,-1.6211,-1.6312,-1.6224,-1.6312,-1.6211,-1.5737,-1.5892,-1.6034,-1.5645,-1.5881,-1.6098,-1.6071,-1.6246,-1.6433,-1.6516,-1.6596,-1.6611,-1.6611,-1.6611,-1.6611,-1.6611,-1.5642,-1.4567,-1.3701,-1.3383,-1.2521,-1.1232,-1.1664,-1.1664,-1.1232,-1.0907,-1.0692,-1.0692,-1.0692,-1.0692,-1.0692,-1.0692,-1.0692,0.0,0.0,0.0,0.0,0.0,0.0,0.0,0.0,0.0,0.0,0.0,0.0,0.0,0.0,0.0,0.0,0.0,0.0,0.0,0.0,0.0,0.0,0.0,0.0,0.0,-1.3133,-1.3213,-1.3213,-1.3213,-1.328,-1.3454,-1.3627,-1.3774,-1.3901,-1.3901,-1.3961,-1.4088,-1.4088,-1.4088,-1.4088,-1.4262,-1.4402,-1.4529,-1.4703,-1.4937,-1.5224,-1.5344,-1.5491,-1.5658,-1.5778,-1.5832,-1.5832,-1.5832,-1.5832,-1.5832,-1.5832,-1.5832,-1.5832,-1.5832,-1.5832,-1.5832,-1.5832,-1.5832,-1.5832,-1.5832,-1.5832,-1.5832,-1.5832,-1.5927,-1.5933,-1.5933,-1.6021,-1.6109,-1.6109,-1.6211,-1.6312,-1.6224,-1.64,-1.6588,-1.6407,-1.6595,-1.6683,-1.6588,-1.6831,-1.6992,-1.7022,-1.7055,-1.7237,-1.7367,-1.7319,-1.7215,-1.7215,-1.7328,-1.7402,-1.7402,-1.6007,-1.5102,-1.4888,-1.3403,-1.2397,-1.2079,-1.1679,-1.142,-1.1211,-1.0758,-1.0619,-1.0692,-1.0692,-1.0692,-1.0692,-1.0692,-1.0692,-0.6132,-0.6437,0.0,0.0,0.0,0.0,-0.7791,-0.7887,0.0,0.0,0.0,0.0,0.0,0.0,0.0,0.0,0.0,0.0,0.0,0.0,0.0,0.0,0.0,0.0,0.0,-1.2933,-1.3106,-1.3106,-1.314,-1.316,-1.316,-1.3193,-1.3327,-1.3587,-1.3594,-1.3734,-1.4035,-1.4041,-1.4055,-1.4088,-1.4088,-1.4222,-1.4476,-1.4476,-1.4636,-1.493,-1.5184,-1.5337,-1.5418,-1.5671,-1.5798,-1.5832,-1.5832,-1.5832,-1.5832,-1.5832,-1.5832,-1.5832,-1.5832,-1.5832,-1.5832,-1.5832,-1.5832,-1.5832,-1.5832,-1.5832,-1.5832,-1.5832,-1.5933,-1.613,-1.613,-1.6305,-1.6487,-1.6487,-1.6494,-1.6494,-1.6218,-1.64,-1.6588,-1.6588,-1.6784,-1.6878,-1.6683,-1.6784,-1.6978,-1.7049,-1.6836,-1.6869,-1.7138,-1.6893,-1.6707,-1.6707,-1.6941,-1.7101,-1.6998,-1.5317,-1.4596,-1.5453,-1.2394,-1.1456,-1.3446,-1.1385,-1.0677,-1.17,-1.0864,-1.0509,-1.0664,-1.0684,-1.0692,-1.0692,-1.0692,-1.0692,-0.6392,-0.6734,-0.7092,-0.6594,0.0,0.0,0.0,-0.7032,0.0,0.0,0.0,0.0,0.0,0.0,0.0,0.0,0.0,0.0,0.0,0.0,0.0,0.0,0.0,0.0,-1.2116,-1.2305,-1.2478,-1.2478,-1.2705,-1.2916,-1.2916,-1.3073,-1.3233,-1.3293,-1.3293,-1.3434,-1.3728,-1.3728,-1.3848,-1.4088,-1.4088,-1.4115,-1.4168,-1.4168,-1.4329,-1.4609,-1.4663,-1.4957,-1.5398,-1.5458,-1.5618,-1.5832,-1.5832,-1.5832,-1.5832,-1.5832,-1.5832,-1.5832,-1.5832,-1.5832,-1.5832,-1.5832,-1.5832,-1.5832,-1.5832,-1.5832,-1.5832,-1.5832,-1.5832,-1.5927,-1.5927,-1.5927,-1.592,-1.592,-1.6116,-1.6218,-1.6224,-1.64,-1.6588,-1.6588,-1.6683,-1.6683,-1.6588,-1.6784,-1.7001,-1.6964,-1.7191,-1.7272,-1.7329,-1.7161,-1.7021,-1.7021,-1.6861,-1.6485,-1.5675,-1.5209,-1.4304,-1.2749,-1.1987,-1.1453,-1.0937,-1.0489,-1.0264,-1.0573,-1.0445,-1.0452,-1.0485,-1.0623,-1.0692,-1.0692,-1.0692,-1.0692,0.0,0.0,-0.7455,-0.708,0.0,0.0,0.0,0.0,0.0,0.0,0.0,0.0,0.0,0.0,0.0,0.0,0.0,0.0,0.0,0.0,0.0,0.0,0.0,0.0,-1.1637,-1.1784,-1.1924,-1.2078,-1.2225,-1.2446,-1.2518,-1.2672,-1.2826,-1.2973,-1.2979,-1.312,-1.3427,-1.3492,-1.3714,-1.3868,-1.4015,-1.4088,-1.4088,-1.4088,-1.4168,-1.4309,-1.4456,-1.4689,-1.497,-1.5124,-1.5351,-1.5625,-1.5772,-1.5832,-1.5832,-1.5832,-1.5832,-1.5832,-1.5832,-1.5832,-1.5832,-1.5832,-1.5832,-1.5832,-1.5832,-1.5832,-1.5832,-1.5832,-1.5832,-1.5832,-1.5832,-1.5832,-1.5832,-1.5832,-1.5927,-1.6028,-1.6028,-1.6116,-1.6204,-1.6204,-1.6204,-1.6305,-1.6588,-1.6683,-1.6784,-1.6784,-1.6327,-1.6032,-1.6032,-1.5881,-1.568,-1.568,-1.6203,-1.6289,-1.5793,-1.5306,-1.4874,-1.4355,-1.3127,-1.2258,-1.1749,-1.1548,-1.124,-1.0835,-1.0422,-1.0249,-1.0436,-1.0521,-1.0607,-1.0692,-1.0692,-1.0692,0.0,0.0,0.0,0.0,0.0,-0.7967,0.0,0.0,0.0,-0.8178,0.0,0.0,0.0,0.0,0.0,0.0,0.0,0.0,0.0,0.0,0.0,0.0,0.0,0.0,0.0,-1.1263,-1.1403,-1.1757,-1.1683,-1.179,-1.2198,-1.2218,-1.2358,-1.2728,-1.2735,-1.2806,-1.312,-1.3353,-1.3527,-1.3566,-1.3888,-1.4035,-1.4088,-1.4088,-1.4088,-1.4102,-1.4335,-1.4469,-1.4536,-1.4776,-1.505,-1.5344,-1.5631,-1.5778,-1.5832,-1.5832,-1.5832,-1.5832,-1.5832,-1.5832,-1.5832,-1.5832,-1.5832,-1.5927,-1.5927,-1.5927,-1.5927,-1.5927,-1.5832,-1.5832,-1.5832,-1.5832,-1.5832,-1.5832,-1.5832,-1.5832,-1.5832,-1.5832,-1.5832,-1.5832,-1.5832,-1.5927,-1.64,-1.6494,-1.6494,-1.6494,-1.5717,-1.5045,-1.5045,-1.4867,-1.4682,-1.4682,-1.5564,-1.6089,-1.5894,-1.5301,-1.512,-1.5924,-1.4027,-1.3023,-1.3116,-1.2634,-1.1938,-1.1029,-1.0268,-1.005,-1.0383,-1.042,-1.0521,-1.0692,-1.0692,-1.0692,0.0,0.0,0.0,0.0,-0.8119,0.0,0.0,0.0,-0.7989,-0.7808,0.0,0.0,0.0,0.0,0.0,0.0,0.0,0.0,0.0,0.0,0.0,0.0,0.0,0.0,0.0,-1.0719,-1.0882,-1.1436,-1.0995,-1.1128,-1.1877,-1.1917,-1.2051,-1.2345,-1.2351,-1.2498,-1.2876,-1.2909,-1.3113,-1.3559,-1.3674,-1.3834,-1.4088,-1.4088,-1.4088,-1.4088,-1.4122,-1.4282,-1.4522,-1.4556,-1.4743,-1.5044,-1.5331,-1.5605,-1.5832,-1.5832,-1.5832,-1.5832,-1.5832,-1.5832,-1.5832,-1.5832,-1.5927,-1.6218,-1.64,-1.6312,-1.6123,-1.6123,-1.6021,-1.5832,-1.5832,-1.5832,-1.5832,-1.5832,-1.5832,-1.5832,-1.5832,-1.5832,-1.5832,-1.5832,-1.5832,-1.5825,-1.5927,-1.6123,-1.6224,-1.6224,-1.6305,-1.6393,-1.6393,-1.6116,-1.5933,-1.5933,-1.5865,-1.5497,-1.4629,-1.4467,-1.399,-1.3202,-1.2883,-1.277,-1.277,-1.1868,-1.0895,-0.985,-0.9907,-0.9985,-1.0193,-1.0355,-1.0521,-1.0692,-1.0692,-1.0692,0.0,0.0,0.0,0.0,0.0,0.0,-0.7933,0.0,-0.7911,0.0,0.0,0.0,0.0,0.0,0.0,0.0,0.0,0.0,0.0,0.0,0.0,0.0,0.0,0.0,0.0,0.0,0.0,0.0,-1.0441,-1.0608,-1.1323,-1.1683,-1.1924,-1.2044,-1.2218,-1.2365,-1.2485,-1.2735,-1.2872,-1.3126,-1.3307,-1.3547,-1.3828,-1.3828,-1.3928,-1.4088,-1.4088,-1.4155,-1.4269,-1.4269,-1.4442,-1.4716,-1.4843,-1.517,-1.5598,-1.5556,-1.5622,-1.5832,-1.5832,-1.5832,-1.5832,-1.6008,-1.6116,-1.6224,-1.6312,-1.6319,-1.613,-1.6028,-1.5927,-1.5832,-1.5832,-1.5832,-1.5832,-1.5832,-1.5832,-1.5832,-1.5832,-1.5832,-1.5832,-1.5832,-1.5832,-1.5832,-1.5832,-1.5927,-1.5933,-1.5933,-1.554,-1.5248,-1.5248,-1.5159,-1.507,-1.507,-1.5547,-1.5635,-1.5255,-1.5159,-1.4962,-1.4567,-1.3992,-1.3896,-1.4472,-1.292,-1.215,-1.2355,-1.1264,-1.0711,-1.0915,-1.0494,-1.0367,-1.0546,-1.0643,-1.0692,-0.8199,0.0,0.0,0.0,0.0,0.0,0.0,0.0,0.0,0.0,0.0,0.0,0.0,0.0,0.0,0.0,0.0,0.0,0.0,0.0,0.0,0.0,0.0,0.0,0.0,0.0,0.0,0.0,0.0,-1.0,-1.0828,-1.1283,-1.1623,-1.1864,-1.2078,-1.2225,-1.2305,-1.2518,-1.2741,-1.2829,-1.2973,-1.324,-1.3527,-1.3607,-1.3761,-1.3968,-1.4048,-1.4088,-1.4088,-1.4088,-1.4208,-1.4402,-1.4402,-1.471,-1.5197,-1.5358,-1.5549,-1.5724,-1.5838,-1.5933,-1.5933,-1.6116,-1.6211,-1.6218,-1.6312,-1.6218,-1.613,-1.5927,-1.5832,-1.5832,-1.5832,-1.5832,-1.5832,-1.5832,-1.5832,-1.5832,-1.5832,-1.5832,-1.5832,-1.5832,-1.5832,-1.5832,-1.5832,-1.5832,-1.5832,-1.5832,-1.5159,-1.4682,-1.4682,-1.4682,-1.4682,-1.4682,-1.535,-1.5832,-1.5832,-1.5832,-1.5832,-1.5832,-1.5064,-1.4873,-1.535,-1.3896,-1.3414,-1.3806,-1.2339,-1.1668,-1.1788,-1.1294,-1.119,-1.1278,-1.0933,-1.0692,0.0,0.0,0.0,-0.7905,0.0,0.0,0.0,0.0,-0.8527,0.0,0.0,0.0,0.0,0.0,-0.8376,-0.7182,0.0,0.0,0.0,0.0,0.0,0.0,0.0,0.0,0.0,0.0,0.0,0.0,0.0,0.0,-1.0564,-1.0658,-1.1061,-1.1844,-1.1877,-1.2017,-1.2298,-1.2311,-1.2458,-1.2822,-1.2835,-1.2926,-1.3233,-1.3514,-1.3647,-1.3592,-1.3961,-1.4088,-1.4088,-1.4088,-1.4095,-1.4102,-1.4102,-1.4282,-1.4616,-1.5197,-1.5384,-1.5507,-1.6042,-1.6157,-1.6157,-1.6157,-1.6224,-1.6285,-1.6487,-1.6407,-1.6224,-1.6224,-1.6028,-1.5832,-1.5832,-1.5832,-1.5832,-1.5832,-1.5832,-1.5832,-1.5832,-1.5832,-1.5832,-1.5832,-1.5832,-1.5832,-1.5832,-1.5832,-1.5832,-1.5832,-1.5737,-1.5737,-1.5737,-1.5737,-1.5737,-1.5737,-1.5737,-1.5832,-1.5832,-1.5832,-1.5832,-1.5832,-1.5737,-1.535,-1.4394,-1.4292,-1.3806,-1.2727,-1.2727,-1.2753,-1.2993,-1.3228,-1.3355,-1.3583,-1.1571,-1.0692,0.0,0.0,-1.0942,-0.9044,0.0,0.0,0.0,0.0,0.0,0.0,0.0,0.0,0.0,0.0,-0.8357,-0.8194,-0.7963,0.0,0.0,0.0,0.0,0.0,0.0,0.0,0.0,0.0,0.0,0.0,-0.8717,0.0,0.0,-1.0241,-1.0853,-1.1276,-1.1663,-1.2011,-1.2298,-1.2305,-1.2351,-1.2452,-1.2452,-1.2612,-1.2906,-1.3006,-1.3267,-1.3654,-1.3748,-1.3908,-1.4088,-1.4088,-1.4088,-1.4088,-1.4088,-1.4226,-1.4433,-1.4669,-1.5041,-1.5494,-1.5826,-1.5961,-1.594,-1.6157,-1.6245,-1.6231,-1.6312,-1.6312,-1.613,-1.6028,-1.5832,-1.5832,-1.5832,-1.5832,-1.5832,-1.5832,-1.5832,-1.5832,-1.5832,-1.5832,-1.5832,-1.5832,-1.5832,-1.5832,-1.5832,-1.5832,-1.5832,-1.5832,-1.5832,-1.5832,-1.5832,-1.5832,-1.5832,-1.5832,-1.5832,-1.5832,-1.5832,-1.5832,-1.5832,-1.5832,-1.5832,-1.5635,-1.535,-1.5255,-1.5153,-1.4758,-1.4094,-1.3756,-1.3842,-1.3556,-1.3383,-1.3463,-1.3108,-1.2521,-1.0768,-1.1453,0.0,-1.014,-1.0442,0.0,-0.8804,0.0,0.0,0.0,0.0,0.0,0.0,0.0,-0.8809,-0.8813,-0.8754,-0.8406,0.0,0.0,0.0,0.0,0.0,0.0,0.0,0.0,-0.8256,-0.8548,0.0,0.0,0.0,0.0,-1.0481,-1.0975,-1.1456,-1.1904,-1.2298,-1.2305,-1.2305,-1.2305,-1.2305,-1.2405,-1.2667,-1.2775,-1.2959,-1.3333,-1.3547,-1.3748,-1.3941,-1.4041,-1.4088,-1.4088,-1.4088,-1.4166,-1.4362,-1.4581,-1.5161,-1.5798,-1.5725,-1.5866,-1.6048,-1.6048,-1.6048,-1.6048,-1.6035,-1.6028,-1.6028,-1.5832,-1.5832,-1.5832,-1.5832,-1.5832,-1.5832,-1.5832,-1.5832,-1.5832,-1.5832,-1.5832,-1.5832,-1.5832,-1.5832,-1.5832,-1.5832,-1.5832,-1.5832,-1.5832,-1.5832,-1.5832,-1.5832,-1.5832,-1.5832,-1.5832,-1.5832,-1.5832,-1.5832,-1.5832,-1.5832,-1.5832,-1.5832,-1.5832,-1.5832,-1.5832,-1.5832,-1.5832,-1.5159,-1.4873,-1.4873,-1.4529,-1.4476,-1.4575,-1.4896,-1.4456]},{"header":{"parameterUnit":"m.s-1","parameterCategory":1,"la1":30.6,"la2":29.2853,"lo1":-89.7004,"lo2":-87.6739,"dy":0.0162,"dx":0.0183,"nx":112,"ny":82,"refTime":"2024-06-08T00:00:00:Z","depth":0,"parameterNumber":3,"parameterNumberName":"V-component_of_WINDS"},"data":[0.0,0.0,0.0,0.0,0.0,0.0,0.0,0.0,0.0,0.0,0.0,0.0,0.0,0.0,0.0,0.0,0.0,0.0,0.0,0.0,0.0,0.0,0.0,0.0,0.0,0.0,0.0,0.0,0.0,0.0,0.0,0.0,0.0,0.0,0.0,0.0,0.0,0.0,0.0,0.0,0.0,0.0,0.0,0.0,0.0,0.0,0.0,0.0,0.0,0.0,0.0,0.0,0.0,0.0,0.0,0.0,0.0,0.0,0.0,0.0,0.0,0.0,0.0,0.0,0.0,0.0,0.0,0.0,0.0,0.0,0.0,0.0,0.0,0.0,0.0,0.0,0.0,0.0,0.0,0.0,0.0,0.0,0.0,0.0,0.0,0.0,0.0,0.0,0.0,0.0,0.0,-2.9475,-3.3166,-3.5096,-3.4338,-3.404,-3.2576,-2.9486,0.0,0.0,0.0,0.0,0.0,0.0,0.0,0.0,0.0,0.0,0.0,0.0,0.0,0.0,0.0,0.0,0.0,0.0,0.0,0.0,0.0,0.0,0.0,0.0,0.0,0.0,0.0,0.0,0.0,0.0,0.0,0.0,0.0,0.0,0.0,0.0,0.0,0.0,0.0,0.0,0.0,0.0,0.0,0.0,0.0,0.0,0.0,0.0,0.0,0.0,0.0,0.0,0.0,0.0,0.0,0.0,0.0,0.0,0.0,0.0,0.0,0.0,0.0,0.0,0.0,0.0,0.0,0.0,0.0,0.0,0.0,0.0,0.0,0.0,0.0,0.0,0.0,0.0,0.0,0.0,0.0,0.0,0.0,0.0,0.0,0.0,0.0,0.0,0.0,0.0,0.0,0.0,0.0,0.0,0.0,0.0,0.0,0.0,0.0,0.0,0.0,0.0,0.0,0.0,-2.7228,-3.2741,-3.4544,-3.5258,-3.5143,-3.3801,-3.2171,-3.0235,0.0,0.0,0.0,0.0,0.0,0.0,0.0,0.0,0.0,0.0,0.0,0.0,0.0,0.0,0.0,0.0,0.0,0.0,0.0,0.0,0.0,0.0,0.0,0.0,0.0,0.0,0.0,0.0,0.0,0.0,0.0,0.0,0.0,0.0,0.0,0.0,0.0,0.0,0.0,0.0,0.0,0.0,0.0,0.0,0.0,0.0,0.0,0.0,0.0,0.0,0.0,0.0,0.0,0.0,0.0,0.0,0.0,0.0,0.0,0.0,0.0,0.0,0.0,0.0,0.0,0.0,0.0,0.0,0.0,0.0,0.0,0.0,0.0,0.0,0.0,0.0,0.0,0.0,0.0,0.0,0.0,0.0,0.0,0.0,0.0,0.0,0.0,0.0,0.0,0.0,0.0,0.0,0.0,0.0,0.0,0.0,0.0,0.0,0.0,0.0,0.0,0.0,0.0,-2.6096,-2.9078,-3.358,-3.4791,-3.5289,-3.5239,-3.3738,-3.2072,-3.0349,-2.7075,0.0,0.0,0.0,0.0,0.0,0.0,0.0,0.0,0.0,0.0,0.0,0.0,0.0,0.0,0.0,0.0,0.0,0.0,0.0,0.0,0.0,0.0,0.0,0.0,0.0,0.0,0.0,0.0,0.0,0.0,0.0,0.0,0.0,0.0,0.0,0.0,0.0,0.0,0.0,0.0,0.0,0.0,0.0,0.0,0.0,0.0,0.0,0.0,0.0,0.0,0.0,0.0,0.0,0.0,0.0,0.0,0.0,0.0,0.0,0.0,0.0,0.0,0.0,0.0,0.0,0.0,0.0,0.0,0.0,0.0,0.0,0.0,0.0,0.0,0.0,0.0,0.0,0.0,0.0,0.0,0.0,0.0,0.0,0.0,0.0,0.0,0.0,0.0,0.0,0.0,0.0,0.0,0.0,0.0,0.0,0.0,0.0,0.0,0.0,0.0,0.0,0.0,-2.8854,-3.0868,-3.3972,-3.4894,-3.5261,-3.5226,-3.3368,-3.1623,-3.0284,-2.5738,0.0,0.0,0.0,0.0,0.0,0.0,0.0,0.0,0.0,0.0,0.0,0.0,0.0,0.0,0.0,0.0,0.0,0.0,0.0,0.0,0.0,0.0,0.0,0.0,0.0,0.0,0.0,0.0,0.0,0.0,0.0,0.0,0.0,0.0,0.0,0.0,0.0,0.0,0.0,0.0,0.0,0.0,0.0,0.0,0.0,0.0,0.0,0.0,0.0,0.0,0.0,0.0,0.0,0.0,0.0,0.0,0.0,0.0,0.0,0.0,0.0,0.0,0.0,0.0,0.0,0.0,0.0,0.0,0.0,0.0,0.0,0.0,0.0,0.0,0.0,0.0,0.0,0.0,0.0,0.0,0.0,0.0,0.0,0.0,0.0,0.0,0.0,0.0,0.0,0.0,0.0,0.0,0.0,0.0,0.0,0.0,0.0,0.0,0.0,0.0,0.0,0.0,-2.9819,-3.2331,-3.4929,-3.5223,-3.5226,-3.5277,-3.2278,-3.0333,-3.0207,-2.4077,0.0,0.0,0.0,0.0,0.0,0.0,0.0,0.0,0.0,0.0,0.0,0.0,0.0,0.0,0.0,0.0,0.0,0.0,0.0,0.0,0.0,0.0,0.0,0.0,0.0,0.0,0.0,0.0,0.0,0.0,0.0,0.0,0.0,0.0,0.0,0.0,0.0,0.0,0.0,0.0,0.0,0.0,0.0,0.0,0.0,0.0,0.0,0.0,0.0,0.0,0.0,0.0,0.0,0.0,0.0,0.0,0.0,0.0,0.0,0.0,0.0,0.0,0.0,0.0,0.0,0.0,0.0,0.0,0.0,0.0,0.0,0.0,0.0,0.0,0.0,0.0,0.0,0.0,0.0,0.0,0.0,0.0,0.0,0.0,0.0,0.0,0.0,0.0,0.0,0.0,0.0,0.0,0.0,0.0,0.0,0.0,0.0,0.0,0.0,0.0,0.0,0.0,-2.9461,-3.1872,0.0,-3.5209,-3.5209,-3.5245,-3.3089,-3.1116,-2.9557,0.0,0.0,0.0,0.0,0.0,0.0,0.0,0.0,0.0,0.0,0.0,0.0,0.0,0.0,0.0,0.0,0.0,0.0,0.0,0.0,0.0,0.0,0.0,0.0,0.0,0.0,0.0,0.0,0.0,0.0,0.0,0.0,0.0,0.0,0.0,0.0,0.0,0.0,0.0,0.0,0.0,0.0,0.0,0.0,0.0,0.0,0.0,0.0,0.0,0.0,0.0,0.0,0.0,0.0,0.0,0.0,0.0,0.0,0.0,0.0,0.0,0.0,0.0,0.0,0.0,0.0,0.0,0.0,0.0,0.0,0.0,0.0,0.0,0.0,0.0,0.0,0.0,0.0,0.0,0.0,0.0,0.0,0.0,0.0,0.0,0.0,0.0,0.0,0.0,0.0,0.0,0.0,0.0,0.0,0.0,0.0,0.0,0.0,0.0,0.0,0.0,0.0,-2.7497,-2.9811,-3.2087,0.0,-3.5209,-3.5209,-3.5226,-3.3184,-3.1064,-2.909,0.0,0.0,0.0,0.0,0.0,0.0,0.0,0.0,0.0,0.0,0.0,0.0,0.0,0.0,0.0,0.0,0.0,0.0,0.0,0.0,0.0,0.0,0.0,0.0,0.0,0.0,0.0,0.0,0.0,0.0,0.0,0.0,0.0,0.0,0.0,0.0,0.0,0.0,0.0,0.0,0.0,0.0,0.0,0.0,0.0,0.0,0.0,0.0,0.0,0.0,0.0,0.0,0.0,0.0,0.0,0.0,0.0,0.0,0.0,0.0,0.0,0.0,0.0,0.0,0.0,0.0,0.0,0.0,0.0,0.0,0.0,0.0,0.0,0.0,0.0,0.0,0.0,0.0,0.0,0.0,0.0,0.0,0.0,0.0,0.0,0.0,0.0,0.0,0.0,0.0,0.0,0.0,0.0,0.0,0.0,0.0,0.0,0.0,0.0,0.0,0.0,0.0,-2.8453,-3.1169,-3.3372,-3.5139,-3.5245,-3.5226,-3.5312,-3.2201,-2.9841,0.0,0.0,0.0,0.0,0.0,0.0,0.0,0.0,0.0,0.0,0.0,0.0,0.0,0.0,0.0,0.0,0.0,0.0,0.0,0.0,0.0,0.0,0.0,0.0,0.0,0.0,0.0,0.0,0.0,0.0,0.0,0.0,0.0,0.0,0.0,0.0,0.0,0.0,0.0,0.0,0.0,0.0,0.0,0.0,0.0,0.0,0.0,0.0,0.0,0.0,0.0,0.0,0.0,0.0,0.0,0.0,0.0,0.0,0.0,0.0,0.0,0.0,0.0,0.0,0.0,0.0,0.0,0.0,0.0,0.0,0.0,0.0,0.0,0.0,0.0,0.0,0.0,0.0,0.0,0.0,0.0,0.0,0.0,0.0,0.0,0.0,0.0,0.0,0.0,0.0,0.0,0.0,0.0,0.0,0.0,0.0,0.0,0.0,0.0,0.0,0.0,0.0,0.0,-2.844,-3.1211,-3.3647,-3.5905,-3.5621,-3.5509,-3.6105,-3.3616,-3.0896,-2.823,0.0,0.0,0.0,0.0,0.0,0.0,0.0,0.0,0.0,0.0,0.0,0.0,0.0,0.0,0.0,0.0,0.0,0.0,0.0,0.0,0.0,0.0,0.0,0.0,0.0,0.0,0.0,0.0,0.0,0.0,0.0,0.0,0.0,0.0,0.0,0.0,0.0,0.0,0.0,0.0,0.0,0.0,0.0,0.0,0.0,0.0,0.0,0.0,0.0,0.0,0.0,0.0,0.0,0.0,0.0,0.0,0.0,0.0,0.0,0.0,0.0,0.0,0.0,0.0,0.0,0.0,0.0,0.0,0.0,0.0,0.0,0.0,0.0,0.0,0.0,0.0,0.0,0.0,0.0,0.0,0.0,0.0,0.0,0.0,0.0,0.0,0.0,0.0,0.0,0.0,0.0,0.0,0.0,0.0,0.0,0.0,0.0,0.0,0.0,0.0,0.0,0.0,-2.941,-3.2206,-3.4588,-3.675,-3.6542,-3.6332,-3.6489,-3.4518,-3.1833,-2.839,0.0,0.0,0.0,0.0,0.0,0.0,0.0,0.0,0.0,0.0,0.0,0.0,0.0,0.0,0.0,0.0,0.0,0.0,0.0,0.0,0.0,0.0,0.0,0.0,0.0,0.0,0.0,0.0,0.0,0.0,0.0,0.0,0.0,0.0,0.0,0.0,0.0,0.0,0.0,0.0,0.0,0.0,0.0,0.0,0.0,0.0,0.0,0.0,0.0,0.0,0.0,0.0,0.0,0.0,0.0,0.0,0.0,0.0,0.0,0.0,0.0,0.0,0.0,0.0,0.0,0.0,0.0,0.0,0.0,0.0,0.0,0.0,0.0,0.0,0.0,0.0,0.0,0.0,0.0,0.0,0.0,0.0,0.0,0.0,0.0,0.0,0.0,0.0,0.0,0.0,0.0,0.0,0.0,0.0,0.0,0.0,0.0,0.0,0.0,0.0,0.0,0.0,-3.0854,-3.367,-3.5878,-3.7636,-3.7768,-3.7406,-3.668,-3.5076,-3.2664,-2.9249,0.0,0.0,0.0,0.0,0.0,0.0,0.0,0.0,0.0,0.0,0.0,0.0,0.0,0.0,0.0,0.0,0.0,0.0,0.0,0.0,0.0,0.0,0.0,0.0,0.0,0.0,0.0,0.0,0.0,0.0,0.0,0.0,0.0,0.0,0.0,0.0,0.0,0.0,0.0,0.0,0.0,0.0,0.0,0.0,0.0,0.0,0.0,0.0,0.0,0.0,0.0,0.0,0.0,0.0,0.0,0.0,0.0,0.0,0.0,0.0,-2.5427,0.0,0.0,0.0,0.0,0.0,0.0,0.0,0.0,0.0,0.0,0.0,0.0,0.0,0.0,0.0,0.0,0.0,0.0,0.0,0.0,0.0,0.0,0.0,0.0,0.0,0.0,0.0,0.0,0.0,0.0,0.0,0.0,0.0,0.0,0.0,0.0,0.0,0.0,0.0,0.0,0.0,-3.1009,-3.3734,-3.6176,-3.8548,-3.8185,-3.7689,-3.7464,-3.5962,-3.3566,-3.015,-2.7462,0.0,0.0,0.0,0.0,0.0,0.0,0.0,0.0,0.0,0.0,0.0,0.0,0.0,0.0,0.0,0.0,0.0,0.0,0.0,0.0,0.0,0.0,0.0,0.0,0.0,0.0,0.0,0.0,0.0,0.0,0.0,0.0,0.0,0.0,0.0,0.0,0.0,0.0,0.0,0.0,0.0,0.0,0.0,0.0,0.0,0.0,0.0,0.0,0.0,0.0,0.0,0.0,0.0,0.0,0.0,0.0,0.0,0.0,0.0,0.0,-2.7925,0.0,0.0,0.0,0.0,0.0,0.0,0.0,0.0,0.0,0.0,0.0,0.0,0.0,0.0,0.0,0.0,0.0,0.0,0.0,0.0,0.0,0.0,0.0,0.0,0.0,0.0,0.0,0.0,0.0,0.0,0.0,0.0,0.0,0.0,0.0,0.0,0.0,0.0,0.0,0.0,-3.1621,-3.4661,-3.7288,-3.9449,-3.9276,-3.8819,-3.8362,-3.681,-3.476,-3.2201,-2.9334,0.0,0.0,0.0,0.0,0.0,0.0,0.0,0.0,0.0,0.0,0.0,0.0,0.0,0.0,0.0,0.0,0.0,0.0,0.0,0.0,0.0,0.0,0.0,0.0,0.0,0.0,0.0,0.0,0.0,0.0,0.0,0.0,0.0,0.0,0.0,0.0,0.0,0.0,0.0,0.0,0.0,0.0,0.0,0.0,0.0,0.0,0.0,0.0,0.0,0.0,0.0,0.0,0.0,-3.5642,-3.6579,-3.7126,-3.7126,-3.7594,-3.8219,-3.4452,-3.3197,-3.3581,0.0,0.0,0.0,0.0,0.0,0.0,0.0,0.0,0.0,0.0,0.0,0.0,0.0,0.0,0.0,0.0,0.0,0.0,0.0,0.0,0.0,0.0,0.0,0.0,0.0,-3.7847,-3.8623,0.0,0.0,0.0,0.0,0.0,0.0,0.0,0.0,0.0,0.0,0.0,0.0,-3.2713,-3.5952,-3.8534,-4.0138,-4.031,-3.9947,-3.9069,-3.7731,-3.6165,-3.4331,-3.1475,-2.8811,0.0,0.0,0.0,0.0,0.0,0.0,0.0,0.0,0.0,0.0,0.0,0.0,0.0,0.0,0.0,0.0,0.0,0.0,0.0,0.0,0.0,0.0,0.0,0.0,0.0,0.0,0.0,0.0,0.0,0.0,0.0,0.0,-2.1139,-2.1446,0.0,0.0,0.0,0.0,0.0,0.0,0.0,0.0,0.0,0.0,0.0,0.0,0.0,-3.4276,-3.5154,-3.7575,-3.8492,-3.7946,-4.103,-4.2181,-4.1557,-4.1557,-4.2025,-4.2786,-4.1459,0.0,-3.5407,-3.43,0.0,0.0,0.0,0.0,0.0,0.0,0.0,0.0,0.0,0.0,0.0,0.0,0.0,0.0,0.0,0.0,0.0,0.0,0.0,0.0,0.0,0.0,-4.1032,-4.3153,-4.2657,-4.1129,0.0,-3.509,-3.1373,-2.9628,-2.7094,0.0,0.0,0.0,0.0,0.0,0.0,0.0,-3.4531,-3.7213,-3.9221,-4.0196,-4.031,-3.9947,-3.9069,-3.8856,-3.7689,-3.5209,-3.3961,-3.2541,-3.0739,-2.7038,0.0,0.0,0.0,0.0,0.0,0.0,0.0,0.0,0.0,0.0,0.0,0.0,0.0,0.0,0.0,0.0,0.0,0.0,0.0,0.0,0.0,0.0,0.0,0.0,0.0,0.0,0.0,0.0,0.0,-2.0633,-2.3285,-2.3259,-2.4454,-2.477,0.0,0.0,0.0,0.0,0.0,0.0,0.0,0.0,0.0,-3.5681,-3.6931,-3.8219,-3.9585,-4.1186,-4.2064,-4.222,-4.4211,-4.5226,-4.5343,-4.5792,-4.6202,-4.6534,-4.6163,-4.4597,-4.2071,-3.8834,-3.6567,-3.4954,0.0,0.0,0.0,0.0,-3.4644,-3.4578,-3.716,-3.7208,0.0,-3.5758,0.0,0.0,0.0,0.0,0.0,0.0,0.0,0.0,0.0,0.0,-4.073,-4.3656,-4.358,-4.2642,-4.1858,-3.939,-3.646,0.0,-3.2302,-3.0425,-2.673,0.0,0.0,0.0,0.0,0.0,-3.5665,-3.775,-3.9336,-4.0215,-4.031,-4.0157,-3.9756,-3.9316,-3.8341,-3.67,-3.5398,-3.3926,-3.2248,-2.9956,-2.7842,0.0,0.0,0.0,0.0,0.0,0.0,0.0,0.0,0.0,0.0,0.0,0.0,0.0,0.0,0.0,0.0,0.0,0.0,0.0,0.0,0.0,0.0,0.0,0.0,0.0,0.0,0.0,0.0,-2.3384,-2.5568,-2.511,-2.7383,-2.8129,0.0,0.0,0.0,0.0,0.0,0.0,-3.4647,-3.5759,-3.7438,-3.9819,-4.0912,-4.2181,-4.3723,-4.4582,-4.5324,-4.5987,-4.6632,-4.7276,-4.7939,-4.8525,-4.879,-4.8762,-4.8762,-4.8359,-4.7342,-4.3124,-4.0769,-3.9667,-3.7992,-3.723,-3.7267,-3.8702,-3.8811,-3.8625,-4.1274,-4.1591,-4.068,-3.9756,0.0,-3.8284,-3.5283,0.0,0.0,0.0,0.0,-3.5141,-3.6785,-3.8461,-4.0444,-4.3349,-4.4018,-4.3922,-4.352,-4.2775,-4.1113,0.0,-3.7072,-3.5672,-3.0852,0.0,0.0,0.0,0.0,-3.563,-3.754,-3.9069,-4.0215,-4.0883,-4.075,-4.0616,-4.0616,-3.9833,-3.8877,-3.7769,-3.6528,-3.5095,-3.3398,-3.2363,-3.051,-2.7752,0.0,0.0,0.0,0.0,0.0,0.0,0.0,0.0,0.0,0.0,0.0,0.0,0.0,0.0,0.0,0.0,0.0,0.0,0.0,0.0,0.0,0.0,0.0,0.0,0.0,0.0,0.0,0.0,0.0,-2.7061,-3.127,0.0,0.0,0.0,0.0,-3.4256,-3.5193,-3.6501,-3.8258,-3.9897,-4.1596,-4.3391,-4.509,-4.6417,-4.7334,-4.8135,-4.8564,-4.8603,-4.8642,-4.8701,-4.874,-4.8779,-4.8772,-4.8709,-4.8709,-4.8621,-4.8319,-4.6644,-4.4863,-4.3071,-4.2131,-4.1197,-4.0468,-4.1368,-4.1582,-4.1529,-4.2574,-4.2291,-4.1686,-4.3195,-4.2661,-4.1035,-3.8935,-3.7596,0.0,0.0,-3.8687,-4.0387,-4.1989,-4.3652,-4.4975,-4.5184,-4.5201,-4.5201,-4.5182,-4.4535,-4.3426,0.0,-3.9928,-3.8285,-3.6394,0.0,-3.5248,-3.5954,-3.6891,-3.8419,-4.0922,-4.203,-4.2622,-4.2679,-4.1934,-4.1437,-4.1437,-4.0711,-3.9508,-3.7808,-3.7617,-3.6814,-3.5152,-3.3509,-3.2191,-3.1259,-2.7268,0.0,0.0,0.0,0.0,0.0,0.0,0.0,0.0,0.0,0.0,0.0,0.0,0.0,0.0,0.0,0.0,0.0,0.0,0.0,0.0,0.0,0.0,0.0,0.0,0.0,0.0,0.0,0.0,-3.1123,-3.4231,0.0,0.0,-3.548,-3.6782,-3.7184,-3.8931,-4.055,-4.181,-4.3509,-4.4992,-4.6163,-4.7315,-4.804,-4.8314,-4.8645,-4.8747,-4.8621,-4.9313,-4.9582,-4.9529,-5.0172,-5.0411,-5.0299,-5.0252,-5.0189,-5.006,-4.9487,-4.8292,-4.6753,-4.629,-4.5949,-4.5774,-4.6053,-4.6073,-4.6008,-4.6275,-4.6114,-4.5719,-4.5113,-4.3561,-4.1781,-4.1073,-4.0119,-3.9528,-4.0731,-4.2278,-4.3692,-4.4244,-4.4857,-4.5298,-4.5297,-4.5297,-4.5297,-4.5297,-4.5069,-4.4687,-4.4055,-4.2604,-4.073,-3.8495,-3.8744,-3.8992,-3.8228,-3.9279,-4.0673,-4.2144,-4.2603,-4.2794,-4.2794,-4.2011,-4.1495,-4.1495,-4.0769,-3.9565,-3.7808,-3.7693,-3.6948,-3.5267,-3.414,-3.286,-3.146,-2.9453,-2.6778,0.0,0.0,0.0,0.0,0.0,0.0,0.0,0.0,0.0,0.0,0.0,0.0,0.0,0.0,0.0,0.0,0.0,0.0,0.0,0.0,0.0,0.0,0.0,0.0,0.0,0.0,-3.3883,-3.4173,-3.7284,-3.8834,-3.7425,-3.9,-4.0299,-4.0734,-4.2232,-4.369,-4.4953,-4.6105,-4.7112,-4.7952,-4.881,-4.9206,-4.9111,-4.9438,-4.9549,-4.942,-5.0085,-5.0353,-5.0285,-5.0965,-5.1195,-5.1102,-5.1031,-5.0946,-5.0863,-5.0793,-5.0225,-4.9318,-4.8866,-4.8585,-4.8417,-4.8319,-4.8265,-4.8179,-4.8101,-4.8065,-4.7855,-4.6627,-4.5111,-4.3675,-4.3292,-4.2678,-4.2579,-4.4782,-4.5757,-4.6099,-4.5908,-4.5774,-4.564,-4.5354,-4.5297,-4.5297,-4.5297,-4.5297,-4.5297,-4.5297,-4.4401,-4.3005,-4.1036,-4.1609,-4.1972,-4.0845,-4.1628,-4.266,-4.352,-4.3634,-4.3634,-4.3634,-4.2851,-4.2221,-4.1953,-4.0941,-3.968,-3.8228,-3.7617,-3.6795,-3.5687,-3.4579,-3.3318,-3.1885,-3.0472,-2.8249,-2.5164,0.0,0.0,0.0,0.0,0.0,0.0,0.0,0.0,0.0,0.0,0.0,0.0,0.0,0.0,0.0,0.0,0.0,0.0,0.0,0.0,0.0,0.0,0.0,-3.078,-3.4477,-3.6882,-3.6124,-4.0485,-4.2613,-4.0231,-4.2163,-4.3987,-4.5008,-4.5067,-4.5824,-4.7545,-4.7662,-4.7991,-4.8702,-4.9644,-5.0079,-4.9929,-5.0766,-5.1195,-5.1187,-5.1053,-5.0996,-5.0996,-5.1008,-5.0953,-5.0887,-5.0819,-5.0718,-5.0582,-5.0521,-5.0567,-5.06,-4.977,-4.8926,-4.8143,-4.8025,-4.7939,-4.7876,-4.7876,-4.7857,-4.7857,-4.7857,-4.7471,-4.6819,-4.5703,-4.5418,-4.6126,-4.9395,-4.9105,-4.7704,-4.7171,-4.6768,-4.6347,-4.5564,-4.5354,-4.5335,-4.5335,-4.5316,-4.5297,-4.5297,-4.5297,-4.5029,-4.4188,-4.4055,-4.4055,-4.4055,-4.4055,0.0,-4.5182,-4.5297,-4.5297,-4.5297,-4.4532,-4.3692,-4.2908,-4.1304,-3.9947,-3.9069,-3.7464,-3.6547,-3.6491,-3.4904,-3.3624,-3.2749,-3.0266,-2.8567,-2.7778,0.0,0.0,0.0,0.0,0.0,0.0,0.0,0.0,0.0,0.0,0.0,0.0,0.0,0.0,0.0,0.0,0.0,0.0,0.0,0.0,0.0,0.0,-3.438,-3.5145,-3.7312,-3.9445,-4.1103,-4.3171,-4.442,-4.437,-4.4898,-4.571,-4.68,-4.6617,-4.7018,-4.834,-4.8892,-4.9303,-4.9566,-5.0344,-5.0733,-5.0703,-5.0934,-5.0985,-5.0855,-5.0953,-5.0979,-5.0923,-5.0979,-5.0953,-5.0887,-5.0767,-5.0644,-5.0521,-5.0393,-5.0374,-5.0402,-5.0256,-5.0067,-4.9894,-4.9813,-4.9745,-4.9701,-4.9701,-4.9277,-4.8735,-4.8735,-4.822,-4.751,-4.7201,-4.7952,-4.9124,-5.0049,-4.9376,-4.8261,-4.7723,-4.7513,-4.7398,-4.7169,-4.6634,-4.6175,-4.6175,-4.5698,-4.5297,-4.5297,-4.5297,-4.522,-4.4972,-4.4934,-4.4934,-4.4934,-4.4934,0.0,-4.5258,-4.5297,-4.5297,-4.5297,-4.4532,-4.3921,-4.3692,-4.2125,-4.0559,-3.9088,-3.798,-3.712,-3.6528,-3.5458,-3.4483,-3.3662,-3.1771,-3.0376,0.0,0.0,0.0,0.0,0.0,0.0,0.0,0.0,0.0,0.0,0.0,0.0,0.0,0.0,0.0,0.0,0.0,0.0,0.0,0.0,0.0,0.0,-3.5199,-3.7747,-3.9767,-4.0626,-4.1759,-4.3645,-4.4652,-4.5454,-4.6052,-4.6309,-4.6746,-4.7454,-4.7641,-4.8155,-4.915,-4.9556,-4.9951,-5.0345,-5.0744,-5.0953,-5.0912,-5.0918,-5.0883,-5.0775,-5.0835,-5.0816,-5.0773,-5.08,-5.0764,0.0,-5.0625,-5.0526,-5.0457,-5.0348,-5.0302,0.0,0.0,0.0,0.0,0.0,-5.0393,-5.0367,-5.0367,-5.0019,-4.9595,-4.9595,-4.9251,-4.885,-4.885,-4.9522,-5.0291,-5.0291,-4.9832,-4.9178,-4.8506,-4.8334,-4.8258,-4.7895,-4.7417,-4.7054,-4.7054,-4.6385,-4.5793,-4.5793,-4.5526,0.0,-4.5297,-4.5297,-4.5297,-4.5297,-4.5297,-4.5297,-4.5297,-4.5297,-4.5297,-4.5297,-4.4857,-4.4399,-4.4036,-4.2469,0.0,0.0,0.0,-3.7349,-3.6547,-3.6012,0.0,0.0,0.0,0.0,0.0,0.0,0.0,0.0,-3.1269,-3.1499,0.0,0.0,0.0,0.0,0.0,0.0,0.0,0.0,0.0,0.0,0.0,0.0,0.0,0.0,0.0,0.0,-3.8873,-4.0729,-4.3857,-4.3809,-4.3738,-4.4523,-4.5306,-4.5899,-4.6163,-4.6784,-4.73,-4.7626,-4.8329,-4.9127,-4.9954,0.0,0.0,0.0,0.0,-5.0825,-5.0803,-5.0769,-5.0786,-5.0855,-5.0664,-5.064,-5.0717,-5.0656,-5.0692,-5.0788,-5.0703,-5.068,-5.0677,-5.0612,-5.0531,-5.0436,-5.034,-5.0302,-5.0302,-5.0302,-5.0302,-5.0302,-5.0302,0.0,0.0,-5.0302,-5.0302,-5.0302,-5.0302,-5.0302,-5.0302,-5.0302,-5.0302,-5.0149,-4.9423,-4.9232,-4.9041,-4.8277,-4.8009,-4.7952,-4.7952,-4.7264,-4.6615,-4.6519,-4.5927,-4.5411,-4.5316,-4.5297,-4.5297,-4.5297,-4.5297,-4.5297,-4.5297,-4.5297,-4.5297,-4.5297,0.0,0.0,-4.4227,-4.2698,-4.1743,-4.1648,-3.9431,-3.7808,-3.7101,-3.7063,-3.7063,-3.7063,-3.6986,-3.7292,-3.7999,-3.8858,-3.9279,-3.9164,-3.4617,-3.414,0.0,0.0,0.0,0.0,0.0,0.0,0.0,0.0,0.0,0.0,0.0,0.0,0.0,0.0,0.0,-3.7625,-4.0351,-4.2712,-4.4037,-4.4651,-4.5089,-4.5336,-4.5584,-4.5984,-4.6684,-4.6864,-4.7564,-4.9065,-4.9193,-4.9577,-5.0484,-5.0466,-5.0527,-5.0745,-5.0587,-5.0567,-5.0713,-5.0567,-5.0523,-5.0585,0.0,0.0,-5.1478,-5.1478,-5.1861,-5.2513,-5.2445,-5.2422,-5.2422,-5.2332,-5.1926,-5.1295,-5.0569,-5.0302,-5.0302,-5.0302,-5.0302,-5.0302,-5.0302,-5.0302,-5.0302,-5.0302,-5.0302,-5.0302,-5.0302,-5.0302,0.0,-5.0302,-5.0302,-5.0264,-5.0111,-5.0073,-5.0034,-4.9862,-4.9328,-4.885,-4.885,-4.8162,-4.7341,-4.6653,-4.6366,-4.6061,-4.5411,-4.5297,-4.5297,-4.5297,-4.5297,-4.5297,-4.5297,-4.5297,-4.5297,-4.5297,-4.5297,-4.522,-4.5048,-4.4112,-4.3252,-4.2584,-4.1418,-4.0692,-4.054,-4.052,-4.052,-4.052,-3.9909,-3.9642,-3.9814,-4.0616,-4.1017,-4.0979,-3.9355,-3.9298,0.0,0.0,0.0,0.0,0.0,0.0,0.0,0.0,0.0,0.0,0.0,-3.3205,0.0,0.0,-3.9135,-4.0795,-4.2502,-4.3866,-4.4691,-4.5151,-4.5438,-4.555,-4.5565,-4.5921,-4.6808,-4.7291,-4.8083,-4.9386,-4.9811,-5.022,-5.0677,-5.0567,-5.0545,-5.0661,-5.0886,-5.107,-5.1201,-5.1494,-5.1679,-5.1746,-5.1724,-5.1913,-5.2315,-5.2269,-5.2499,-5.29,-5.2877,-5.2853,-5.2853,-5.281,-5.2556,-5.2155,-5.1716,-5.1047,-5.0302,-5.0302,-5.0302,-5.0302,-5.0302,-5.0302,-5.0302,-5.0302,-5.0302,-5.0302,-5.0302,-5.0302,-5.0302,-5.0302,-5.0302,-5.0302,-5.0302,-5.0302,-5.0302,-5.0302,-4.9996,-4.9691,-4.9691,-4.9041,-4.8315,-4.7895,-4.7092,-4.6366,-4.5965,-4.5564,-4.5297,-4.5297,-4.5297,-4.5297,-4.5297,-4.5297,-4.5297,-4.5297,-4.5297,-4.5297,-4.5297,-4.4494,-4.3673,-4.2851,-4.2393,-4.2144,-4.2144,-4.2144,-4.2144,-4.2144,-4.1762,-4.1552,-4.1552,-4.2354,-4.2756,-4.2756,-4.2794,-4.2775,0.0,0.0,0.0,0.0,0.0,0.0,0.0,0.0,-3.0871,-3.191,-3.4584,-3.7127,-3.8408,-4.006,-4.1886,-4.3866,-4.4346,-4.4653,-4.5304,-4.5381,-4.5419,-4.5457,-4.5419,-4.584,-4.6979,-4.773,-4.8544,-4.9489,-5.024,-5.0643,-5.0624,-5.0464,-5.044,-5.0548,-5.122,-5.1625,-5.1672,-5.2475,-5.29,-5.2947,-5.29,-5.2973,-5.3126,-5.3077,-5.3129,-5.3301,-5.3301,-5.3301,-5.3301,-5.3301,-5.3206,-5.3053,-5.3053,-5.2117,-5.0799,-5.0799,-5.0799,-5.0799,-5.0799,-5.0684,-5.0531,-5.0378,-5.0302,-5.0302,-5.0302,-5.0302,-5.0302,-5.0302,-5.0302,-5.0302,-5.0302,-5.0302,-5.0302,-5.0302,-5.0302,-5.0302,-5.0302,-4.9786,-4.9289,-4.9117,-4.7971,-4.6901,-4.6557,-4.5965,-4.5468,-4.5316,-4.5297,-4.5297,-4.5297,-4.5297,-4.5297,-4.5297,-4.5297,-4.5297,-4.5297,-4.4666,-4.3978,-4.3329,-4.3291,-4.3291,-4.3291,-4.3291,-4.3291,-4.3291,-4.3291,-4.3291,-4.3291,-4.394,-4.4265,-4.4284,-4.4972,-4.4914,-2.5832,-2.6736,-2.7678,-2.8582,-2.941,-3.0968,0.0,0.0,-3.6315,-3.7969,-3.9796,-4.1127,-4.1251,-4.271,-4.394,-4.4154,-4.4806,-4.5303,-4.5399,-4.5359,-4.5338,-4.5399,-4.54,-4.6033,-4.7622,-4.7871,-4.8558,-5.0103,-5.0358,-5.0416,-5.0352,-5.0371,-5.0371,-5.0329,-5.1166,-5.1601,-5.1601,-5.2428,-5.281,-5.281,-5.281,-5.323,-5.3951,-5.3951,-5.4371,-5.5116,-5.5116,-5.5116,-5.5116,-5.5116,-5.4658,-5.3951,-5.3951,-5.3359,-5.2518,-5.2518,-5.2518,-5.2518,-5.2518,-5.2059,-5.131,-5.0541,-5.0317,-5.0302,-5.0302,-5.0302,-5.0302,-5.0302,-5.0302,-5.0302,-5.0302,-5.0302,-5.0302,-5.0302,-5.0302,-5.0302,-5.0302,-5.0225,-4.9939,-4.9232,-4.8926,-4.8315,-4.6768,-4.6424,-4.6118,-4.5411,-4.5297,-4.5297,-4.5297,-4.5297,-4.5297,-4.5297,-4.5297,-4.5297,-4.5297,-4.5201,-4.5125,-4.5029,-4.501,-4.501,-4.501,-4.501,-4.501,-4.501,-4.501,-4.501,-4.501,-4.5105,-4.5144,-4.5163,-4.5239,-4.5239,-2.964,-3.0525,0.0,0.0,-3.3833,-3.5295,-3.7046,-3.8219,-3.9258,-4.0508,-4.2085,-4.3242,-4.3209,-4.4189,-4.4977,0.0,-4.5188,-4.5398,-4.5338,-4.5338,-4.5338,-4.5338,-4.5379,-4.605,-4.7752,-4.7862,-4.8528,-5.0187,-5.0325,-5.0325,-5.0302,-5.0325,-5.0325,-5.0302,-5.1601,-5.2308,-5.2308,-5.3645,-5.4314,-5.4314,-5.4314,-5.4505,-5.4868,-5.4868,-5.5059,-5.5403,-5.5403,-5.5403,-5.5403,-5.5403,-5.5193,-5.4868,-5.4868,-5.4639,-5.4199,-5.3168,-5.2805,-5.2805,-5.2805,-5.2575,-5.2155,-5.1329,-5.1061,-5.0971,-5.0455,-5.0302,-5.0302,-5.0302,-5.0302,-5.0302,-5.0302,-5.0302,-5.0302,-5.0302,-5.0302,-5.0302,-5.0302,-5.0302,-5.0206,-4.9862,-4.9423,-4.8869,-4.8143,-4.7169,-4.6385,-4.6042,-4.5602,-4.5297,-4.5297,-4.5297,-4.5297,-4.5297,-4.5297,-4.5297,-4.5297,-4.5297,-4.5297,-4.5297,-4.5297,-4.5297,-4.5297,-4.5297,-4.5297,-4.5297,-4.5297,-4.5297,-4.5297,-4.5297,-4.5297,-4.5297,-4.5297,-4.5297,-3.1621,0.0,0.0,-3.5526,-3.745,-3.9046,-3.9031,-4.0338,-4.1723,-4.2341,-4.3609,-4.4591,-4.4594,-4.5074,0.0,-4.5379,-4.5359,-4.5378,-4.5317,-4.5338,-4.5338,-4.5317,-4.5338,-4.5932,-4.7386,-4.7687,-4.8411,-4.9862,-5.0168,-5.0302,-5.0302,-5.0302,-5.0417,-5.0646,-5.204,-5.2919,-5.3148,-5.4658,-5.5403,-5.5403,-5.5403,-5.5403,-5.5403,-5.5403,-5.5403,-5.5403,-5.5403,-5.5403,-5.5403,-5.5403,-5.5403,-5.5403,-5.5403,-5.5403,-5.525,-5.397,-5.3511,-5.3511,-5.3511,-5.3359,-5.3053,-5.248,-5.1983,-5.1486,-5.0856,-5.0493,-5.0302,-5.0302,-5.0302,-5.0302,-5.0302,-5.0302,-5.0302,-5.0302,-5.0302,-5.0302,-5.0302,-5.0302,-5.0302,-5.0302,-4.9824,-4.9347,-4.9137,-4.8048,-4.7054,-4.6577,-4.6003,-4.5545,-4.5316,-4.5297,-4.5297,-4.5297,-4.5297,-4.5297,-4.5297,-4.5297,-4.5297,-4.5297,-4.5297,-4.5297,-4.5297,-4.5297,-4.5297,-4.5297,-4.5297,-4.5297,-4.5297,-4.5297,-4.5297,-4.5297,-4.5297,-4.5297,0.0,0.0,-3.6603,-3.6661,-3.92,-4.1665,-4.1596,-4.294,-4.4171,-4.4153,-4.4787,-4.5381,-4.5361,-4.5399,-4.5379,-4.5317,-4.5297,-4.5297,-4.5297,-4.5297,-4.5297,-4.5297,-4.5297,-4.5621,0.0,-4.7322,-4.8181,-4.906,-4.9862,-5.0302,-5.0302,-5.0302,-5.0684,-5.1544,-5.2365,-5.3206,-5.4046,-5.4963,-5.5403,-5.5403,-5.5403,-5.5403,-5.5403,-5.5403,-5.5403,-5.5403,-5.5403,-5.5403,-5.5403,-5.5403,-5.5403,-5.5403,-5.5403,-5.5403,-5.5403,-5.5345,-5.5326,-5.5326,-5.5326,-5.4772,-5.4065,-5.4027,-5.2919,-5.1601,-5.1582,-5.0971,-5.0302,-5.0302,-5.0302,-5.0302,-5.0302,-5.0302,-5.0302,-5.0302,-5.0302,-5.0302,-5.0302,-5.0302,-5.0302,-5.0302,-5.0283,-5.0015,-4.9232,-4.906,-4.8449,-4.6748,-4.6481,-4.6175,-4.5392,-4.5297,-4.5297,-4.5297,-4.5297,-4.5297,-4.5297,-4.5297,-4.5297,-4.5297,-4.5297,-4.5297,-4.5297,-4.5297,-4.5297,-4.5297,-4.5297,-4.5297,-4.5297,-4.5297,-4.5297,-4.5297,-4.5297,-4.5297,0.0,0.0,-3.8569,-3.9682,-4.1696,-4.3385,-4.3348,-4.423,-4.4863,-4.4307,-4.3962,-4.3714,-4.3695,-4.3675,-4.3828,-4.4341,-4.4914,-4.5297,-4.5297,-4.5297,-4.5297,-4.5297,-4.5297,0.0,0.0,0.0,0.0,-4.8984,-4.9347,-4.9729,-5.0264,-5.0302,-5.0703,-5.1582,-5.2384,-5.3225,-5.4085,-5.4963,-5.5403,-5.5403,-5.5403,-5.5403,-5.5403,-5.5403,-5.5403,-5.5403,-5.5403,-5.5403,-5.5403,-5.5403,-5.5403,-5.5403,-5.5403,-5.5403,-5.5403,-5.5403,-5.5403,-5.5403,-5.5403,-5.5212,-5.4868,-5.4295,-5.3722,-5.3053,-5.1945,-5.141,-5.1047,-5.0455,-5.0302,-5.0302,-5.0302,-5.0302,-5.0302,-5.0302,-5.0302,-5.0302,-5.0302,-5.0302,-5.0302,-5.0302,-5.0302,-5.0206,-4.9939,-4.9442,-4.8697,-4.7551,-4.6424,-4.5602,-4.5316,-4.5297,-4.5297,-4.5297,-4.5297,-4.5297,-4.5297,-4.5297,-4.5297,-4.5297,-4.5297,-4.5297,-4.5297,-4.5297,-4.5297,-4.5297,-4.5297,-4.5297,-4.5297,-4.5297,-4.5297,-4.5297,-4.5297,-4.5297,0.0,-3.8712,-4.0398,-4.2104,-4.3598,-4.4557,-4.425,-4.4576,-4.4595,-4.3465,-4.2546,-4.1971,-4.1915,-4.1666,-4.1915,-4.3348,-4.4036,-4.4609,-4.522,-4.5297,-4.5297,-4.5297,-4.5545,0.0,0.0,0.0,0.0,-4.8544,-4.9194,-4.9882,-5.0722,-5.076,-5.1295,-5.2461,-5.2996,-5.3683,-5.4562,-5.5116,-5.5403,-5.5403,-5.5403,-5.5403,-5.5403,-5.5403,-5.5403,-5.5403,-5.5403,-5.5403,-5.5403,-5.5403,-5.5403,-5.5403,-5.5403,-5.5403,-5.5403,-5.5403,-5.5403,-5.5403,-5.5403,-5.5403,-5.5307,-5.4753,-5.4352,-5.3836,-5.2461,-5.183,-5.1429,-5.055,-5.0302,-5.0302,-5.0302,-5.0302,-5.0302,-5.0302,-5.0302,-5.0302,-5.0302,-5.0302,-5.0302,-5.0302,-5.0302,-5.0302,-5.0302,-4.9633,-4.8907,-4.8353,-4.7073,-4.608,-4.5774,-4.5468,-4.5297,-4.5297,-4.5297,-4.5297,-4.5297,-4.5297,-4.5297,-4.5297,-4.5297,-4.5297,-4.5297,-4.5297,-4.5297,-4.5297,-4.5297,-4.5297,-4.5297,-4.5297,-4.5297,-4.5297,-4.5297,-4.5297,-3.8482,-4.0419,-4.2142,-4.3828,-4.4806,-4.5112,-4.4269,-4.4001,-4.3407,-4.1667,-4.0597,-3.9966,0.0,0.0,-3.9699,-4.2202,-4.2756,-4.3424,-4.5067,-4.5335,-4.5354,0.0,0.0,0.0,0.0,0.0,0.0,-4.7876,0.0,-5.0646,-5.1563,-5.1601,-5.2365,-5.4046,-5.4104,-5.4524,-5.5403,-5.5403,-5.5403,-5.5403,-5.5403,-5.5403,-5.5403,-5.5403,-5.5403,-5.5403,-5.5403,-5.5403,-5.5403,-5.5403,-5.5403,-5.5403,-5.5403,-5.5403,-5.5403,-5.5403,-5.5403,-5.5403,-5.5403,-5.5403,-5.5403,-5.5403,-5.4849,-5.4008,-5.3129,-5.2308,-5.1486,-5.0608,-5.034,-5.0302,-5.0302,-5.0302,-5.0302,-5.0302,-5.0302,-5.0302,-5.0302,-5.0302,-5.0302,-5.0302,-5.0302,-5.0302,-5.0302,-4.9671,-4.9156,-4.9156,-4.843,-4.7551,-4.6615,-4.5831,-4.5335,-4.5297,-4.5297,-4.5297,-4.5297,-4.5297,-4.5297,-4.5297,-4.5297,-4.5297,-4.5297,-4.5297,-4.5297,-4.5297,-4.5297,-4.5297,-4.5297,-4.5297,-4.5297,-4.5297,-4.5297,-4.5316,-3.9468,-4.1648,-4.3635,-4.4745,-4.4688,-4.4306,-4.4075,-4.2603,-4.0768,-3.903,-3.7043,-3.54,0.0,0.0,0.0,-3.9661,-4.2068,0.0,-4.5144,-4.5812,0.0,0.0,0.0,-4.7474,-4.7474,-4.8258,0.0,0.0,-4.9156,-5.0054,-5.1525,-5.1601,-5.2365,-5.4046,-5.4104,-5.4524,-5.5403,-5.5403,-5.5403,-5.5403,-5.5403,-5.5403,-5.5403,-5.5403,-5.5403,-5.5403,-5.5403,-5.5403,-5.5403,-5.5403,-5.5403,-5.5403,-5.5403,-5.5403,-5.5403,-5.5403,-5.5403,-5.5403,-5.5403,-5.5403,-5.5403,-5.5403,-5.525,-5.4906,-5.4027,-5.3168,-5.2327,-5.1505,-5.0799,-5.0302,-5.0302,-5.0302,-5.0302,-5.0302,-5.0302,-5.0302,-5.0302,-5.0302,-5.0302,-5.0302,-5.0302,-5.0302,-5.0302,-5.013,-4.9996,-4.9996,-4.9289,-4.822,-4.671,-4.6328,-4.5965,-4.5354,-4.5297,-4.5297,-4.5297,-4.5297,-4.5297,-4.5297,-4.5297,-4.5297,-4.5297,-4.5297,-4.5297,-4.5297,-4.5297,-4.5297,-4.5297,-4.5297,-4.5297,-4.5297,-4.5297,-4.5621,-4.1361,-4.3233,-4.4609,-4.4704,-4.436,-4.352,-4.1667,-4.0157,-3.8362,-3.5553,-3.3566,0.0,0.0,0.0,0.0,0.0,0.0,0.0,-4.4513,-4.5755,-4.65,0.0,-4.7608,0.0,-4.8372,-4.9137,-4.9633,0.0,-4.9977,-5.076,-5.2059,-5.2499,-5.3301,-5.4639,-5.4677,-5.4906,-5.5403,-5.5403,-5.5403,-5.5403,-5.5403,-5.5403,-5.5403,-5.5403,-5.5403,-5.5403,0.0,-5.5403,-5.5403,-5.5403,-5.5403,-5.5403,-5.5403,-5.5403,-5.5403,-5.5403,-5.5403,-5.5403,-5.5403,-5.5403,-5.5403,-5.5403,-5.5403,-5.525,-5.4352,-5.376,-5.3206,-5.2365,-5.1525,-5.0875,-5.0875,-5.0588,-5.0302,-5.0302,-5.0302,-5.0302,-5.0302,-5.0302,-5.0302,-5.0302,-5.0302,-5.0302,-5.0302,-5.0302,-5.0302,-5.0302,-4.992,-4.9156,-4.7799,-4.6978,-4.6328,-4.587,-4.5507,-4.5297,-4.5297,-4.5297,-4.5297,-4.5297,-4.5297,-4.5297,-4.5297,-4.5297,-4.5297,-4.5297,-4.5297,-4.5297,-4.5297,-4.5297,-4.5297,-4.5297,-4.5297,-4.5736,-4.3271,-4.4551,-4.5086,-4.4227,-4.3845,-4.2622,-3.861,-3.7349,-3.5916,-3.1981,0.0,0.0,-2.9555,0.0,-3.242,-3.5783,0.0,-4.1208,-4.3825,-4.5526,-4.6538,-4.6672,-4.8105,-4.9137,-4.9251,-4.9882,-5.0302,-5.0302,-5.1123,-5.1945,-5.2747,-5.3626,-5.4505,-5.5365,-5.5403,-5.5403,-5.5403,-5.5403,-5.5403,-5.5403,-5.5403,-5.5403,-5.5403,-5.5403,-5.5403,-5.5403,-5.5403,0.0,-5.5403,-5.5403,-5.5403,-5.5403,-5.5403,-5.5403,-5.5403,-5.5403,-5.5403,-5.5403,-5.5403,-5.5403,-5.5403,-5.5403,-5.5403,-5.5269,-5.4505,-5.4199,-5.3913,-5.3053,-5.2212,-5.1582,-5.1467,-5.0875,-5.0302,-5.0302,-5.0302,-5.0302,-5.0302,-5.0302,-5.0302,-5.0302,-5.0302,-5.0302,-5.0302,-5.0302,-5.0302,-5.0302,-5.0302,-5.0054,-4.9347,-4.7857,-4.6768,-4.6519,-4.587,-4.5411,-4.5297,-4.5297,-4.5297,-4.5297,-4.5297,-4.5297,-4.5297,-4.5297,-4.5297,-4.5297,-4.5297,-4.5297,-4.5297,-4.5297,-4.5297,-4.5297,-4.5297,-4.5793,-4.2889,-4.4131,-4.5086,-4.4227,-4.2966,-4.1189,-3.8343,-3.5553,0.0,0.0,0.0,-2.6861,-2.6185,-2.8446,0.0,-3.4885,0.0,0.0,0.0,0.0,-4.6768,0.0,0.0,0.0,0.0,0.0,0.0,0.0,0.0,-5.1945,-5.2747,-5.3626,-5.4505,-5.5365,-5.5403,-5.5403,-5.5403,-5.5403,-5.5403,-5.5403,-5.5403,-5.5403,-5.5403,-5.5403,-5.5403,-5.5403,-5.5403,0.0,-5.5403,-5.5403,-5.5403,-5.5403,-5.5403,-5.5403,-5.5403,-5.5403,-5.5403,-5.5403,-5.5403,-5.5403,-5.5403,-5.5403,-5.5403,-5.5365,-5.5231,-5.4677,-5.3913,-5.3053,-5.2212,-5.1429,-5.0722,-5.0417,-5.0302,-5.0302,-5.0302,-5.0302,-5.0302,-5.0302,-5.0302,-5.0302,-5.0302,-5.0302,-5.0302,-5.0302,-5.0302,-5.0302,-5.0302,-5.0245,-5.0111,-4.9251,-4.8105,-4.6653,-4.6385,-4.6023,-4.5354,-4.5297,-4.5297,-4.5297,-4.5297,-4.5297,-4.5297,-4.5297,-4.5297,-4.5297,-4.5297,-4.5297,-4.5297,-4.5297,-4.5297,-4.5297,-4.5297,-4.6118,-4.308,-4.4017,-4.4418,-4.3577,-4.2125,-3.9871,-3.5993,0.0,0.0,0.0,0.0,-2.5669,-2.5268,0.0,0.0,0.0,0.0,0.0,0.0,0.0,0.0,0.0,0.0,0.0,0.0,0.0,0.0,0.0,0.0,-5.1773,-5.2155,-5.3397,-5.4505,-5.5365,-5.5403,-5.5403,-5.5403,-5.5403,-5.5403,-5.5403,-5.5403,-5.5403,-5.5403,-5.5403,-5.5403,-5.5403,-5.5403,0.0,-5.5403,-5.5403,-5.5403,-5.5403,-5.5403,-5.5403,-5.5403,-5.5403,-5.5403,-5.5403,-5.5403,-5.5403,-5.5403,-5.5403,-5.5403,-5.5403,-5.5403,-5.5116,-5.46,-5.3722,-5.2862,-5.204,-5.12,-5.0646,-5.0302,-5.0302,-5.0302,-5.0302,-5.0302,-5.0302,-5.0302,-5.0302,-5.0302,-5.0302,-5.0302,-5.0302,-5.0302,-5.0302,-5.0302,-5.0302,-5.0302,-4.9958,-4.9232,-4.799,-4.7035,-4.6347,-4.5965,-4.5545,-4.5297,-4.5297,-4.5297,-4.5297,-4.5297,-4.5297,-4.5297,-4.5297,-4.5297,-4.5297,-4.5297,-4.5297,-4.5297,-4.5297,-4.5736,-4.6596,-4.2679,-4.3482,-4.3558,-4.2737,-4.1113,-3.8514,-3.378,-3.1274,0.0,0.0,0.0,-2.5191,-2.5191,0.0,0.0,0.0,0.0,0.0,0.0,0.0,0.0,0.0,0.0,0.0,0.0,0.0,0.0,0.0,0.0,0.0,-5.1849,-5.3282,-5.4409,-5.5097,-5.5307,-5.5403,-5.5403,-5.5403,-5.5403,-5.5403,-5.5403,-5.5403,-5.5403,-5.5403,-5.5403,-5.5403,-5.5403,0.0,0.0,-5.5403,-5.5403,-5.5403,-5.5403,-5.5403,-5.5403,-5.5403,-5.5403,-5.5403,-5.5403,-5.5403,-5.5365,-5.5193,-5.525,-5.5403,-5.5403,-5.5269,-5.4944,-5.4065,-5.3206,-5.2346,-5.1525,-5.0818,-5.0302,-5.0302,-5.0302,-5.0302,-5.0302,-5.0302,-5.0302,-5.0302,-5.0302,-5.0302,-5.0302,-5.0302,-5.0302,-5.0302,-5.0302,-5.0302,-5.0302,-5.0302,-5.0054,-4.9423,-4.7971,-4.692,-4.6538,-4.5927,-4.5468,-4.5297,-4.5297,-4.5297,-4.5297,-4.5297,-4.5297,-4.5297,-4.5297,-4.5297,-4.5297,-4.5297,-4.5297,-4.5316,-4.6137,-4.6978,-4.0578,-4.1762,-4.2698,-4.1839,-3.9756,-3.7024,-3.3494,0.0,0.0,0.0,-2.5191,-2.5191,-2.5191,-2.5918,0.0,0.0,0.0,0.0,0.0,0.0,0.0,0.0,0.0,0.0,0.0,0.0,0.0,0.0,0.0,0.0,-5.2614,-5.3588,-5.4142,-5.4218,-5.5002,-5.5403,-5.5403,-5.5403,-5.5403,-5.5403,-5.5403,-5.5403,-5.5403,-5.5403,-5.5403,-5.5403,-5.5403,0.0,0.0,-5.5403,-5.5403,-5.5403,-5.5403,-5.5403,-5.5403,-5.5403,-5.5403,-5.5403,-5.5403,-5.5403,-5.5269,-5.4486,-5.4753,-5.5403,-5.5403,-5.4849,-5.4046,-5.3148,-5.2346,-5.1505,-5.0646,-5.0359,-5.0302,-5.0302,-5.0302,-5.0302,-5.0302,-5.0302,-5.0302,-5.0302,-5.0302,-5.0302,-5.0302,-5.0302,-5.0302,-5.0302,-5.0302,-5.0302,-5.0302,-5.0302,-5.0264,-5.0206,-4.9385,-4.822,-4.6634,-4.6424,-4.608,-4.5354,-4.5297,-4.5297,-4.5297,-4.5297,-4.5297,-4.5297,-4.5297,-4.5297,-4.5297,-4.5297,-4.5297,-4.5316,-4.6137,-4.6978,-3.9737,-4.1151,-4.182,-4.0998,-3.8858,-3.6107,-3.2745,0.0,0.0,-2.5612,-2.5191,-2.5191,-2.5191,-2.5459,-2.6269,-2.8083,-2.8962,-3.1006,0.0,0.0,0.0,0.0,0.0,0.0,0.0,0.0,0.0,0.0,0.0,0.0,-5.1257,-5.2117,-5.2824,-5.3301,-5.4161,-5.4619,-5.4619,-5.5135,-5.5403,-5.5403,-5.5403,-5.5403,-5.5403,-5.5403,-5.5403,-5.5403,-5.5403,0.0,0.0,-5.5403,-5.5403,-5.5403,-5.5403,-5.5403,-5.5403,-5.5403,-5.5403,-5.5326,-5.4811,-5.4619,-5.4467,-5.3588,-5.355,-5.3836,-5.3836,-5.3588,-5.3129,-5.2308,-5.1849,-5.141,-5.0531,-5.0302,-5.0302,-5.0302,-5.0302,-5.0302,-5.0302,-5.0302,-5.0302,-5.0302,-5.0302,-5.0302,-5.0302,-5.0302,-5.0302,-5.0302,-5.0302,-5.0302,-5.0302,-5.0302,-5.0302,-5.0302,-4.9576,-4.8602,-4.7398,-4.6806,-4.6156,-4.5354,-4.5297,-4.5297,-4.5297,-4.5297,-4.5297,-4.5297,-4.5297,-4.5545,-4.6023,-4.6023,-4.629,-4.6825,-4.7665,-4.8239,-3.7712,-3.9202,-3.9947,-3.9623,-3.7445,-3.4694,0.0,0.0,-2.6918,-2.5497,-2.5191,-2.5191,-2.5191,-2.5191,-2.5459,-2.6269,-2.6823,-2.8523,-3.2516,0.0,0.0,0.0,0.0,0.0,0.0,0.0,0.0,0.0,0.0,0.0,0.0,-5.0875,-5.1601,-5.2422,-5.3263,-5.3836,-5.4104,-5.4715,-5.5135,-5.5403,-5.5403,-5.5403,-5.5403,-5.5403,-5.5403,-5.5403,-5.5403,0.0,0.0,-5.5403,-5.5403,-5.5403,-5.5403,-5.525,-5.5021,-5.5021,-5.4849,-5.4543,-5.3932,-5.3722,-5.3569,-5.2728,-5.2442,-5.2403,-5.2136,-5.2231,-5.2327,-5.1773,-5.141,-5.1066,-5.0455,-5.0302,-5.0302,-5.0302,-5.0302,-5.0302,-5.0302,-5.0302,-5.0302,-5.0302,-5.0302,-5.0302,-5.0302,-5.0302,-5.0302,-5.0302,-5.0302,-5.0302,-5.0302,-5.0302,-5.0302,-5.0302,-4.9786,-4.9117,-4.8258,-4.7398,-4.6538,-4.5698,-4.564,-4.5545,-4.5297,-4.5526,-4.5545,-4.5297,-4.5526,-4.5927,-4.65,-4.6768,-4.7207,-4.7818,-4.8697,-4.9232,-3.3815,-3.5286,-3.6738,-3.7521,-3.5209,-3.2501,0.0,-2.8809,-2.6173,-2.5363,-2.5191,-2.5191,-2.5191,-2.5191,-2.5459,-2.6269,-2.7778,-3.0084,-3.349,0.0,0.0,0.0,0.0,0.0,0.0,0.0,0.0,0.0,0.0,0.0,0.0,-5.0302,-5.0703,-5.1582,-5.2384,-5.3225,-5.4085,-5.4104,-5.4543,-5.5403,-5.5403,-5.5403,-5.5403,-5.5403,-5.5403,0.0,0.0,0.0,0.0,-5.5403,-5.5403,-5.5403,-5.5403,-5.4868,-5.4104,-5.4104,-5.3569,-5.2824,-5.2824,-5.2805,-5.2671,-5.1868,-5.162,-5.1448,-5.0588,-5.0932,-5.162,-5.1601,-5.099,-5.0302,-5.0302,-5.0302,-5.0302,-5.0302,-5.0302,-5.0302,-5.0302,-5.0302,-5.0302,-5.0302,-5.0302,-5.0302,-5.0302,-5.0302,-5.0302,-5.0302,-5.0302,-5.0302,-5.0302,-5.0302,-5.0302,-5.0302,-5.0283,-4.9958,-4.9137,-4.8296,-4.7417,-4.6538,-4.65,-4.6137,-4.5316,-4.6061,-4.6118,-4.5316,-4.608,-4.65,-4.65,-4.7379,-4.7799,-4.7818,-4.8697,-4.9519,-3.1732,-3.3089,-3.3818,-3.3547,-3.2229,-3.0624,-2.9211,-2.7587,-2.6173,-2.5363,-2.5191,-2.5191,-2.5191,-2.5191,-2.5841,-2.7797,-2.8561,0.0,0.0,0.0,0.0,0.0,0.0,0.0,0.0,0.0,0.0,0.0,0.0,0.0,0.0,-5.0302,-5.0436,-5.0703,-5.1544,-5.2117,-5.2403,-5.2938,-5.3339,-5.3626,-5.3626,-5.3626,-5.3626,-5.3626,-5.3626,0.0,0.0,0.0,0.0,-5.4276,-5.4161,-5.3626,-5.3626,-5.3454,-5.3206,-5.3206,-5.3034,-5.2709,-5.2174,-5.1983,-5.1849,-5.099,-5.0703,-5.0665,-5.0378,-5.0493,-5.0703,-5.0703,-5.0512,-5.0302,-5.0302,-5.0302,-5.0302,-5.0302,-5.0302,-5.0302,-5.0302,-5.0302,-5.0302,-5.0302,-5.0302,-5.0302,-5.0302,-5.0302,-5.0302,-5.0302,-5.0302,-5.0302,-5.0302,-5.0302,-5.0302,-5.0302,-5.0302,-4.9977,-4.9156,-4.885,-4.8315,-4.7436,-4.7398,-4.7283,-4.7016,-4.7264,-4.7283,-4.7016,-4.7264,-4.7685,-4.8277,-4.8544,-4.8965,-4.9519,-4.9786,-5.0054,0.0,-3.0414,-3.1221,-3.1045,-3.0128,-2.8981,-2.795,-2.6784,-2.5822,-2.5306,-2.5191,-2.5191,-2.5191,-2.5191,-2.5707,-2.7243,-2.8045,0.0,0.0,0.0,0.0,0.0,0.0,0.0,0.0,0.0,0.0,0.0,0.0,0.0,0.0,-5.0302,-5.0302,-5.0302,-5.0837,-5.1276,-5.1601,-5.2098,-5.2499,-5.2805,-5.2805,-5.2805,-5.2805,-5.2805,-5.2805,0.0,0.0,0.0,0.0,-5.3397,-5.3282,-5.2805,-5.2805,-5.2614,-5.2346,-5.2346,-5.2136,-5.1792,-5.1276,-5.1123,-5.1028,-5.0474,-5.0302,-5.0302,-5.0302,-5.0302,-5.0302,-5.0302,-5.0302,-5.0302,-5.0302,-5.0302,-5.0302,-5.0302,-5.0302,-5.0302,-5.0302,-5.0302,-5.0302,-5.0302,-5.0302,-5.0302,-5.0302,-5.0302,-5.0302,-5.0302,-5.0302,-5.0302,-5.0302,-5.0302,-5.0302,-5.0302,-5.0302,-5.0092,-4.9595,-4.927,-4.8869,-4.8315,-4.8296,-4.8143,-4.7818,-4.8124,-4.8143,-4.7818,-4.8124,-4.8563,-4.9098,-4.9404,-4.9805,-5.0302,-5.0302,-5.0302,0.0,0.0,0.0,0.0,-2.8485,-2.7338,-2.7338,-2.6173,0.0,-2.5115,-2.5153,-2.5249,-2.5363,-2.5287,-2.5325,-2.5688,0.0,0.0,0.0,0.0,0.0,0.0,0.0,0.0,0.0,0.0,0.0,0.0,0.0,0.0,0.0,-5.0302,-5.0302,-5.0302,-5.0302,-5.0684,-5.1505,-5.1525,-5.1888,-5.2614,-5.2614,-5.2614,-5.2614,-5.2614,-5.2614,0.0,0.0,0.0,0.0,-5.269,-5.2671,-5.2614,-5.2614,-5.2174,-5.1525,-5.1525,-5.1009,-5.0302,-5.0302,-5.0302,-5.0302,-5.0302,-5.0302,-5.0302,-5.0302,-5.0302,-5.0302,-5.0302,-5.0302,-5.0302,-5.0302,-5.0302,-5.0302,-5.0302,-5.0302,-5.0302,-5.0302,-5.0302,-5.0302,-5.0302,-5.0302,-5.0302,-5.0302,-5.0302,-5.0302,-5.0302,-5.0302,-5.0302,-5.0302,-5.0302,-5.0302,-5.0302,-5.0302,-5.0302,-5.0302,-4.9614,-4.9175,-4.9175,-4.9175,-4.8812,-4.8009,-4.8754,-4.8793,-4.799,-4.8774,-4.9175,-4.9175,-4.9939,-5.0302,-5.0302,-5.0302,-5.0302,-2.2247,0.0,-2.4129,-2.432,-2.4091,-2.3804,0.0,-2.4014,-2.4205,0.0,0.0,0.0,0.0,0.0,0.0,0.0,0.0,0.0,0.0,0.0,0.0,0.0,0.0,0.0,0.0,0.0,0.0,0.0,0.0,0.0,0.0,-5.0302,-5.0302,-5.0302,-5.0302,-5.0397,-5.0608,-5.0608,-5.0703,-5.0894,-5.0894,-5.0894,-5.0894,-5.0894,-5.0894,0.0,0.0,0.0,-5.0932,-5.162,-5.1486,-5.0894,-5.0894,-5.0779,-5.0608,-5.0608,-5.0474,-5.0302,-5.0302,-5.0302,-5.0302,-5.0302,-5.0302,-5.0302,-5.0302,-5.0302,-5.0302,-5.0302,-5.0302,-5.0302,-5.0302,-5.0302,-5.0302,-5.0302,-5.0302,-5.0302,-5.0302,-5.0302,-5.0302,-5.0302,-5.0302,-5.0302,-5.0302,-5.0302,-5.0302,-5.0302,-5.0302,-5.0302,-5.0302,-5.0302,-5.0302,-5.0302,-5.0302,-5.0302,-5.0302,-5.013,-5.0015,-5.0015,-5.0015,-4.9939,-4.9729,-4.9901,-4.992,-4.9729,-4.9901,-5.0015,-5.0015,-5.0206,-5.0302,-5.0302,-5.0302,-5.0302,-2.0755,-2.1939,-2.3277,-2.3614,-2.3751,-2.3881,-2.4263,0.0,0.0,0.0,0.0,0.0,0.0,0.0,0.0,0.0,0.0,0.0,0.0,0.0,0.0,0.0,0.0,0.0,0.0,0.0,0.0,0.0,0.0,0.0,0.0,-4.9156,-4.9347,-4.9729,-4.9748,-4.992,-5.0302,-5.0302,-5.0302,-5.0302,-5.0302,-5.0302,-5.0302,-5.0302,-5.0302,0.0,0.0,0.0,-5.034,-5.0818,-5.0741,-5.0302,-5.0302,-5.0302,-5.0302,-5.0302,-5.0302,-5.0302,-5.0302,-5.0302,-5.0302,-5.0302,-5.0302,-5.0302,-5.0302,-5.0302,-5.0302,-5.0302,-5.0302,-5.0302,-5.0302,-5.0302,-5.0302,-5.0302,-5.0302,-5.0302,-5.0302,-5.0302,-5.0302,-5.0302,-5.0302,-5.0302,-5.0302,-5.0302,-5.0302,-5.0302,-5.0302,-5.0302,-5.0302,-5.0302,-5.0302,-5.0302,-5.0302,-5.0302,-5.0302,-5.0302,-5.0302,-5.0302,-5.0302,-5.0302,-5.0302,-5.0302,-5.0302,-5.0302,-5.0302,-5.0302,-5.0302,-5.0302,-5.0302,-5.0302,-5.0302,-5.0302,-2.0241,-2.2074,-2.3992,-2.4359,-2.4636,-2.4981,-2.5657,0.0,0.0,0.0,0.0,0.0,0.0,0.0,0.0,0.0,0.0,0.0,0.0,0.0,0.0,0.0,0.0,0.0,0.0,0.0,0.0,0.0,0.0,0.0,0.0,-4.7799,-4.8143,-4.8869,-4.8888,-4.9289,-5.0111,-5.0245,-5.0302,-5.0302,-5.0302,-5.0302,-5.0302,-5.0302,-5.0302,-5.0302,0.0,0.0,-5.0302,-5.0302,-5.0302,-5.0302,-5.0302,-5.0302,-5.0302,-5.0302,-5.0302,-5.0302,-5.0236,-5.0169,-5.0144,-5.0144,-5.0144,-5.0144,-5.0144,-5.0144,-5.0144,-5.0212,-5.0259,-5.0302,-5.0302,-5.0302,-5.0302,-5.0302,-5.0302,-5.0302,-5.0302,-5.0302,-5.0302,-5.0302,-5.0302,-5.0302,-5.0302,-5.0302,-5.0302,-5.0302,-5.0302,-5.0302,-5.0302,-5.0302,-5.0302,-5.0302,-5.0302,-5.0302,-5.0302,-5.0302,-5.0302,-5.0302,-5.0302,-5.0302,-5.0302,-5.0302,-5.0302,-5.0302,-5.0302,-5.0302,-5.0302,-5.0302,-5.0302,-5.0302,-5.0302,-5.0302,-2.0554,-2.2353,-2.3594,-2.2276,-2.2486,-2.3021,-2.3155,0.0,0.0,0.0,0.0,0.0,0.0,0.0,0.0,0.0,0.0,0.0,0.0,0.0,0.0,0.0,0.0,0.0,0.0,0.0,0.0,0.0,0.0,0.0,0.0,-4.7783,-4.7876,-4.8009,-4.8009,-4.8411,-4.927,-4.9958,-5.0302,-5.0302,-5.0302,-5.0302,-5.0302,-5.0302,-5.0302,-5.0302,0.0,-5.0302,-5.0302,-5.0302,-5.0302,-5.0302,-5.0302,-5.0302,-5.0302,-5.0302,-5.0302,-5.0259,-4.9981,-4.9702,-4.9453,-4.9453,-4.9453,-4.9453,-4.9453,-4.9453,-4.9512,-4.9803,-5.0076,-5.0302,-5.0302,-5.0302,-5.0302,-5.0302,-5.0302,-5.0302,-5.0302,-5.0302,-5.0302,-5.0302,-5.0302,-5.0302,-5.0302,-5.0302,-5.0302,-5.0302,-5.0302,-5.0302,-5.0302,-5.0302,-5.0302,-5.0302,-5.0302,-5.0302,-5.0302,-5.0302,-5.0302,-5.0302,-5.0302,-5.0302,-5.0302,-5.0302,-5.0302,-5.0302,-5.0302,-5.0302,-5.0302,-5.0302,-5.0302,-5.0302,-5.0302,-5.0302,-1.9602,-2.1214,-2.2583,-2.2766,-2.4105,-2.5352,-2.5352,0.0,0.0,0.0,0.0,0.0,0.0,0.0,0.0,0.0,0.0,0.0,0.0,0.0,0.0,0.0,0.0,0.0,0.0,0.0,0.0,0.0,0.0,0.0,0.0,0.0,-4.6653,-4.7092,-4.7111,-4.7532,-4.8391,-4.8754,-4.9404,-5.0302,-5.0302,-5.0302,-5.0302,-5.0302,-5.0302,-5.0302,0.0,-5.0302,-5.0302,-5.0302,-5.0302,-5.0302,-5.0302,-5.0302,-5.0278,-5.012,-4.9929,-4.973,-4.957,-4.9424,-4.9283,-4.9283,-4.9283,-4.9283,-4.9283,-4.9283,-4.9314,-4.9483,-4.9757,-5.0076,-5.0236,-5.0302,-5.0302,-5.0302,-5.0302,-5.0302,-5.0302,-5.0302,-5.0302,-5.0302,-5.0302,-5.0302,-5.0302,-5.0302,-5.0302,-5.0302,-5.0302,-5.0302,-5.0302,-5.0302,-5.0302,-5.0302,-5.0302,-5.0302,-5.0302,-5.0302,-5.0302,-5.0302,-5.0302,-5.0302,-5.0302,-5.0302,-5.0302,-5.0302,-5.0302,-5.0302,-5.0302,-5.0302,-5.0302,-5.0302,-5.0302,-5.0302,-1.9175,-2.0593,-2.2067,-2.3569,0.0,-2.7262,-2.7854,0.0,0.0,0.0,0.0,0.0,0.0,0.0,0.0,0.0,0.0,0.0,0.0,0.0,0.0,0.0,0.0,0.0,0.0,0.0,0.0,0.0,0.0,0.0,0.0,0.0,-4.5583,-4.6194,-4.6214,-4.6634,-4.7494,-4.7513,-4.8239,-4.971,-4.971,-4.9824,-5.0015,-4.9926,-4.9997,-5.0169,-5.01,-5.0076,-5.0076,-5.0076,-5.0076,-5.0076,-5.0076,-5.0076,-5.0032,-4.9776,-4.9483,-4.9158,-4.9158,-4.9145,-4.908,-4.908,-4.908,-4.908,-4.908,-4.908,-4.908,-4.9177,-4.9363,-4.9646,-4.9981,-5.0076,-5.0076,-5.0076,-5.012,-5.0169,-5.0169,-5.0236,-5.0302,-5.0302,-5.0302,-5.0302,-5.0302,-5.0302,-5.0302,-5.0302,-5.0302,-5.0302,-5.0302,-5.0302,-5.0302,-5.0302,-5.0302,-5.0302,-5.0302,-5.0302,-5.0302,-5.0302,-5.0302,-5.0302,-5.0302,-5.0302,-5.0302,-5.0302,-5.0302,-5.0302,-5.0302,-5.0302,-5.0302,-5.0302,-5.0302,-5.0302,-2.0508,-2.1846,-2.2814,-2.3622,-2.4598,0.0,-2.8288,-2.8868,0.0,0.0,0.0,0.0,0.0,0.0,0.0,0.0,0.0,0.0,0.0,0.0,0.0,0.0,0.0,0.0,0.0,0.0,0.0,0.0,0.0,0.0,0.0,0.0,0.0,-4.5373,-4.5392,-4.5774,-4.6596,-4.6596,-4.7073,-4.799,-4.799,-4.8411,-4.9175,-4.8853,-4.9129,-4.983,-4.9512,-4.9375,-4.9375,-4.9375,-4.9375,-4.9375,-4.9375,-4.9375,-4.9363,-4.9345,-4.9113,-4.885,-4.885,-4.8623,-4.8364,-4.8364,-4.8364,-4.8364,-4.8364,-4.8364,-4.8439,-4.8746,-4.8832,-4.8967,-4.9283,-4.9375,-4.9375,-4.9375,-4.9599,-4.983,-4.983,-5.0076,-5.0302,-5.0302,-5.0302,-5.0302,-5.0302,-5.0302,-5.0302,-5.0302,-5.0302,-5.0302,-5.0302,-5.0302,-5.0302,-5.0302,-5.0302,-5.0302,-5.0302,-5.0302,-5.0302,-5.0302,-5.0302,-5.0302,-5.0302,-5.0302,-5.0302,-5.0302,-5.0302,-5.0302,-5.0302,-5.0302,-5.0302,-5.0302,-5.0302,-5.0302,-1.9201,-2.0823,-2.225,-2.3481,-2.5197,0.0,0.0,0.0,0.0,0.0,0.0,0.0,0.0,0.0,0.0,0.0,0.0,0.0,0.0,0.0,0.0,0.0,0.0,0.0,0.0,0.0,0.0,0.0,0.0,0.0,0.0,0.0,0.0,-4.4981,-4.4838,-4.499,-4.5437,-4.5437,-4.5696,-4.6252,-4.7302,-4.7971,-4.8296,-4.7979,-4.8003,-4.8287,-4.7928,-4.7811,-4.7849,-4.8356,-4.8563,-4.8619,-4.9096,-4.9177,-4.9001,-4.9001,-4.8781,-4.8495,-4.8495,-4.8402,-4.8306,-4.8306,-4.8306,-4.8306,-4.8306,-4.8306,-4.8344,-4.8458,-4.8495,-4.8623,-4.9177,-4.9283,-4.9283,-4.9283,-4.9394,-4.9483,-4.9483,-4.957,-4.973,-4.9955,-4.9981,-5.0051,-5.0259,-5.0302,-5.0302,-5.0302,-5.0302,-5.0302,-5.0302,-5.0302,-5.0302,-5.0302,-5.0302,-5.0302,-5.0302,-5.0302,-5.0302,-5.0302,-5.0302,-5.0302,-5.0302,-5.0302,-5.0302,-5.0302,-5.0302,-5.0302,-5.0302,-5.0302,-5.0302,-5.0302,-5.0302,-5.0302,-1.8863,-2.0535,-2.224,0.0,0.0,0.0,0.0,0.0,0.0,0.0,0.0,0.0,0.0,0.0,0.0,0.0,0.0,0.0,0.0,0.0,0.0,0.0,0.0,0.0,0.0,0.0,0.0,0.0,0.0,0.0,0.0,0.0,0.0,-4.48,-4.4546,-4.4493,-4.4676,-4.4676,-4.4795,-4.5019,-4.6178,-4.693,-4.7266,-4.6961,-4.6936,-4.7071,-4.6712,-4.6589,-4.6645,-4.7186,-4.7428,-4.7466,-4.8026,-4.8103,-4.7918,-4.8177,-4.8126,-4.7976,-4.8214,-4.8306,-4.8306,-4.8306,-4.8306,-4.8306,-4.8306,-4.8306,-4.8306,-4.8306,-4.8306,-4.8402,-4.8866,-4.8982,-4.8982,-4.8982,-4.908,-4.9145,-4.9145,-4.9302,-4.9512,-4.9757,-4.9903,-5.0025,-5.0259,-5.0302,-5.0302,-5.0302,-5.0302,-5.0302,-5.0302,-5.0302,-5.0302,-5.0302,-5.0302,-5.0302,-5.0302,-5.0302,-5.0302,-5.0302,-5.0302,-5.0302,-5.0302,-5.0302,-5.0302,-5.0302,-5.0302,-5.0302,-5.0302,-5.0302,-5.0302,-5.0302,-5.0302,-5.0302,-2.0014,-2.1416,0.0,0.0,0.0,0.0,0.0,0.0,0.0,0.0,0.0,0.0,0.0,0.0,0.0,0.0,0.0,0.0,0.0,0.0,0.0,0.0,0.0,0.0,0.0,0.0,0.0,0.0,0.0,0.0,0.0,0.0,-4.48,-4.48,-4.4519,-4.4383,-4.4402,-4.4402,-4.4402,-4.4383,-4.4383,-4.4979,-4.607,-4.5735,-4.5847,-4.6364,-4.6026,-4.5883,-4.5883,-4.5883,-4.5883,-4.5902,-4.5902,-4.5902,-4.5993,-4.6801,-4.7075,-4.7223,-4.8012,-4.8288,-4.8288,-4.8306,-4.8306,-4.8306,-4.8306,-4.8306,-4.8306,-4.8306,-4.8306,-4.8306,-4.8306,-4.8306,-4.8306,-4.8306,-4.855,-4.8816,-4.8816,-4.9333,-4.9784,-4.9803,-5.0076,-5.0302,-5.0302,-5.0302,-5.0302,-5.0302,-5.0302,-5.0302,-5.0302,-5.0302,-5.0302,-5.0302,-5.0302,-5.0302,-5.0302,-5.0302,-5.0302,-5.0302,-5.0302,-5.0302,-5.0302,-5.0302,-5.0302,-5.0302,-5.0302,-5.0302,-5.0302,-5.0302,-5.0302,-5.0302,-5.0302,-5.0302,-1.9943,0.0,0.0,0.0,0.0,0.0,0.0,0.0,0.0,0.0,0.0,0.0,0.0,0.0,0.0,0.0,0.0,0.0,0.0,0.0,0.0,0.0,0.0,0.0,0.0,0.0,0.0,0.0,0.0,0.0,0.0,-4.4795,-4.4519,-4.4519,-4.4023,-4.3873,-4.4121,-4.4121,-4.4221,-4.4383,-4.4383,-4.457,-4.4896,-4.4624,-4.4563,-4.4711,-4.4368,-4.4195,-4.425,-4.4819,-4.5388,-4.5902,-4.5902,-4.5902,-4.592,-4.6177,-4.6269,-4.6287,-4.6526,-4.6617,-4.6709,-4.7278,-4.748,-4.7572,-4.8141,-4.8306,-4.8306,-4.8306,-4.8306,-4.8306,-4.8306,-4.8306,-4.8306,-4.8306,-4.8364,-4.8532,-4.8746,-4.8967,-4.924,-4.9702,-4.9884,-5.0006,-5.0259,-5.0302,-5.0302,-5.0302,-5.0302,-5.0302,-5.0302,-5.0302,-5.0302,-5.0302,-5.0302,-5.0302,-5.0302,-5.0302,-5.0302,-5.0302,-5.0302,-5.0302,-5.0302,-5.0302,-5.0302,-5.0302,-5.0302,-5.0302,-5.0302,-5.0302,-5.0302,-5.0302,-5.0302,-5.0302,-2.0717,0.0,0.0,0.0,0.0,0.0,0.0,0.0,0.0,0.0,0.0,0.0,0.0,0.0,0.0,0.0,0.0,0.0,0.0,0.0,0.0,0.0,0.0,0.0,0.0,0.0,0.0,0.0,0.0,0.0,0.0,-4.4662,-4.4346,-4.425,-4.3744,-4.3582,-4.3814,-4.3814,-4.3873,-4.4053,-4.4053,-4.4053,-4.4023,-4.4017,-4.3942,-4.3781,-4.3582,-4.3497,-4.3534,-4.4011,-4.4507,-4.4947,-4.4947,-4.4947,-4.4984,-4.5314,-4.5424,-4.548,-4.5792,-4.5902,-4.5975,-4.6471,-4.6636,-4.6728,-4.7205,-4.7572,-4.7774,-4.7443,-4.759,-4.7829,-4.7829,-4.7829,-4.7921,-4.8233,-4.8402,-4.855,-4.8746,-4.9001,-4.9302,-4.973,-4.9929,-5.0051,-5.0278,-5.0302,-5.0302,-5.0302,-5.0302,-5.0302,-5.0302,-5.0302,-5.0302,-5.0302,-5.0302,-5.0302,-5.0302,-5.0302,-5.0302,-5.0302,-5.0302,-5.0302,-5.0302,-5.0302,-5.0302,-5.0302,-5.0302,-5.0302,-5.0302,-5.0302,-5.0302,-5.0302,-5.0302,-5.0302,0.0,0.0,0.0,0.0,0.0,0.0,0.0,0.0,0.0,0.0,0.0,0.0,0.0,0.0,0.0,0.0,0.0,0.0,0.0,0.0,0.0,0.0,0.0,0.0,0.0,0.0,0.0,0.0,0.0,0.0,0.0,-4.4522,-4.425,-4.4005,-4.3682,-4.3497,-4.3497,-4.3497,-4.3497,-4.3497,-4.3497,-4.3497,-4.3532,-4.3814,-4.3781,-4.3497,-4.3497,-4.3497,-4.3497,-4.3497,-4.3497,-4.3497,-4.3497,-4.3497,-4.3589,-4.4323,-4.4599,-4.4709,-4.5424,-4.5681,-4.5681,-4.5773,-4.5792,-4.5792,-4.5883,-4.6416,-4.6856,-4.6104,-4.6434,-4.7003,-4.7003,-4.7003,-4.7186,-4.7921,-4.8421,-4.8746,-4.8781,-4.9271,-4.9702,-4.973,-5.0025,-5.0259,-5.0259,-5.0278,-5.0302,-5.0302,-5.0302,-5.0302,-5.0302,-5.0302,-5.0302,-5.0302,-5.0302,-5.0302,-5.0302,-5.0302,-5.0302,-5.0302,-5.0302,-5.0302,-5.0302,-5.0302,-5.0302,-5.0302,-5.0302,-5.0302,-5.0302,-5.0302,-5.0302,-5.0302,-5.0302,-5.0302,0.0,0.0,0.0,0.0,0.0,0.0,0.0,0.0,0.0,0.0,0.0,0.0,0.0,0.0,0.0,0.0,0.0,0.0,0.0,0.0,0.0,0.0,0.0,0.0,0.0,0.0,0.0,0.0,0.0,0.0,-4.4503,-4.424,-4.4048,-4.4005,-4.3682,-4.3497,-4.3497,-4.3497,-4.3497,0.0,-4.3497,-4.3497,-4.3479,-4.3582,-4.3548,-4.3497,-4.3497,-4.3497,-4.3497,-4.3497,-4.3497,-4.3497,-4.3497,-4.3497,-4.3516,-4.3681,-4.3754,-4.3773,-4.3956,-4.4011,-4.4121,-4.4745,-4.4966,-4.5094,-4.5718,-4.6012,-4.6122,-4.5957,-4.6012,-4.6159,-4.6159,-4.6159,-4.6195,-4.6379,-4.7445,-4.8458,-4.8746,-4.89,-4.908,-4.9363,-4.9674,-4.9929,-4.9929,-5.012,-5.0302,-5.0302,-5.0302,-5.0302,-5.0302,-5.0302,-5.0302,-5.0302,-5.0302,-5.0302,-5.0302,-5.0302,-5.0302,-5.0302,-5.0302,-5.0302,-5.0302,-5.0302,-5.0302,-5.0302,-5.0302,-5.0302,-5.0302,-5.0302,-5.0302,-5.0302,-5.0302,-5.0302,0.0,0.0,0.0,0.0,0.0,0.0,0.0,0.0,0.0,0.0,0.0,0.0,0.0,0.0,0.0,0.0,0.0,0.0,0.0,0.0,0.0,0.0,0.0,0.0,0.0,0.0,0.0,0.0,0.0,-4.4346,-4.4221,-4.4079,-4.3942,-4.3781,-4.3582,-4.3497,-4.3497,-4.3497,-4.3497,-4.3497,-4.3497,-4.3497,-4.3497,-4.3497,-4.3497,-4.3497,-4.3497,-4.3497,-4.3497,-4.3497,-4.3497,-4.3497,-4.3497,-4.3497,-4.3497,-4.3497,-4.3497,-4.3497,-4.3497,-4.3497,-4.3552,-4.3993,-4.4121,-4.4195,-4.4617,-4.5021,-4.5259,-4.4856,-4.5021,-4.5333,-4.5333,-4.5333,-4.5424,-4.581,-4.6948,-4.7995,-4.8187,-4.8654,-4.908,-4.9271,-4.9453,-4.9599,-4.9757,-5.0076,-5.0255,-5.0076,-5.0212,-5.0302,-5.0302,-5.0302,-5.0302,-5.0302,-5.0302,-5.0302,-5.0302,-5.0302,-5.0302,-5.0302,-5.0302,-5.0302,-5.0302,-5.0302,-5.0302,-5.0302,-5.0302,-5.0302,-5.0302,-5.0302,-5.0302,-5.0302,-5.0302,-5.0302,0.0,0.0,0.0,0.0,0.0,0.0,0.0,0.0,0.0,0.0,0.0,0.0,0.0,0.0,0.0,0.0,0.0,0.0,0.0,0.0,0.0,0.0,0.0,0.0,0.0,0.0,0.0,0.0,0.0,-4.4013,-4.3923,-4.391,-4.3781,-4.3532,-4.3497,-4.3497,-4.3497,-4.3497,-4.3497,-4.3497,-4.3497,-4.3497,-4.3497,-4.3497,-4.3497,-4.3497,-4.3497,-4.3497,-4.3497,-4.3497,-4.3497,-4.3497,-4.3497,-4.3497,-4.3497,-4.3497,-4.3497,-4.3497,-4.3497,-4.3497,-4.3497,-4.3497,-4.3497,-4.3497,-4.3497,-4.3956,-4.436,-4.3681,-4.3975,-4.4488,-4.4488,-4.4488,-4.4672,-4.5333,-4.6299,-4.7151,-4.7281,-4.8166,-4.892,-4.8984,-4.922,-4.9483,-4.983,-5.012,-5.0212,-4.9929,-5.012,-5.0302,-5.0302,-5.0302,-5.0302,-5.0302,-5.0302,-5.0302,-5.0302,-5.0302,-5.0302,-5.0302,-5.0302,-5.0302,-5.0302,-5.0302,-5.0302,-5.0302,-5.0302,-5.0302,-5.0302,-5.0302,-5.0302,-5.0302,-5.0302,-5.0302,0.0,0.0,0.0,0.0,0.0,0.0,0.0,0.0,0.0,0.0,0.0,0.0,0.0,0.0,0.0,0.0,0.0,0.0,0.0,0.0,0.0,0.0,0.0,0.0,0.0,0.0,0.0,0.0,-4.2548,-4.2879,-4.3511,-4.3548,-4.3566,-4.3497,-4.3497,-4.3497,-4.3497,-4.3497,-4.3497,-4.3497,-4.3497,-4.3497,-4.3497,-4.3497,-4.3497,-4.3497,-4.3497,-4.3497,-4.3497,-4.3497,-4.3497,-4.3497,-4.3497,-4.3497,-4.3497,-4.3497,-4.3497,-4.3497,-4.3497,-4.3497,-4.3497,-4.3497,-4.3497,-4.3497,-4.3497,-4.3571,-4.3626,-4.3516,-4.3571,-4.3644,-4.3644,-4.3644,-4.3681,-4.3773,-4.4469,-4.5276,-4.5974,-4.6783,-4.748,-4.7772,-4.8875,-4.983,-5.0188,-5.0278,-5.0278,-5.0236,-5.0278,-5.0302,-5.0302,-5.0302,-5.0302,-5.0302,-5.0302,-5.0302,-5.0302,-5.0302,-5.0302,-5.0302,-5.0302,-5.0302,-5.0302,-5.0302,-5.0302,-5.0302,-5.0302,-5.0302,-5.0302,-5.0302,-5.0302,-5.0302,-5.0302,-5.0302,0.0,0.0,0.0,0.0,0.0,0.0,0.0,0.0,0.0,0.0,0.0,0.0,0.0,0.0,0.0,0.0,0.0,0.0,0.0,0.0,0.0,0.0,0.0,0.0,0.0,0.0,0.0,0.0,-4.1625,-4.1791,-4.2139,-4.2158,-4.2158,-4.2158,-4.2598,-4.2818,-4.2818,-4.3259,-4.3497,-4.3497,-4.3497,-4.3497,-4.3497,-4.3497,-4.3497,-4.3497,-4.3497,-4.3497,-4.3497,-4.3497,-4.3497,-4.3497,-4.3497,-4.3497,-4.3497,-4.3497,-4.3497,-4.3497,-4.3497,-4.3497,-4.3497,-4.3497,-4.3497,-4.3497,-4.3497,-4.3497,-4.3497,-4.3497,-4.3497,-4.3497,-4.3497,-4.3497,-4.3497,-4.3497,-4.3754,-4.4121,-4.447,-4.5678,-4.6919,-4.7746,-4.8549,-4.9246,-4.9654,-5.0051,-5.0236,-5.0051,-5.0169,-5.0302,-5.0302,-5.0302,-5.0302,-5.0302,-5.0302,-5.0302,-5.0302,-5.0302,-5.0302,-5.0302,-5.0302,-5.0302,-5.0302,-5.0302,-5.0302,-5.0302,-5.0302,-5.0302,-5.0302,-5.0302,-5.0302,-5.0302,-5.0302,-5.0302,0.0,0.0,0.0,0.0,0.0,0.0,0.0,0.0,0.0,0.0,0.0,0.0,0.0,0.0,0.0,0.0,0.0,0.0,0.0,0.0,0.0,0.0,0.0,0.0,0.0,0.0,0.0,0.0,-4.0799,-4.0891,-4.1111,-4.1111,-4.1111,-4.1111,-4.168,-4.2011,-4.2011,-4.2782,-4.3185,-4.3185,-4.3387,-4.3497,-4.3497,-4.3497,-4.3497,-4.3497,-4.3497,-4.3497,-4.3497,-4.3497,-4.3497,-4.3497,-4.3497,-4.3497,-4.3497,-4.3497,-4.3497,-4.3497,-4.3497,-4.3497,-4.3497,-4.3497,-4.3497,-4.3497,-4.3497,-4.3497,-4.3497,-4.3497,-4.3497,-4.3497,-4.3497,-4.3497,-4.3497,-4.3497,-4.3497,-4.3552,-4.3754,-4.5004,-4.6443,-4.7559,-4.8221,-4.8726,-4.9174,-4.9848,-5.0212,-4.9955,-5.0144,-5.0302,-5.0302,-5.0302,-5.0302,-5.0302,-5.0302,-5.0302,-5.0302,-5.0302,-5.0302,-5.0302,-5.0302,-5.0302,-5.0302,-5.0302,-5.0302,-5.0302,-5.0302,-5.0302,-5.0302,-5.0302,-5.0302,-5.0302,-5.0302,-5.0302,0.0,0.0,0.0,0.0,0.0,0.0,0.0,0.0,0.0,0.0,0.0,0.0,0.0,0.0,0.0,0.0,0.0,0.0,0.0,0.0,0.0,0.0,0.0,0.0,0.0,0.0,0.0,0.0,-3.9955,-4.0304,-4.1075,-4.1111,-4.1111,-4.1111,-4.1148,-4.1167,-4.1167,-4.1974,-4.2359,-4.2378,-4.313,-4.3497,-4.3497,-4.3497,-4.3497,-4.3497,-4.3497,-4.3497,-4.3497,-4.3497,-4.3497,-4.3497,-4.3497,-4.3497,-4.3497,-4.3497,-4.3497,-4.3497,-4.3497,-4.3497,-4.3497,-4.3497,-4.3497,-4.3497,-4.3497,-4.3497,-4.3497,-4.3497,-4.3497,-4.3497,-4.3497,-4.3497,-4.3497,-4.3497,-4.3497,-4.3699,-4.447,-4.4983,-4.5599,-4.6727,-4.7834,-4.8713,-4.9048,-4.9763,-5.0302,-5.0278,-5.0302,-5.0302,-5.0302,-5.0302,-5.0302,-5.0302,-5.0302,-5.0302,-5.0302,-5.0302,-5.0302,-5.0302,-5.0302,-5.0302,-5.0302,-5.0302,-5.0302,-5.0302,-5.0302,-5.0302,-5.0302,-5.0302,-5.0302,-5.0302,-5.0302,-5.0302,0.0,0.0,0.0,0.0,0.0,0.0,0.0,0.0,0.0,0.0,0.0,0.0,0.0,0.0,0.0,0.0,0.0,0.0,0.0,0.0,0.0,0.0,0.0,0.0,0.0,0.0,0.0,0.0,0.0,-3.9258,-3.9551,-3.957,-3.957,-3.957,-4.0065,-4.0579,-4.1111,-4.1405,-4.1534,-4.1552,-4.2359,-4.2727,-4.2745,-4.3259,-4.3497,-4.3497,-4.3497,-4.3497,-4.3497,-4.3497,-4.3497,-4.3497,-4.3497,-4.3497,-4.3497,-4.3497,-4.3497,-4.3497,-4.3497,-4.3497,-4.3497,-4.3497,-4.3497,-4.3497,-4.3497,-4.3497,-4.3497,-4.3497,-4.3497,-4.3497,-4.3497,-4.3497,-4.3497,-4.3497,-4.3497,-4.3571,-4.3864,-4.4332,-4.4963,-4.5941,-4.645,-4.6938,-4.7575,-4.8351,-4.888,-4.888,-4.9334,-4.9674,-4.9674,-4.9674,-4.9674,-4.9674,-4.9674,-4.9674,-4.9674,-4.9857,-4.9981,-4.9981,-4.9981,-5.0076,-5.0302,-5.0076,-5.0076,-5.0302,-5.0302,-5.0302,-5.0302,-5.0302,-5.0302,-5.0302,-5.0302,-5.0302,0.0,0.0,0.0,0.0,0.0,0.0,0.0,0.0,0.0,0.0,0.0,0.0,0.0,0.0,0.0,0.0,0.0,0.0,0.0,0.0,0.0,0.0,0.0,0.0,0.0,0.0,0.0,0.0,0.0,0.0,-3.8707,-3.8707,-3.8707,-3.8707,-3.9221,-3.9753,-4.0304,-4.0561,-4.0708,-4.0726,-4.1515,-4.2047,-4.2323,-4.2837,-4.3222,-4.3497,-4.3497,-4.3497,-4.3497,-4.3497,-4.3497,-4.3497,-4.3497,-4.3497,-4.3497,-4.3497,-4.3497,-4.3497,-4.3497,-4.3497,-4.3497,-4.3497,-4.3497,-4.3497,-4.3497,-4.3497,-4.3497,-4.3497,-4.3497,-4.3479,-4.3463,-4.3428,-4.3393,-4.3393,-4.3393,-4.341,-4.3463,-4.3809,-4.4311,-4.5009,-4.5327,-4.5712,-4.6373,-4.7172,-4.7763,-4.8074,-4.8563,-4.8983,-4.9265,-4.9283,-4.9283,-4.9283,-4.9283,-4.9283,-4.9283,-4.9618,-4.9803,-4.9803,-4.9903,-5.0025,-5.012,-5.0025,-5.0025,-5.0144,-5.0236,-5.0302,-5.0302,-5.0302,-5.0302,-5.0302,-5.0302,-5.0302,0.0,0.0,0.0,0.0,0.0,0.0,0.0,0.0,0.0,0.0,0.0,0.0,0.0,0.0,0.0,0.0,0.0,0.0,0.0,0.0,0.0,0.0,0.0,0.0,0.0,0.0,0.0,0.0,-3.8634,-3.8652,-3.867,-3.8689,-3.8707,-3.8707,-3.8707,-3.8707,-3.8707,-3.946,-3.9845,-3.9863,-4.0689,-4.1479,-4.2231,-4.2249,-4.269,-4.3442,-4.3442,-4.3461,-4.3497,-4.3497,-4.3497,-4.3497,-4.3497,-4.3497,-4.3497,-4.3497,-4.3497,-4.3497,-4.3497,-4.3497,-4.3497,-4.3497,-4.3497,-4.3497,-4.3497,-4.3497,-4.3497,-4.3497,-4.3497,-4.3497,-4.3411,-4.3305,-4.3214,-4.3214,-4.3214,-4.3251,-4.3376,-4.3446,-4.3582,-4.391,-4.4554,-4.517,-4.5565,-4.6221,-4.7027,-4.7845,-4.8044,-4.8363,-4.9121,-4.9234,-4.9252,-4.9252,-4.9252,-4.9252,-4.9252,-4.957,-4.9757,-4.9784,-5.0076,-5.0144,-4.983,-5.012,-5.0144,-4.983,-5.0144,-5.0302,-5.0302,-5.0302,-5.0302,-5.0302,-5.0302,-5.0302,-1.4003,0.0,0.0,0.0,0.0,0.0,0.0,0.0,0.0,0.0,0.0,0.0,0.0,0.0,0.0,0.0,0.0,0.0,0.0,0.0,0.0,0.0,0.0,0.0,0.0,0.0,0.0,0.0,-3.6964,-3.7221,-3.779,-3.8377,-3.8707,-3.8707,-3.8707,-3.8707,-3.8707,-3.8927,-3.9038,-3.9038,-3.9845,-4.0341,-4.0579,-4.1167,-4.1882,-4.2635,-4.2635,-4.2947,-4.3497,-4.3497,-4.3497,-4.3497,-4.3497,-4.3497,-4.3497,-4.3497,-4.3497,-4.3497,-4.3497,-4.3497,-4.3497,-4.3497,-4.3497,-4.3497,-4.3497,-4.3497,-4.3497,-4.3497,-4.3497,-4.3497,-4.3463,-4.3463,-4.3428,-4.3428,-4.3358,-4.334,-4.3394,-4.334,-4.3358,-4.3532,-4.3663,-4.3756,-4.3876,-4.4538,-4.5145,-4.5383,-4.6522,-4.7388,-4.7628,-4.8199,-4.8586,-4.8586,-4.8586,-4.8586,-4.8586,-4.8866,-4.9177,-4.9405,-4.9512,-4.9757,-5.0144,-5.0025,-5.0025,-5.0144,-5.0236,-5.0302,-5.0302,-5.0302,-5.0302,-5.0302,-5.0302,-5.0302,0.0,0.0,0.0,0.0,0.0,0.0,0.0,0.0,0.0,0.0,0.0,0.0,0.0,0.0,0.0,0.0,0.0,0.0,0.0,0.0,0.0,0.0,0.0,0.0,0.0,-3.6083,-3.6303,-3.6303,-3.6303,-3.6486,-3.6964,-3.7441,-3.7845,-3.8193,-3.8193,-3.8358,-3.8707,-3.8707,-3.8707,-3.8707,-3.9184,-3.957,-3.9918,-4.0396,-4.1038,-4.1827,-4.2158,-4.2561,-4.302,-4.3351,-4.3497,-4.3497,-4.3497,-4.3497,-4.3497,-4.3497,-4.3497,-4.3497,-4.3497,-4.3497,-4.3497,-4.3497,-4.3497,-4.3497,-4.3497,-4.3497,-4.3497,-4.3497,-4.3463,-4.3481,-4.3481,-4.3428,-4.3375,-4.3375,-4.3358,-4.334,-4.3394,-4.3286,-4.3214,-4.3305,-4.3233,-4.3178,-4.3214,-4.3561,-4.398,-4.4345,-4.5315,-4.6102,-4.6449,-4.6946,-4.7297,-4.7297,-4.7609,-4.781,-4.781,-4.8542,-4.9015,-4.908,-4.9163,-4.9265,-4.9364,-4.9119,-4.8979,-4.9047,-4.9549,-4.9958,-5.0302,-5.0302,-5.0302,-5.0302,-5.0302,-5.0302,-1.8461,-1.9101,0.0,0.0,0.0,0.0,-2.2001,-2.1967,0.0,0.0,0.0,0.0,0.0,0.0,0.0,0.0,0.0,0.0,0.0,0.0,0.0,0.0,0.0,0.0,0.0,-3.5532,-3.6009,-3.6009,-3.6101,-3.6156,-3.6156,-3.6248,-3.6615,-3.7331,-3.7349,-3.7734,-3.856,-3.8579,-3.8615,-3.8707,-3.8707,-3.9074,-3.9772,-3.9772,-4.0212,-4.102,-4.1717,-4.2139,-4.2359,-4.3057,-4.3406,-4.3497,-4.3497,-4.3497,-4.3497,-4.3497,-4.3497,-4.3497,-4.3497,-4.3497,-4.3497,-4.3497,-4.3497,-4.3497,-4.3497,-4.3497,-4.3497,-4.3497,-4.3481,-4.3429,-4.3429,-4.3322,-4.3232,-4.3232,-4.3251,-4.3251,-4.3376,-4.3286,-4.3214,-4.3214,-4.316,-4.3123,-4.3178,-4.316,-4.3378,-4.4126,-4.4437,-4.4821,-4.5534,-4.5792,-4.5902,-4.5902,-4.6544,-4.6985,-4.7022,-4.8211,-4.8883,-4.8639,-4.8802,-4.865,-4.8077,-4.7884,-4.7666,-4.7365,-4.8505,-4.9442,-5.0168,-5.0264,-5.0302,-5.0302,-5.0302,-5.0302,-1.9527,-2.0422,-2.1044,-1.915,0.0,0.0,0.0,-1.9452,0.0,0.0,0.0,0.0,0.0,0.0,0.0,0.0,0.0,0.0,0.0,0.0,0.0,0.0,0.0,0.0,-3.3065,-3.3807,-3.4284,-3.4284,-3.4908,-3.5247,-3.5247,-3.5917,-3.6358,-3.6523,-3.6523,-3.6909,-3.7716,-3.7716,-3.8046,-3.8707,-3.8707,-3.8781,-3.8927,-3.8927,-3.9368,-4.0139,-4.0286,-4.1093,-4.2304,-4.247,-4.291,-4.3497,-4.3497,-4.3497,-4.3497,-4.3497,-4.3497,-4.3497,-4.3497,-4.3497,-4.3497,-4.3497,-4.3497,-4.3497,-4.3497,-4.3497,-4.3497,-4.3497,-4.3497,-4.3463,-4.3463,-4.3463,-4.3444,-4.3444,-4.3393,-4.3376,-4.3394,-4.3286,-4.3214,-4.3214,-4.3178,-4.3178,-4.3214,-4.316,-4.3159,-4.3341,-4.3923,-4.4416,-4.4562,-4.5296,-4.5828,-4.5828,-4.6012,-4.6231,-4.6511,-4.681,-4.7155,-4.7579,-4.7636,-4.7707,-4.7848,-4.7808,-4.7777,-4.769,-4.8617,-4.9175,-4.9328,-4.9977,-5.0302,-5.0302,-5.0302,-5.0302,0.0,0.0,-2.2282,-2.1007,0.0,0.0,0.0,0.0,0.0,0.0,0.0,0.0,0.0,0.0,0.0,0.0,0.0,0.0,0.0,0.0,0.0,0.0,0.0,0.0,-3.1971,-3.2375,-3.2761,-3.3183,-3.3587,-3.3963,-3.4394,-3.4816,-3.5238,-3.5642,-3.5661,-3.6046,-3.689,-3.7323,-3.7679,-3.8102,-3.8505,-3.8707,-3.8707,-3.8707,-3.8927,-3.9313,-3.9717,-4.0359,-4.113,-4.1552,-4.2176,-4.2928,-4.3332,-4.3497,-4.3497,-4.3497,-4.3497,-4.3497,-4.3497,-4.3497,-4.3497,-4.3497,-4.3497,-4.3497,-4.3497,-4.3497,-4.3497,-4.3497,-4.3497,-4.3497,-4.3497,-4.3497,-4.3497,-4.3497,-4.3463,-4.3446,-4.3446,-4.3393,-4.3339,-4.3339,-4.3339,-4.3322,-4.3214,-4.3178,-4.316,-4.316,-4.3669,-4.4048,-4.4048,-4.4538,-4.4899,-4.4899,-4.5129,-4.5368,-4.5542,-4.6079,-4.6466,-4.6589,-4.6544,-4.6558,-4.6689,-4.6316,-4.6372,-4.693,-4.7503,-4.822,-4.9098,-4.95,-4.9901,-5.0302,-5.0302,-5.0302,0.0,0.0,0.0,0.0,0.0,-2.347,0.0,0.0,0.0,-2.3583,0.0,0.0,0.0,0.0,0.0,0.0,0.0,0.0,0.0,0.0,0.0,0.0,0.0,0.0,0.0,-3.0944,-3.1329,-3.2302,-3.21,-3.2394,-3.3513,-3.3568,-3.3954,-3.4734,-3.4752,-3.5183,-3.6046,-3.6688,-3.7165,-3.7526,-3.8157,-3.856,-3.8707,-3.8707,-3.8707,-3.8744,-3.9386,-3.9753,-3.9937,-4.0598,-4.135,-4.2158,-4.2947,-4.3351,-4.3497,-4.3497,-4.3497,-4.3497,-4.3497,-4.3497,-4.3497,-4.3497,-4.3497,-4.3463,-4.3463,-4.3463,-4.3463,-4.3463,-4.3497,-4.3497,-4.3497,-4.3497,-4.3497,-4.3497,-4.3497,-4.3497,-4.3497,-4.3497,-4.3497,-4.3497,-4.3497,-4.3463,-4.3286,-4.3251,-4.3251,-4.3251,-4.3477,-4.3693,-4.3693,-4.3795,-4.3878,-4.3878,-4.4257,-4.4505,-4.4575,-4.5401,-4.5853,-4.56,-4.5525,-4.5416,-4.5368,-4.4795,-4.4945,-4.5941,-4.6317,-4.7283,-4.885,-4.9022,-4.95,-5.0302,-5.0302,-5.0302,0.0,0.0,0.0,0.0,-2.4264,0.0,0.0,0.0,-2.2718,-2.2202,0.0,0.0,0.0,0.0,0.0,0.0,0.0,0.0,0.0,0.0,0.0,0.0,0.0,0.0,0.0,-2.925,-2.9898,-3.1421,-3.021,-3.0369,-3.2632,-3.2742,-3.3109,-3.3917,-3.3935,-3.4339,-3.5137,-3.5229,-3.6028,-3.7507,-3.7569,-3.801,-3.8707,-3.8707,-3.8707,-3.8707,-3.8799,-3.9239,-3.99,-3.9992,-4.0506,-4.1332,-4.2121,-4.2873,-4.3497,-4.3497,-4.3497,-4.3497,-4.3497,-4.3497,-4.3497,-4.3497,-4.3463,-4.3376,-4.3286,-4.334,-4.3411,-4.3411,-4.3428,-4.3497,-4.3497,-4.3497,-4.3497,-4.3497,-4.3497,-4.3497,-4.3497,-4.3497,-4.3497,-4.3497,-4.3497,-4.3479,-4.3463,-4.3411,-4.3394,-4.3394,-4.3322,-4.3268,-4.3268,-4.3393,-4.3481,-4.3481,-4.3589,-4.3763,-4.404,-4.4196,-4.437,-4.457,-4.4562,-4.4533,-4.4533,-4.4681,-4.4948,-4.5369,-4.6116,-4.6978,-4.7952,-4.8716,-4.95,-5.0302,-5.0302,-5.0302,0.0,0.0,0.0,0.0,0.0,0.0,-2.3708,0.0,-2.3138,0.0,0.0,0.0,0.0,0.0,0.0,0.0,0.0,0.0,0.0,0.0,0.0,0.0,0.0,0.0,0.0,0.0,0.0,0.0,-2.8686,-2.9145,-3.1109,-3.21,-3.2761,-3.3091,-3.3568,-3.3972,-3.4302,-3.4752,-3.5367,-3.6064,-3.656,-3.7221,-3.7991,-3.7991,-3.8267,-3.8707,-3.8707,-3.8891,-3.9203,-3.9203,-3.968,-4.0432,-4.0781,-4.168,-4.2855,-4.3327,-4.3511,-4.3497,-4.3497,-4.3497,-4.3497,-4.3391,-4.3393,-4.3394,-4.334,-4.3359,-4.3429,-4.3446,-4.3463,-4.3497,-4.3497,-4.3497,-4.3497,-4.3497,-4.3497,-4.3497,-4.3497,-4.3497,-4.3497,-4.3497,-4.3497,-4.3497,-4.3497,-4.3463,-4.3481,-4.3481,-4.3582,-4.3664,-4.3664,-4.3716,-4.3767,-4.3767,-4.36,-4.3548,-4.3682,-4.3716,-4.3763,-4.3855,-4.4042,-4.4072,-4.3886,-4.4327,-4.4565,-4.4549,-4.5179,-4.5936,-4.6811,-4.7827,-4.8774,-4.9614,-5.0073,-5.0302,-2.4504,0.0,0.0,0.0,0.0,0.0,0.0,0.0,0.0,0.0,0.0,0.0,0.0,0.0,0.0,0.0,0.0,0.0,0.0,0.0,0.0,0.0,0.0,0.0,0.0,0.0,0.0,0.0,0.0,-2.7475,-2.9751,-3.0999,-3.1935,-3.2596,-3.3183,-3.3587,-3.3807,-3.4394,-3.477,-3.5009,-3.5642,-3.6376,-3.7165,-3.7386,-3.7808,-3.8377,-3.8597,-3.8707,-3.8707,-3.8707,-3.9038,-3.957,-3.957,-4.0414,-4.1754,-4.2776,-4.3309,-4.3495,-4.3516,-4.3481,-4.3481,-4.3393,-4.3358,-4.3376,-4.334,-4.3376,-4.3429,-4.3463,-4.3497,-4.3497,-4.3497,-4.3497,-4.3497,-4.3497,-4.3497,-4.3497,-4.3497,-4.3497,-4.3497,-4.3497,-4.3497,-4.3497,-4.3497,-4.3497,-4.3497,-4.3497,-4.3716,-4.3878,-4.3878,-4.3878,-4.3878,-4.3878,-4.3649,-4.3497,-4.3497,-4.3497,-4.3497,-4.3497,-4.3749,-4.3814,-4.3649,-4.4072,-4.4221,-4.4121,-4.4493,-4.5117,-4.5994,-4.7042,-4.799,-4.8852,-4.983,-5.0302,0.0,0.0,0.0,-2.3799,0.0,0.0,0.0,0.0,-2.5301,0.0,0.0,0.0,0.0,0.0,-2.2703,-2.194,0.0,0.0,0.0,0.0,0.0,0.0,0.0,0.0,0.0,0.0,0.0,0.0,0.0,0.0,-2.8828,-2.9085,-3.0186,-3.254,-3.2632,-3.3018,-3.3788,-3.3825,-3.4229,-3.499,-3.5027,-3.5514,-3.6358,-3.7129,-3.7496,-3.7599,-3.8358,-3.8707,-3.8707,-3.8707,-3.8726,-3.8744,-3.8744,-3.9239,-4.0157,-4.1754,-4.2849,-4.349,-4.3483,-4.3503,-4.3503,-4.3503,-4.3394,-4.3267,-4.3232,-4.3305,-4.3394,-4.3394,-4.3446,-4.3497,-4.3497,-4.3497,-4.3497,-4.3497,-4.3497,-4.3497,-4.3497,-4.3497,-4.3497,-4.3497,-4.3497,-4.3497,-4.3497,-4.3497,-4.3497,-4.3497,-4.3532,-4.3532,-4.3532,-4.3532,-4.3532,-4.3532,-4.3532,-4.3497,-4.3497,-4.3497,-4.3497,-4.3497,-4.3532,-4.3649,-4.3974,-4.3986,-4.4121,-4.4383,-4.4383,-4.4843,-4.5688,-4.6515,-4.7352,-4.816,-4.9626,-5.0302,0.0,0.0,-2.6417,-2.5017,0.0,0.0,0.0,0.0,0.0,0.0,0.0,0.0,0.0,0.0,-2.296,-2.2666,-2.1586,0.0,0.0,0.0,0.0,0.0,0.0,0.0,0.0,0.0,0.0,0.0,-2.3951,0.0,0.0,-2.8136,-2.9617,-3.098,-3.2045,-3.2999,-3.3788,-3.3807,-3.3935,-3.4211,-3.4211,-3.4651,-3.5459,-3.5734,-3.645,-3.7514,-3.7771,-3.8212,-3.8707,-3.8707,-3.8707,-3.8707,-3.8707,-3.8823,-3.9122,-4.0304,-4.1893,-4.3453,-4.3188,-4.3263,-4.3499,-4.3503,-4.3449,-4.3412,-4.334,-4.334,-4.3429,-4.3446,-4.3497,-4.3497,-4.3497,-4.3497,-4.3497,-4.3497,-4.3497,-4.3497,-4.3497,-4.3497,-4.3497,-4.3497,-4.3497,-4.3497,-4.3497,-4.3497,-4.3497,-4.3497,-4.3497,-4.3497,-4.3497,-4.3497,-4.3497,-4.3497,-4.3497,-4.3497,-4.3497,-4.3497,-4.3497,-4.3497,-4.3497,-4.3548,-4.3649,-4.3682,-4.3697,-4.3791,-4.403,-4.43,-4.458,-4.6135,-4.706,-4.7341,-4.8919,-4.9757,-2.632,-2.6498,0.0,-2.5415,-2.5525,0.0,-2.4522,0.0,0.0,0.0,0.0,0.0,0.0,0.0,-2.325,-2.281,-2.1531,-2.0047,0.0,0.0,0.0,0.0,0.0,0.0,0.0,0.0,-2.2081,-2.3327,0.0,0.0,0.0,0.0,-2.8796,-3.0155,-3.1476,-3.2706,-3.3788,-3.3807,-3.3807,-3.3807,-3.3807,-3.4082,-3.4568,-3.4862,-3.5605,-3.6633,-3.7221,-3.7771,-3.8303,-3.8579,-3.8707,-3.8707,-3.8707,-3.8658,-3.8669,-3.9525,-4.1372,-4.3406,-4.3204,-4.3298,-4.3501,-4.3501,-4.3501,-4.3501,-4.3465,-4.3446,-4.3446,-4.3497,-4.3497,-4.3497,-4.3497,-4.3497,-4.3497,-4.3497,-4.3497,-4.3497,-4.3497,-4.3497,-4.3497,-4.3497,-4.3497,-4.3497,-4.3497,-4.3497,-4.3497,-4.3497,-4.3497,-4.3497,-4.3497,-4.3497,-4.3497,-4.3497,-4.3497,-4.3497,-4.3497,-4.3497,-4.3497,-4.3497,-4.3497,-4.3497,-4.3497,-4.3497,-4.3497,-4.3497,-4.3716,-4.3814,-4.3814,-4.5388,-4.6265,-4.6581,-4.7607,-4.8415]}]]